[[{"header":{"parameterUnit":"m.s-1","parameterCategory":1,"la1":31.0,"la2":29.5877,"lo1":-88.7671,"lo2":-86.6584,"dx":0.0162,"dy":0.0185,"nx":115,"ny":88,"refTime":"2023-02-11T18:00:00:Z","depth":0,"parameterNumber":2,"parameterNumberName":"U-component_of_WINDS"},"data":[0.0,0.0,0.0,0.0,0.0,0.0,0.0,0.0,0.0,0.0,0.0,0.0,0.0,0.0,0.0,0.0,0.0,0.0,0.0,0.0,0.0,0.0,0.0,0.0,0.0,0.0,0.0,0.0,0.0,0.0,0.0,0.0,0.0,0.0,0.0,0.0,0.0,0.0,0.0,0.0,0.0,0.0,0.0,0.0,0.0,0.0,0.0,0.0,0.0,0.0,0.0,0.0,0.0,0.0,0.0,0.0,0.0,0.0,0.0,0.0,0.0,0.0,0.0,0.0,0.0,0.0,0.0,0.0,0.0,0.0,0.0,0.0,0.0,0.0,0.0,0.0,0.0,0.0,0.0,0.0,0.0,0.0,0.0,0.0,0.0,0.0,0.0,0.0,0.0,0.0,0.0,0.0,0.0,0.0,0.0,0.0,0.0,0.0,0.0,0.0,0.0,0.0,0.0,0.0,0.0,0.0,0.0,0.0,0.0,0.0,0.0,0.0,0.0,0.0,0.0,0.0,0.0,0.0,0.0,0.0,0.0,0.0,0.0,0.0,0.0,0.0,0.0,0.0,0.0,0.0,0.0,0.0,0.0,0.0,0.0,0.0,0.0,0.0,0.0,0.0,0.0,0.0,0.0,0.0,0.0,0.0,0.0,0.0,0.0,0.0,0.0,0.0,0.0,0.0,0.0,0.0,0.0,0.0,0.0,0.0,0.0,0.0,0.0,0.0,0.0,0.0,0.0,0.0,0.0,0.0,0.0,0.0,0.0,0.0,0.0,0.0,0.0,0.0,0.0,0.0,0.0,0.0,0.0,0.0,0.0,0.0,0.0,0.0,0.0,0.0,0.0,0.0,0.0,0.0,0.0,0.0,0.0,0.0,0.0,0.0,0.0,0.0,0.0,0.0,0.0,0.0,0.0,0.0,0.0,0.0,0.0,0.0,0.0,0.0,0.0,0.0,0.0,0.0,0.0,0.0,0.0,0.0,0.0,0.0,0.0,0.0,0.0,0.0,0.0,0.0,0.0,0.0,0.0,0.0,0.0,0.0,0.0,0.0,0.0,0.0,0.0,0.0,0.0,0.0,0.0,0.0,0.0,0.0,0.0,0.0,0.0,0.0,0.0,0.0,0.0,0.0,0.0,0.0,0.0,0.0,0.0,0.0,0.0,0.0,0.0,0.0,0.0,0.0,0.0,0.0,0.0,0.0,0.0,0.0,0.0,0.0,0.0,0.0,0.0,0.0,0.0,0.0,0.0,0.0,0.0,0.0,0.0,0.0,0.0,0.0,0.0,0.0,0.0,0.0,0.0,0.0,0.0,0.0,0.0,0.0,0.0,0.0,0.0,0.0,0.0,0.0,0.0,0.0,0.0,0.0,0.0,0.0,0.0,0.0,0.0,0.0,0.0,0.0,0.0,0.0,0.0,0.0,0.0,0.0,0.0,0.0,0.0,0.0,0.0,0.0,0.0,0.0,0.0,0.0,0.0,0.0,0.0,0.0,0.0,0.0,0.0,0.0,0.0,0.0,0.0,0.0,0.0,0.0,0.0,0.0,0.0,0.0,0.0,0.0,0.0,0.0,0.0,0.0,0.0,0.0,0.0,0.0,0.0,0.0,0.0,0.0,0.0,0.0,0.0,0.0,0.0,0.0,0.0,0.0,0.0,0.0,0.0,0.0,0.0,0.0,0.0,0.0,0.0,0.0,0.0,0.0,0.0,0.0,0.0,0.0,0.0,0.0,0.0,0.0,0.0,0.0,0.0,0.0,0.0,0.0,0.0,0.0,0.0,0.0,0.0,0.0,0.0,0.0,0.0,0.0,0.0,0.0,0.0,0.0,0.0,0.0,0.0,0.0,0.0,0.0,0.0,0.0,0.0,0.0,0.0,0.0,0.0,0.0,0.0,0.0,0.0,0.0,0.0,0.0,0.0,0.0,0.0,0.0,0.0,0.0,0.0,0.0,0.0,0.0,0.0,0.0,0.0,0.0,0.0,0.0,0.0,0.0,0.0,0.0,0.0,0.0,0.0,0.0,0.0,0.0,0.0,0.0,0.0,0.0,0.0,0.0,0.0,0.0,0.0,0.0,0.0,0.0,0.0,0.0,0.0,0.0,0.0,0.0,0.0,0.0,0.0,0.0,0.0,0.0,0.0,0.0,0.0,0.0,0.0,0.0,0.0,0.0,0.0,0.0,0.0,0.0,0.0,0.0,0.0,0.0,0.0,0.0,0.0,0.0,0.0,0.0,0.0,0.0,0.0,0.0,0.0,0.0,0.0,0.0,0.0,0.0,0.0,0.0,0.0,0.0,0.0,0.0,0.0,0.0,0.0,0.0,0.0,0.0,0.0,0.0,0.0,0.0,0.0,0.0,0.0,0.0,0.0,0.0,0.0,0.0,0.0,0.0,0.0,0.0,0.0,0.0,0.0,0.0,0.0,0.0,0.0,0.0,0.0,0.0,0.0,0.0,0.0,0.0,0.0,0.0,0.0,0.0,0.0,0.0,0.0,0.0,0.0,0.0,0.0,0.0,0.0,0.0,0.0,0.0,0.0,0.0,0.0,0.0,0.0,0.0,0.0,0.0,0.0,0.0,0.0,0.0,0.0,0.0,0.0,0.0,0.0,0.0,0.0,0.0,0.0,0.0,0.0,0.0,0.0,0.0,0.0,0.0,0.0,0.0,0.0,0.0,0.0,0.0,0.0,0.0,0.0,0.0,0.0,0.0,0.0,0.0,0.0,0.0,0.0,0.0,0.0,0.0,0.0,0.0,0.0,0.0,0.0,0.0,0.0,0.0,0.0,0.0,0.0,0.0,0.0,0.0,0.0,0.0,0.0,0.0,0.0,0.0,0.0,0.0,0.0,0.0,0.0,0.0,0.0,0.0,0.0,0.0,0.0,0.0,0.0,0.0,0.0,0.0,0.0,0.0,0.0,0.0,0.0,0.0,0.0,0.0,0.0,0.0,0.0,0.0,0.0,0.0,0.0,0.0,0.0,0.0,0.0,0.0,0.0,0.0,0.0,0.0,0.0,0.0,0.0,0.0,0.0,0.0,0.0,0.0,0.0,0.0,0.0,0.0,0.0,0.0,0.0,0.0,0.0,0.0,0.0,0.0,0.0,0.0,0.0,0.0,0.0,0.0,0.0,0.0,0.0,0.0,0.0,0.0,0.0,0.0,0.0,0.0,0.0,0.0,0.0,0.0,0.0,0.0,0.0,0.0,0.0,0.0,0.0,0.0,0.0,0.0,0.0,0.0,0.0,0.0,0.0,0.0,0.0,0.0,0.0,0.0,0.0,0.0,0.0,0.0,0.0,0.0,0.0,0.0,0.0,0.0,0.0,0.0,0.0,0.0,0.0,0.0,0.0,0.0,0.0,0.0,0.0,0.0,0.0,0.0,0.0,0.0,0.0,0.0,0.0,0.0,0.0,0.0,0.0,0.0,0.0,0.0,0.0,0.0,0.0,0.0,0.0,0.0,0.0,0.0,0.0,0.0,0.0,0.0,0.0,0.0,0.0,0.0,0.0,0.0,0.0,0.0,0.0,0.0,0.0,0.0,0.0,0.0,0.0,0.0,0.0,0.0,0.0,0.0,0.0,0.0,0.0,0.0,0.0,0.0,0.0,0.0,0.0,0.0,0.0,0.0,0.0,0.0,0.0,0.0,0.0,0.0,0.0,0.0,0.0,0.0,0.0,0.0,0.0,0.0,0.0,0.0,0.0,0.0,0.0,0.0,0.0,0.0,0.0,0.0,0.0,0.0,0.0,0.0,0.0,0.0,0.0,0.0,0.0,0.0,0.0,0.0,0.0,0.0,0.0,0.0,0.0,0.0,0.0,0.0,0.0,0.0,0.0,0.0,0.0,0.0,0.0,0.0,0.0,0.0,0.0,0.0,0.0,0.0,0.0,0.0,0.0,0.0,0.0,0.0,0.0,0.0,0.0,0.0,0.0,0.0,0.0,0.0,0.0,0.0,0.0,0.0,0.0,0.0,0.0,0.0,0.0,0.0,0.0,0.0,0.0,0.0,0.0,0.0,0.0,0.0,0.0,0.0,0.0,0.0,0.0,0.0,0.0,0.0,0.0,0.0,0.0,0.0,0.0,0.0,0.0,0.0,0.0,0.0,0.0,0.0,0.0,0.0,0.0,0.0,0.0,0.0,0.0,0.0,0.0,0.0,0.0,0.0,0.0,0.0,0.0,0.0,0.0,0.0,0.0,0.0,0.0,0.0,0.0,0.0,0.0,0.0,0.0,0.0,0.0,0.0,-7.4642,0.0,0.0,0.0,-7.5133,0.0,0.0,0.0,0.0,0.0,0.0,0.0,0.0,0.0,0.0,0.0,0.0,0.0,0.0,0.0,0.0,0.0,0.0,0.0,0.0,0.0,0.0,0.0,0.0,0.0,0.0,0.0,0.0,0.0,0.0,0.0,0.0,0.0,0.0,0.0,0.0,0.0,0.0,0.0,0.0,0.0,0.0,0.0,0.0,0.0,0.0,0.0,0.0,0.0,0.0,0.0,0.0,0.0,0.0,0.0,0.0,0.0,0.0,0.0,0.0,0.0,0.0,0.0,0.0,0.0,0.0,0.0,0.0,0.0,0.0,0.0,0.0,0.0,0.0,0.0,0.0,0.0,0.0,0.0,0.0,0.0,0.0,0.0,0.0,0.0,0.0,0.0,0.0,0.0,0.0,0.0,0.0,0.0,0.0,0.0,0.0,0.0,0.0,0.0,0.0,0.0,0.0,0.0,0.0,0.0,0.0,0.0,0.0,0.0,0.0,-7.4361,-7.401,-7.4712,-7.4923,-7.4537,0.0,0.0,0.0,0.0,0.0,0.0,0.0,0.0,0.0,0.0,0.0,0.0,0.0,0.0,0.0,0.0,0.0,0.0,0.0,0.0,0.0,0.0,0.0,0.0,0.0,0.0,0.0,0.0,0.0,0.0,0.0,0.0,0.0,0.0,0.0,0.0,0.0,0.0,0.0,0.0,0.0,0.0,0.0,0.0,0.0,0.0,0.0,0.0,0.0,0.0,0.0,0.0,0.0,0.0,0.0,0.0,0.0,0.0,0.0,0.0,0.0,0.0,0.0,0.0,0.0,0.0,0.0,0.0,0.0,0.0,0.0,0.0,0.0,0.0,0.0,0.0,0.0,0.0,0.0,0.0,0.0,0.0,0.0,0.0,0.0,0.0,0.0,0.0,0.0,0.0,0.0,0.0,0.0,0.0,0.0,0.0,0.0,0.0,0.0,0.0,0.0,0.0,0.0,0.0,0.0,0.0,0.0,0.0,0.0,0.0,0.0,0.0,-7.4712,-7.4993,-7.4817,0.0,0.0,0.0,0.0,0.0,0.0,0.0,0.0,0.0,0.0,0.0,0.0,0.0,0.0,0.0,0.0,0.0,0.0,0.0,0.0,0.0,0.0,0.0,0.0,0.0,0.0,0.0,0.0,0.0,0.0,0.0,0.0,0.0,0.0,0.0,0.0,0.0,0.0,0.0,0.0,0.0,0.0,0.0,0.0,0.0,0.0,0.0,0.0,0.0,0.0,0.0,0.0,0.0,0.0,0.0,0.0,0.0,0.0,0.0,0.0,0.0,0.0,0.0,0.0,0.0,0.0,0.0,0.0,0.0,0.0,0.0,0.0,0.0,0.0,0.0,0.0,0.0,0.0,0.0,0.0,0.0,0.0,0.0,0.0,0.0,0.0,0.0,0.0,0.0,0.0,0.0,0.0,0.0,0.0,0.0,0.0,0.0,0.0,0.0,0.0,0.0,0.0,0.0,0.0,0.0,0.0,0.0,0.0,0.0,0.0,-7.401,-7.401,-7.4712,0.0,-7.6959,0.0,0.0,0.0,0.0,0.0,0.0,0.0,0.0,0.0,0.0,0.0,0.0,0.0,0.0,0.0,0.0,0.0,0.0,0.0,0.0,0.0,0.0,0.0,0.0,0.0,0.0,0.0,0.0,0.0,0.0,0.0,0.0,0.0,0.0,0.0,0.0,0.0,0.0,0.0,0.0,0.0,0.0,0.0,0.0,0.0,0.0,0.0,0.0,0.0,0.0,0.0,0.0,0.0,0.0,0.0,0.0,0.0,0.0,0.0,0.0,0.0,0.0,0.0,0.0,0.0,0.0,0.0,0.0,0.0,0.0,0.0,0.0,0.0,0.0,0.0,0.0,0.0,0.0,0.0,0.0,0.0,0.0,0.0,0.0,0.0,0.0,0.0,0.0,0.0,0.0,0.0,0.0,0.0,0.0,0.0,0.0,0.0,0.0,0.0,0.0,0.0,0.0,0.0,0.0,0.0,0.0,0.0,0.0,0.0,0.0,-7.4221,-7.4642,-7.4923,-7.5625,0.0,0.0,0.0,0.0,0.0,0.0,0.0,0.0,0.0,0.0,0.0,0.0,0.0,0.0,0.0,0.0,0.0,0.0,0.0,0.0,0.0,0.0,0.0,0.0,0.0,0.0,0.0,0.0,0.0,0.0,0.0,0.0,0.0,0.0,0.0,0.0,0.0,0.0,0.0,0.0,0.0,0.0,0.0,0.0,0.0,0.0,0.0,0.0,0.0,0.0,0.0,0.0,0.0,0.0,0.0,0.0,0.0,0.0,0.0,0.0,0.0,0.0,0.0,0.0,0.0,0.0,0.0,0.0,0.0,0.0,0.0,0.0,0.0,0.0,0.0,0.0,0.0,0.0,0.0,0.0,0.0,0.0,0.0,0.0,0.0,0.0,0.0,0.0,0.0,0.0,0.0,0.0,0.0,0.0,0.0,0.0,0.0,0.0,0.0,0.0,0.0,0.0,0.0,0.0,0.0,0.0,0.0,0.0,0.0,0.0,-7.4185,-7.4642,-7.5379,-7.5204,-7.5555,-7.6573,0.0,0.0,0.0,0.0,0.0,0.0,0.0,0.0,0.0,0.0,0.0,0.0,0.0,0.0,0.0,0.0,0.0,0.0,0.0,0.0,0.0,0.0,0.0,0.0,0.0,0.0,0.0,0.0,0.0,0.0,0.0,0.0,0.0,0.0,0.0,0.0,0.0,0.0,0.0,0.0,0.0,0.0,0.0,0.0,0.0,0.0,0.0,0.0,0.0,0.0,0.0,0.0,0.0,0.0,0.0,0.0,0.0,0.0,0.0,0.0,0.0,0.0,0.0,0.0,0.0,0.0,0.0,0.0,0.0,0.0,0.0,0.0,0.0,0.0,0.0,0.0,0.0,0.0,0.0,0.0,0.0,0.0,0.0,0.0,0.0,0.0,0.0,0.0,0.0,0.0,0.0,0.0,0.0,0.0,0.0,0.0,0.0,0.0,0.0,0.0,0.0,0.0,0.0,0.0,0.0,0.0,0.0,0.0,-7.401,-7.4677,-7.5414,-7.6152,-7.5484,-7.58,0.0,0.0,0.0,0.0,0.0,0.0,0.0,0.0,0.0,0.0,0.0,0.0,0.0,0.0,0.0,0.0,0.0,0.0,0.0,0.0,0.0,0.0,0.0,0.0,0.0,0.0,0.0,0.0,0.0,0.0,0.0,0.0,0.0,0.0,0.0,0.0,0.0,0.0,0.0,0.0,0.0,0.0,0.0,0.0,0.0,0.0,0.0,0.0,0.0,0.0,0.0,0.0,0.0,0.0,0.0,0.0,0.0,0.0,0.0,0.0,0.0,0.0,0.0,0.0,0.0,0.0,0.0,0.0,0.0,0.0,0.0,0.0,0.0,0.0,0.0,0.0,0.0,0.0,0.0,0.0,0.0,0.0,0.0,0.0,0.0,0.0,0.0,0.0,0.0,0.0,0.0,0.0,0.0,0.0,0.0,0.0,0.0,0.0,0.0,0.0,0.0,0.0,0.0,0.0,0.0,0.0,0.0,0.0,0.0,-7.4045,-7.4712,-7.5239,-7.552,-7.573,-7.6362,0.0,0.0,0.0,0.0,0.0,0.0,0.0,0.0,0.0,0.0,0.0,0.0,0.0,0.0,0.0,0.0,0.0,0.0,0.0,0.0,0.0,0.0,0.0,0.0,0.0,0.0,0.0,0.0,0.0,0.0,0.0,0.0,0.0,0.0,0.0,0.0,0.0,0.0,0.0,0.0,0.0,0.0,0.0,0.0,0.0,0.0,0.0,0.0,0.0,0.0,0.0,0.0,0.0,0.0,0.0,0.0,0.0,0.0,0.0,0.0,0.0,0.0,0.0,0.0,0.0,0.0,0.0,0.0,0.0,0.0,0.0,0.0,0.0,0.0,0.0,0.0,0.0,0.0,0.0,0.0,0.0,0.0,0.0,0.0,0.0,0.0,0.0,0.0,0.0,0.0,0.0,0.0,0.0,0.0,0.0,0.0,0.0,0.0,0.0,0.0,0.0,0.0,0.0,0.0,0.0,0.0,0.0,0.0,0.0,-7.4712,0.0,-7.559,-7.5871,-7.6362,-7.6889,0.0,0.0,0.0,0.0,0.0,0.0,0.0,0.0,0.0,0.0,0.0,0.0,0.0,0.0,0.0,0.0,0.0,0.0,0.0,0.0,0.0,0.0,0.0,0.0,0.0,0.0,0.0,0.0,0.0,0.0,0.0,0.0,0.0,0.0,0.0,0.0,0.0,0.0,0.0,0.0,0.0,0.0,0.0,0.0,0.0,0.0,0.0,0.0,0.0,0.0,0.0,0.0,0.0,0.0,0.0,0.0,0.0,0.0,0.0,0.0,0.0,0.0,0.0,0.0,0.0,0.0,0.0,0.0,0.0,0.0,0.0,0.0,0.0,0.0,0.0,0.0,0.0,0.0,0.0,0.0,0.0,0.0,0.0,0.0,0.0,0.0,0.0,0.0,0.0,0.0,0.0,0.0,0.0,0.0,0.0,0.0,0.0,0.0,0.0,0.0,0.0,0.0,0.0,0.0,0.0,0.0,0.0,0.0,-7.4747,-7.6152,-7.6222,-7.6573,-7.7345,-7.7345,-7.7415,0.0,0.0,0.0,0.0,0.0,0.0,0.0,0.0,0.0,0.0,0.0,0.0,0.0,0.0,0.0,0.0,0.0,0.0,0.0,0.0,0.0,0.0,0.0,0.0,0.0,0.0,0.0,0.0,0.0,0.0,0.0,0.0,0.0,0.0,0.0,0.0,0.0,0.0,0.0,0.0,0.0,0.0,0.0,0.0,0.0,0.0,0.0,0.0,0.0,0.0,0.0,0.0,0.0,0.0,0.0,0.0,0.0,0.0,0.0,0.0,0.0,0.0,0.0,0.0,0.0,0.0,0.0,0.0,0.0,0.0,0.0,0.0,0.0,0.0,0.0,0.0,0.0,0.0,0.0,0.0,0.0,0.0,0.0,0.0,0.0,0.0,0.0,0.0,0.0,0.0,0.0,0.0,0.0,0.0,0.0,0.0,0.0,0.0,0.0,0.0,0.0,0.0,0.0,0.0,0.0,0.0,0.0,0.0,0.0,-7.4747,-7.573,-7.6397,-7.6643,-7.717,-7.7696,0.0,0.0,0.0,0.0,0.0,0.0,0.0,0.0,0.0,0.0,0.0,0.0,0.0,0.0,0.0,0.0,0.0,0.0,0.0,0.0,0.0,0.0,0.0,0.0,0.0,0.0,0.0,0.0,0.0,0.0,0.0,0.0,0.0,0.0,0.0,0.0,0.0,0.0,0.0,0.0,0.0,0.0,0.0,0.0,0.0,0.0,0.0,0.0,0.0,0.0,0.0,0.0,0.0,0.0,0.0,0.0,0.0,0.0,0.0,0.0,0.0,0.0,0.0,0.0,0.0,0.0,0.0,0.0,0.0,0.0,0.0,0.0,0.0,0.0,0.0,0.0,0.0,0.0,0.0,0.0,0.0,0.0,0.0,0.0,0.0,0.0,0.0,0.0,0.0,0.0,0.0,0.0,0.0,0.0,0.0,0.0,0.0,0.0,0.0,0.0,0.0,0.0,0.0,0.0,0.0,0.0,0.0,0.0,0.0,-7.4958,-7.6362,-7.7135,-7.7135,-7.7591,-7.8083,-7.8574,0.0,0.0,0.0,0.0,0.0,0.0,0.0,0.0,0.0,0.0,0.0,0.0,0.0,0.0,0.0,0.0,0.0,0.0,0.0,0.0,0.0,0.0,0.0,0.0,0.0,0.0,0.0,0.0,0.0,0.0,0.0,0.0,0.0,0.0,0.0,0.0,0.0,0.0,0.0,0.0,0.0,0.0,0.0,0.0,0.0,0.0,0.0,0.0,0.0,0.0,0.0,0.0,0.0,0.0,0.0,0.0,0.0,0.0,0.0,0.0,0.0,0.0,0.0,0.0,0.0,0.0,0.0,0.0,0.0,0.0,0.0,0.0,0.0,0.0,0.0,0.0,0.0,0.0,0.0,0.0,0.0,0.0,0.0,0.0,0.0,0.0,0.0,0.0,0.0,0.0,0.0,0.0,0.0,0.0,0.0,0.0,0.0,0.0,0.0,0.0,0.0,0.0,0.0,0.0,0.0,0.0,0.0,0.0,-7.6362,-7.7802,-7.8539,-7.8469,-7.8539,-7.8651,0.0,0.0,0.0,0.0,0.0,0.0,0.0,0.0,0.0,0.0,0.0,0.0,0.0,0.0,0.0,0.0,0.0,0.0,0.0,0.0,0.0,0.0,0.0,0.0,0.0,0.0,0.0,0.0,0.0,0.0,0.0,0.0,0.0,0.0,0.0,0.0,0.0,0.0,0.0,0.0,0.0,0.0,0.0,0.0,0.0,0.0,0.0,0.0,0.0,0.0,0.0,0.0,0.0,0.0,0.0,0.0,0.0,0.0,0.0,0.0,0.0,0.0,0.0,0.0,0.0,0.0,0.0,0.0,0.0,0.0,0.0,0.0,0.0,0.0,0.0,0.0,0.0,0.0,0.0,0.0,0.0,0.0,0.0,0.0,0.0,0.0,0.0,0.0,0.0,0.0,0.0,0.0,0.0,0.0,0.0,0.0,0.0,0.0,0.0,0.0,0.0,0.0,0.0,0.0,0.0,0.0,0.0,0.0,0.0,-7.717,-7.8083,-7.8293,-7.7767,-7.8293,-7.9105,0.0,0.0,0.0,0.0,0.0,0.0,0.0,0.0,0.0,0.0,0.0,0.0,0.0,0.0,0.0,0.0,0.0,0.0,0.0,0.0,0.0,0.0,0.0,0.0,0.0,0.0,0.0,0.0,0.0,0.0,0.0,0.0,0.0,0.0,0.0,0.0,0.0,0.0,0.0,0.0,0.0,0.0,0.0,0.0,0.0,0.0,0.0,0.0,0.0,0.0,0.0,0.0,0.0,0.0,0.0,0.0,0.0,0.0,0.0,0.0,0.0,0.0,0.0,0.0,0.0,0.0,0.0,0.0,0.0,0.0,0.0,0.0,0.0,0.0,0.0,0.0,0.0,0.0,0.0,0.0,0.0,0.0,0.0,0.0,0.0,0.0,0.0,0.0,0.0,0.0,0.0,0.0,0.0,0.0,0.0,0.0,0.0,0.0,0.0,0.0,0.0,0.0,0.0,0.0,0.0,0.0,0.0,0.0,-7.7591,-7.7907,-7.8363,-7.8363,-7.7907,-7.8363,-7.9258,0.0,0.0,0.0,0.0,0.0,0.0,0.0,0.0,0.0,0.0,0.0,0.0,0.0,0.0,0.0,0.0,0.0,0.0,0.0,0.0,0.0,0.0,0.0,0.0,0.0,0.0,0.0,0.0,0.0,0.0,0.0,0.0,0.0,0.0,0.0,0.0,0.0,0.0,0.0,0.0,0.0,0.0,0.0,0.0,0.0,0.0,0.0,0.0,0.0,0.0,0.0,0.0,0.0,0.0,0.0,0.0,0.0,0.0,0.0,0.0,0.0,0.0,0.0,0.0,0.0,0.0,0.0,0.0,0.0,0.0,0.0,0.0,0.0,0.0,0.0,0.0,0.0,0.0,0.0,0.0,0.0,0.0,0.0,0.0,0.0,0.0,0.0,0.0,0.0,0.0,0.0,0.0,0.0,0.0,0.0,0.0,0.0,0.0,0.0,0.0,0.0,0.0,0.0,0.0,0.0,0.0,0.0,0.0,-7.7872,-7.8574,-7.8574,-7.8574,-7.8574,-7.8574,-7.9258,0.0,0.0,0.0,0.0,0.0,0.0,0.0,0.0,0.0,0.0,0.0,0.0,0.0,0.0,0.0,0.0,0.0,0.0,0.0,0.0,0.0,0.0,0.0,0.0,0.0,0.0,0.0,0.0,0.0,0.0,0.0,0.0,0.0,0.0,0.0,0.0,0.0,0.0,0.0,0.0,0.0,0.0,0.0,0.0,0.0,0.0,0.0,0.0,0.0,0.0,0.0,0.0,0.0,0.0,0.0,0.0,0.0,0.0,0.0,0.0,0.0,0.0,0.0,0.0,0.0,0.0,0.0,0.0,0.0,0.0,0.0,0.0,0.0,0.0,0.0,0.0,0.0,0.0,0.0,0.0,0.0,0.0,0.0,0.0,0.0,0.0,0.0,0.0,0.0,0.0,0.0,0.0,0.0,0.0,0.0,0.0,0.0,0.0,0.0,0.0,0.0,0.0,0.0,0.0,0.0,0.0,0.0,0.0,-7.8434,-7.8574,-7.8574,-7.8574,-7.8574,-7.8574,-7.9258,0.0,0.0,0.0,0.0,0.0,0.0,0.0,0.0,0.0,0.0,0.0,0.0,0.0,0.0,0.0,0.0,0.0,0.0,0.0,0.0,0.0,0.0,0.0,0.0,0.0,0.0,0.0,0.0,0.0,0.0,0.0,0.0,0.0,0.0,0.0,0.0,0.0,0.0,0.0,0.0,0.0,0.0,0.0,0.0,0.0,0.0,0.0,0.0,-8.411,0.0,0.0,0.0,0.0,0.0,0.0,0.0,0.0,0.0,0.0,0.0,0.0,0.0,0.0,0.0,0.0,0.0,0.0,0.0,0.0,0.0,0.0,0.0,0.0,0.0,0.0,0.0,0.0,0.0,0.0,0.0,0.0,0.0,0.0,0.0,0.0,0.0,0.0,0.0,0.0,0.0,0.0,0.0,0.0,0.0,0.0,0.0,0.0,0.0,0.0,0.0,0.0,0.0,0.0,0.0,0.0,0.0,0.0,0.0,-7.8574,-7.8574,-7.8574,-7.8574,-7.8616,-7.9258,-7.9939,0.0,0.0,0.0,0.0,0.0,0.0,0.0,0.0,0.0,0.0,0.0,0.0,0.0,0.0,0.0,0.0,0.0,0.0,0.0,0.0,0.0,0.0,0.0,0.0,0.0,0.0,0.0,0.0,0.0,0.0,0.0,0.0,0.0,0.0,0.0,0.0,0.0,0.0,0.0,0.0,0.0,0.0,0.0,0.0,0.0,0.0,0.0,0.0,0.0,0.0,0.0,0.0,0.0,0.0,0.0,0.0,0.0,0.0,0.0,0.0,0.0,0.0,0.0,0.0,0.0,0.0,0.0,0.0,0.0,0.0,0.0,0.0,0.0,0.0,0.0,0.0,0.0,0.0,0.0,0.0,0.0,0.0,0.0,0.0,0.0,0.0,0.0,0.0,0.0,0.0,0.0,0.0,0.0,0.0,0.0,0.0,0.0,0.0,0.0,0.0,0.0,0.0,0.0,0.0,0.0,0.0,0.0,-7.8574,-7.8574,-7.8574,-7.8574,-7.8574,-7.8609,-7.9751,-8.0465,-8.0728,0.0,0.0,0.0,0.0,0.0,0.0,0.0,0.0,0.0,0.0,0.0,0.0,0.0,0.0,0.0,0.0,0.0,0.0,0.0,0.0,0.0,0.0,0.0,0.0,0.0,0.0,0.0,0.0,0.0,0.0,0.0,0.0,0.0,0.0,0.0,0.0,0.0,0.0,-8.411,-8.411,0.0,0.0,0.0,0.0,0.0,0.0,0.0,0.0,-8.411,0.0,0.0,0.0,0.0,0.0,0.0,0.0,0.0,0.0,0.0,0.0,0.0,0.0,0.0,0.0,0.0,0.0,0.0,0.0,0.0,0.0,0.0,0.0,0.0,0.0,0.0,0.0,0.0,0.0,0.0,0.0,0.0,0.0,0.0,0.0,0.0,0.0,0.0,0.0,0.0,0.0,0.0,0.0,0.0,0.0,0.0,0.0,0.0,0.0,0.0,0.0,0.0,0.0,0.0,0.0,0.0,-7.8574,-7.8574,-7.8574,-7.8574,-7.8574,-7.8574,-7.8574,-7.8805,-7.9523,-8.0728,0.0,0.0,0.0,0.0,0.0,0.0,0.0,0.0,0.0,0.0,0.0,0.0,0.0,0.0,0.0,0.0,0.0,0.0,0.0,0.0,0.0,0.0,0.0,0.0,0.0,0.0,0.0,0.0,0.0,0.0,0.0,0.0,0.0,0.0,0.0,0.0,0.0,0.0,0.0,-8.411,-8.411,0.0,0.0,0.0,0.0,0.0,0.0,0.0,0.0,-8.411,0.0,0.0,0.0,0.0,0.0,0.0,0.0,0.0,0.0,0.0,0.0,0.0,0.0,0.0,0.0,0.0,0.0,0.0,0.0,0.0,0.0,0.0,0.0,0.0,0.0,0.0,0.0,0.0,0.0,0.0,0.0,0.0,0.0,0.0,0.0,0.0,0.0,0.0,0.0,0.0,0.0,0.0,0.0,0.0,0.0,0.0,0.0,0.0,0.0,0.0,0.0,0.0,0.0,0.0,0.0,-7.8574,-7.8574,-7.8574,-7.8574,-7.8574,-7.8574,-7.8574,-7.9335,-8.0015,0.0,0.0,0.0,0.0,0.0,0.0,0.0,0.0,0.0,0.0,0.0,0.0,0.0,0.0,0.0,0.0,0.0,0.0,0.0,0.0,0.0,0.0,0.0,0.0,0.0,0.0,0.0,0.0,0.0,0.0,0.0,0.0,0.0,0.0,0.0,0.0,0.0,0.0,0.0,0.0,-8.411,-8.411,-8.411,0.0,0.0,0.0,0.0,0.0,0.0,-8.411,-8.411,0.0,0.0,0.0,0.0,0.0,0.0,0.0,0.0,0.0,0.0,0.0,0.0,0.0,0.0,0.0,0.0,0.0,0.0,0.0,0.0,0.0,0.0,0.0,0.0,0.0,0.0,0.0,0.0,0.0,0.0,0.0,0.0,0.0,0.0,0.0,0.0,0.0,0.0,0.0,0.0,0.0,0.0,0.0,0.0,0.0,0.0,0.0,0.0,0.0,0.0,0.0,0.0,0.0,0.0,0.0,-7.8574,-7.8574,-7.8574,-7.8574,-7.8574,-7.8574,-7.8616,-7.9939,-8.0803,0.0,0.0,0.0,0.0,0.0,0.0,0.0,0.0,0.0,0.0,0.0,0.0,0.0,0.0,0.0,0.0,0.0,0.0,0.0,0.0,0.0,0.0,0.0,0.0,0.0,0.0,0.0,0.0,0.0,0.0,0.0,0.0,0.0,0.0,0.0,0.0,0.0,0.0,0.0,0.0,0.0,-8.411,-8.411,-8.411,0.0,0.0,0.0,0.0,-8.411,-8.411,0.0,0.0,0.0,0.0,0.0,0.0,0.0,0.0,0.0,0.0,0.0,0.0,0.0,0.0,0.0,0.0,0.0,0.0,0.0,0.0,0.0,0.0,0.0,0.0,0.0,0.0,0.0,0.0,0.0,0.0,0.0,0.0,0.0,0.0,0.0,0.0,0.0,0.0,0.0,0.0,0.0,0.0,0.0,0.0,0.0,0.0,0.0,0.0,0.0,0.0,0.0,0.0,0.0,0.0,0.0,0.0,-7.8574,-7.8574,-7.8574,-7.8574,-7.8574,-7.8574,-7.8616,-7.9939,-8.1291,0.0,0.0,0.0,0.0,0.0,0.0,0.0,0.0,0.0,0.0,0.0,0.0,0.0,0.0,0.0,0.0,0.0,0.0,0.0,0.0,0.0,0.0,0.0,0.0,0.0,0.0,0.0,0.0,0.0,0.0,0.0,0.0,0.0,0.0,0.0,0.0,0.0,0.0,0.0,0.0,0.0,-8.411,-8.411,-8.411,-8.411,0.0,0.0,-8.411,-8.411,-8.411,0.0,0.0,0.0,0.0,0.0,0.0,0.0,0.0,0.0,0.0,0.0,0.0,0.0,0.0,0.0,0.0,0.0,0.0,0.0,0.0,0.0,0.0,0.0,0.0,0.0,0.0,0.0,0.0,0.0,0.0,0.0,0.0,0.0,0.0,0.0,0.0,0.0,0.0,0.0,0.0,0.0,0.0,0.0,0.0,0.0,0.0,0.0,0.0,0.0,0.0,0.0,0.0,0.0,0.0,0.0,-7.8574,-7.8574,-7.8574,-7.8574,-7.8574,-7.8574,-7.8574,-7.8574,-7.9182,-7.9787,0.0,0.0,0.0,0.0,0.0,0.0,0.0,0.0,0.0,0.0,0.0,0.0,0.0,0.0,0.0,0.0,0.0,0.0,0.0,0.0,0.0,0.0,0.0,0.0,0.0,0.0,0.0,0.0,0.0,0.0,0.0,0.0,0.0,0.0,0.0,0.0,0.0,0.0,0.0,0.0,0.0,0.0,-8.411,-8.411,0.0,0.0,0.0,-8.411,-8.411,0.0,0.0,0.0,0.0,0.0,0.0,0.0,0.0,0.0,0.0,0.0,0.0,0.0,0.0,0.0,0.0,0.0,0.0,0.0,0.0,0.0,0.0,0.0,0.0,0.0,0.0,0.0,0.0,0.0,0.0,0.0,0.0,0.0,0.0,0.0,0.0,0.0,0.0,0.0,0.0,0.0,0.0,0.0,0.0,0.0,0.0,0.0,0.0,0.0,0.0,0.0,0.0,0.0,0.0,0.0,0.0,0.0,-7.8574,-7.8574,-7.8574,-7.8574,-7.8574,-7.8574,-7.8574,-7.9258,0.0,0.0,0.0,0.0,0.0,0.0,0.0,0.0,0.0,0.0,0.0,0.0,0.0,0.0,0.0,0.0,0.0,0.0,0.0,0.0,0.0,0.0,0.0,0.0,0.0,0.0,0.0,-8.411,0.0,0.0,0.0,0.0,0.0,0.0,0.0,0.0,0.0,0.0,0.0,0.0,0.0,0.0,-8.411,-8.411,-8.411,-8.411,0.0,0.0,-8.411,-8.411,-8.411,-8.4365,0.0,0.0,0.0,0.0,0.0,0.0,0.0,0.0,0.0,0.0,0.0,0.0,0.0,0.0,0.0,0.0,0.0,0.0,0.0,0.0,0.0,0.0,0.0,0.0,0.0,0.0,0.0,0.0,0.0,0.0,0.0,0.0,0.0,0.0,0.0,0.0,0.0,0.0,0.0,0.0,0.0,0.0,0.0,0.0,0.0,0.0,0.0,0.0,0.0,0.0,0.0,0.0,0.0,0.0,-7.8574,-7.8574,-7.8574,-7.8574,-7.8574,-7.8574,-7.8574,-7.8651,-8.1141,-8.2481,0.0,0.0,0.0,0.0,0.0,0.0,0.0,0.0,0.0,0.0,0.0,0.0,0.0,0.0,0.0,0.0,0.0,0.0,0.0,0.0,0.0,0.0,0.0,0.0,0.0,0.0,0.0,0.0,0.0,0.0,0.0,0.0,0.0,0.0,0.0,0.0,0.0,0.0,0.0,0.0,0.0,-8.411,-8.411,-8.411,-8.411,0.0,-8.411,-8.411,-8.411,-8.411,-8.411,-8.4238,0.0,0.0,0.0,0.0,0.0,0.0,0.0,0.0,0.0,0.0,0.0,0.0,0.0,0.0,0.0,0.0,0.0,0.0,0.0,0.0,0.0,0.0,0.0,0.0,0.0,0.0,0.0,0.0,0.0,0.0,0.0,0.0,0.0,0.0,0.0,0.0,0.0,0.0,0.0,0.0,0.0,0.0,0.0,0.0,0.0,0.0,0.0,0.0,0.0,0.0,0.0,0.0,0.0,-7.8574,-7.8574,-7.8574,-7.8574,-7.8574,-7.8574,-7.8574,-7.8574,-7.964,-8.0202,0.0,0.0,0.0,0.0,0.0,0.0,0.0,0.0,0.0,0.0,0.0,0.0,0.0,0.0,0.0,0.0,0.0,0.0,0.0,0.0,0.0,0.0,0.0,0.0,0.0,0.0,0.0,0.0,-8.411,-8.411,-8.411,0.0,0.0,0.0,0.0,0.0,0.0,0.0,0.0,0.0,0.0,-8.411,-8.411,-8.411,0.0,0.0,-8.411,-8.411,-8.411,-8.411,-8.4327,-8.5034,-8.4555,0.0,0.0,0.0,0.0,0.0,0.0,0.0,0.0,0.0,0.0,0.0,0.0,0.0,0.0,0.0,0.0,0.0,0.0,0.0,0.0,0.0,0.0,0.0,0.0,0.0,0.0,-7.0789,-7.0789,0.0,0.0,0.0,0.0,0.0,0.0,0.0,0.0,0.0,0.0,0.0,0.0,0.0,0.0,0.0,0.0,0.0,0.0,0.0,0.0,0.0,0.0,0.0,0.0,-7.8574,-7.8574,-7.8574,-7.8574,-7.8574,-7.8574,-7.8574,-7.8574,-7.8993,-7.9411,-7.9828,0.0,0.0,0.0,0.0,0.0,0.0,0.0,0.0,0.0,0.0,0.0,0.0,0.0,0.0,0.0,0.0,0.0,0.0,0.0,0.0,0.0,0.0,0.0,0.0,0.0,0.0,0.0,-8.411,-8.411,-8.411,0.0,0.0,0.0,0.0,0.0,0.0,0.0,0.0,0.0,0.0,-8.411,-8.411,-8.411,-8.411,-8.411,-8.411,-8.411,-8.411,-8.4365,-8.4871,-8.5672,0.0,0.0,0.0,0.0,0.0,0.0,0.0,0.0,0.0,0.0,0.0,0.0,0.0,0.0,0.0,0.0,0.0,0.0,0.0,0.0,0.0,0.0,0.0,0.0,0.0,0.0,0.0,-7.0789,0.0,0.0,-7.0789,0.0,0.0,0.0,0.0,0.0,0.0,0.0,0.0,0.0,0.0,0.0,0.0,0.0,0.0,0.0,0.0,0.0,0.0,0.0,0.0,0.0,0.0,-7.8574,-7.8574,-7.8574,-7.8574,-7.8574,-7.8574,-7.8574,-7.8651,-7.9939,-8.1252,-8.2517,0.0,0.0,0.0,0.0,0.0,0.0,0.0,0.0,0.0,0.0,0.0,0.0,0.0,0.0,0.0,0.0,0.0,0.0,0.0,0.0,0.0,0.0,0.0,0.0,0.0,0.0,-8.411,-8.411,-8.411,0.0,0.0,0.0,0.0,0.0,0.0,0.0,0.0,0.0,-8.411,-8.411,-8.411,-8.411,-8.411,-8.411,-8.411,-8.411,-8.411,-8.411,-8.5034,-8.5758,0.0,0.0,0.0,0.0,0.0,0.0,0.0,0.0,0.0,0.0,0.0,0.0,0.0,0.0,0.0,0.0,0.0,0.0,0.0,0.0,0.0,0.0,0.0,0.0,0.0,0.0,0.0,-6.9818,-7.0789,0.0,0.0,0.0,0.0,0.0,0.0,0.0,0.0,0.0,0.0,0.0,-7.5587,-7.8177,0.0,0.0,0.0,0.0,0.0,0.0,0.0,0.0,0.0,0.0,0.0,0.0,-7.8574,-7.8574,-7.8574,-7.8574,-7.8574,-7.8574,-7.8574,-7.8609,-7.907,-7.9523,-8.0015,0.0,0.0,0.0,0.0,0.0,0.0,0.0,0.0,0.0,0.0,0.0,0.0,0.0,0.0,0.0,0.0,0.0,0.0,0.0,0.0,0.0,0.0,0.0,0.0,0.0,-8.411,0.0,0.0,0.0,0.0,0.0,0.0,0.0,0.0,0.0,0.0,-8.411,-8.411,-8.411,-8.411,-8.411,-8.411,-8.411,-8.411,0.0,0.0,0.0,0.0,0.0,0.0,0.0,0.0,0.0,0.0,0.0,0.0,0.0,-8.7375,-8.6888,-8.692,-8.693,-8.6941,-8.6982,0.0,0.0,0.0,0.0,0.0,0.0,0.0,0.0,0.0,0.0,0.0,0.0,0.0,0.0,-6.9818,-7.0789,-7.0789,0.0,0.0,0.0,0.0,0.0,0.0,0.0,0.0,-7.4009,-7.5501,-7.5673,-7.8755,-8.0209,-8.0175,-8.0105,-7.9815,0.0,0.0,0.0,0.0,0.0,0.0,0.0,0.0,-7.8574,-7.8574,-7.8574,-7.8574,-7.8574,-7.8574,-7.8574,-7.8574,-7.907,-7.9564,-8.0056,-8.2332,-8.3732,0.0,0.0,0.0,0.0,0.0,0.0,0.0,0.0,0.0,0.0,0.0,0.0,0.0,0.0,0.0,0.0,0.0,0.0,0.0,0.0,0.0,0.0,0.0,-8.411,0.0,0.0,0.0,0.0,0.0,0.0,0.0,0.0,0.0,-8.411,-8.411,-8.411,-8.411,-8.411,-8.411,-8.411,0.0,0.0,0.0,0.0,0.0,0.0,0.0,-8.6525,-8.6814,-8.7363,-8.7635,-8.7145,-8.6924,-8.701,-8.7541,0.0,0.0,-8.703,-8.703,-8.703,-8.703,-8.6515,-8.6321,-8.6865,-8.6554,-8.6321,0.0,0.0,0.0,0.0,-6.7849,0.0,0.0,0.0,-6.9818,-7.0161,0.0,-7.0789,0.0,0.0,0.0,0.0,-7.0789,-7.0789,0.0,0.0,-7.4009,-7.5468,-7.5706,-7.867,-8.0124,-8.0191,-7.996,-7.9659,-7.9419,-7.9384,-7.9245,0.0,0.0,0.0,0.0,0.0,-7.8574,-7.8574,-7.8574,-7.8574,-7.8574,-7.8574,-7.8574,-7.8651,-7.9863,-8.1176,-8.2591,-8.3879,-8.5373,-8.6744,-8.5589,0.0,0.0,0.0,0.0,0.0,0.0,0.0,0.0,0.0,0.0,0.0,0.0,0.0,0.0,0.0,0.0,0.0,0.0,0.0,0.0,-8.411,0.0,0.0,0.0,0.0,0.0,0.0,0.0,0.0,0.0,-8.411,-8.411,-8.411,-8.411,-8.411,0.0,0.0,0.0,0.0,-8.411,-8.4174,-8.4174,-8.4191,-8.4177,-8.6138,-8.7921,-8.8631,0.0,0.0,-8.8183,-8.796,-8.7735,-8.7117,-8.702,-8.703,-8.703,-8.703,-8.703,-8.703,-8.6982,-8.6992,-8.6992,-8.6943,-8.6943,-6.6999,0.0,0.0,0.0,0.0,-6.8386,-6.9034,-6.9818,-6.9818,-7.0161,-7.0789,-7.0789,0.0,0.0,0.0,0.0,0.0,0.0,-7.0789,-7.0877,-7.2838,-7.4388,-7.5587,-7.7533,-7.9076,-8.0175,-8.0123,-7.9849,-7.9453,-7.9384,-7.9183,-7.8714,0.0,0.0,0.0,0.0,-7.8574,-7.8574,-7.8574,-7.8574,-7.8574,-7.8574,-7.8574,-7.8574,-7.8993,-7.9411,-7.9828,-8.1141,-8.2553,-8.3915,-8.4573,0.0,0.0,0.0,0.0,0.0,0.0,0.0,0.0,0.0,0.0,0.0,0.0,0.0,0.0,0.0,0.0,0.0,0.0,0.0,-8.411,-8.411,-8.411,0.0,0.0,0.0,0.0,0.0,0.0,0.0,0.0,0.0,-8.411,-8.411,-8.411,0.0,0.0,-8.411,-8.411,-8.411,-8.4403,-8.5197,-8.5323,0.0,-8.5698,-8.7502,-8.8859,-8.8824,-8.9123,-8.8919,-8.752,-8.728,-8.7223,-8.702,-8.703,-8.703,-8.703,-8.703,-8.703,-8.703,-8.703,-8.703,-8.703,-8.703,-8.703,-6.6999,-6.703,-6.7699,-6.8029,-6.8327,-6.8976,-6.9646,-7.0161,-7.0218,-7.0419,-7.0789,-7.0789,-7.0789,-7.0789,-7.0789,0.0,0.0,0.0,-7.0789,-7.0877,-7.3044,-7.4561,-7.5587,-7.7737,-7.9246,-8.0175,-8.0071,-7.9829,-7.9384,-7.9303,-7.9033,-7.8609,0.0,-7.8574,-7.8574,-7.8574,-7.8574,-7.8574,-7.8574,-7.8574,-7.8574,-7.8574,-7.8574,-7.8574,-7.8574,-7.884,-7.9411,-8.0278,-8.1327,-8.2701,-8.3034,-8.3879,0.0,0.0,0.0,0.0,0.0,0.0,0.0,0.0,0.0,0.0,0.0,-8.6365,-8.5868,0.0,0.0,0.0,-8.4245,-8.411,-8.411,-8.411,0.0,0.0,0.0,0.0,0.0,0.0,0.0,-8.2824,-8.3524,-8.411,-8.411,-8.411,-8.411,-8.411,-8.411,-8.411,-8.411,0.0,-8.4365,-8.5034,-8.551,-8.6142,-8.7192,-8.8489,-8.9286,-8.8986,-8.8992,-8.8585,-8.729,-8.703,-8.703,-8.703,-8.703,-8.703,-8.703,-8.703,-8.703,-8.703,-8.703,-8.703,-8.703,-8.703,-8.703,-6.6999,-6.703,-6.7638,-6.8268,-6.8948,-6.9557,-7.0218,-7.0789,-7.0789,-7.0789,-7.0789,-7.0789,-7.0789,-7.0789,-7.0789,0.0,-7.0789,-7.0789,-7.0789,-7.0933,-7.3804,-7.5177,-7.5468,-7.8381,-7.9888,-7.9972,-7.9858,-7.9672,-7.9384,-7.9123,-7.8876,-7.8609,-7.8574,-7.8574,-7.8574,-7.8574,-7.8574,-7.8574,-7.8574,-7.8574,-7.8574,-7.8574,-7.8574,-7.8574,-7.8574,-7.9182,-8.0465,-8.0541,-8.118,-8.2517,-8.1402,-8.1402,-8.2814,0.0,0.0,0.0,0.0,0.0,0.0,0.0,0.0,0.0,0.0,0.0,0.0,0.0,0.0,-8.4843,-8.4363,0.0,-8.411,-8.411,0.0,0.0,0.0,-8.411,-8.411,-8.411,-8.411,-8.411,0.0,0.0,-8.411,-8.411,-8.411,-8.411,-8.411,-8.411,-8.411,-8.411,-8.411,-8.4365,-8.526,-8.6691,-8.8619,-8.9394,-8.9512,-8.9175,-8.911,-8.8597,-8.7319,-8.703,-8.703,-8.703,-8.703,-8.703,-8.703,-8.703,-8.703,-8.703,-8.703,-8.703,-8.703,-8.703,-8.703,-6.6999,-6.703,-6.7668,-6.8268,-6.9006,-7.0047,-7.0645,-7.0789,-7.0789,-7.0789,-7.0789,-7.0789,-7.0789,-7.0789,-7.0789,-7.0789,-7.0789,-7.0789,-7.0789,-7.0845,-7.1609,-7.2545,-7.3771,-7.5673,-7.7243,-7.8366,-7.934,-7.9672,-7.9384,-7.9123,-7.8842,-7.8609,-7.8574,-7.8574,-7.8574,-7.8574,-7.8574,-7.8574,-7.8574,-7.8574,-7.8574,-7.8574,-7.8574,-7.8574,-7.8574,-7.8763,-7.907,-7.9105,-7.9751,-8.1105,-8.0879,-8.1813,-8.4245,-8.3034,0.0,0.0,0.0,0.0,0.0,0.0,0.0,0.0,0.0,-8.6241,-8.5708,0.0,-8.5306,0.0,-8.4196,-8.411,-8.411,-8.411,0.0,0.0,-8.411,-8.411,-8.411,-8.411,-8.411,-8.411,-8.411,-8.411,-8.411,-8.411,-8.411,-8.411,-8.411,-8.411,-8.411,-8.411,-8.4429,-8.526,-8.6341,-8.7966,-9.0103,-9.0724,-9.036,-8.9286,-8.911,-8.8636,-8.7262,-8.703,-8.703,-8.703,-8.703,-8.703,-8.703,-8.703,-8.703,-8.703,-8.703,-8.703,-8.703,-8.703,-8.703,-6.6999,-6.706,-6.7608,-6.8268,-6.8948,-6.9933,-7.0532,-7.0789,-7.0789,-7.0789,-7.0789,-7.0789,-7.0789,-7.0789,-7.0789,-7.0789,-7.0789,-7.0789,-7.0789,-7.0845,-7.1489,-7.2252,-7.3186,-7.5435,-7.6954,-7.784,-7.9046,-7.9518,-7.9396,-7.8998,-7.8742,-7.8574,-7.8574,-7.8574,-7.8574,-7.8574,-7.8574,-7.8574,-7.8574,-7.8574,-7.8574,-7.8574,-7.8574,-7.8574,-7.8574,-7.8574,-7.8574,-7.8574,-7.8952,-7.9711,-7.9751,-8.043,-8.1962,-8.1366,-8.1813,0.0,0.0,0.0,0.0,0.0,0.0,0.0,0.0,0.0,0.0,0.0,-8.5477,-8.4506,-8.4218,-8.411,-8.411,-8.411,-8.411,-8.411,-8.411,-8.411,-8.411,-8.411,-8.411,-8.411,-8.411,-8.411,-8.411,-8.411,-8.411,-8.411,-8.411,-8.411,-8.411,-8.411,-8.4492,-8.5634,-8.6807,-8.8443,-9.082,-9.1198,-9.0714,-8.9465,-8.911,-8.8623,-8.729,-8.703,-8.703,-8.703,-8.703,-8.703,-8.703,-8.703,-8.703,-8.703,-8.703,-8.703,-8.703,-8.703,-8.703,-6.6999,-6.703,-6.7548,-6.8238,-6.8948,-6.9472,-7.0104,-7.0789,-7.0789,-7.0789,-7.0789,-7.0789,-7.0789,-7.0789,-7.0789,-7.0789,-7.0789,-7.0789,-7.0789,-7.0877,-7.2164,-7.2806,-7.2925,-7.605,-7.7466,-7.7489,-7.8777,-7.9396,-7.935,-7.885,-7.8574,-7.8574,-7.8574,-7.8574,-7.8574,-7.8574,-7.8574,-7.8574,-7.8574,-7.8574,-7.8574,-7.8574,-7.8574,-7.8574,-7.8574,-7.8574,-7.8574,-7.8574,-7.8574,-7.8574,-7.8574,-7.8686,-7.884,-7.884,-8.0015,0.0,-8.2776,0.0,0.0,0.0,0.0,0.0,0.0,0.0,0.0,-8.6195,-8.5745,-8.4982,-8.4411,-8.411,-8.411,-8.411,-8.411,-8.411,-8.411,-8.411,-8.411,-8.411,-8.411,-8.411,-8.411,-8.411,-8.411,-8.411,-8.411,-8.411,-8.411,-8.411,-8.411,-8.4264,-8.4783,-8.5696,-8.6966,-8.8759,-9.0682,-9.1192,-9.0774,-8.9552,-8.9174,-8.8623,-8.7386,-8.7088,-8.703,-8.703,-8.703,-8.703,-8.703,-8.703,-8.703,-8.703,-8.703,-8.703,-8.703,-8.703,-8.703,-6.6999,-6.6999,-6.7121,-6.7819,-6.8889,-6.9006,-6.9703,-7.0789,-7.0789,-7.0789,-7.0789,-7.0789,-7.0789,-7.0789,-7.0789,-7.0789,-7.0789,-7.0789,-7.0789,-7.0789,-7.1108,-7.1227,-7.1434,-7.4475,-7.5845,-7.5768,-7.8184,-7.9303,-7.9083,-7.8777,-7.8574,-7.8574,-7.8574,-7.8574,-7.8574,0.0,0.0,0.0,-7.8574,-7.8574,-7.8574,-7.8574,-7.8574,-7.8574,-7.8574,0.0,-7.8574,-7.8574,-7.8574,-7.8574,-7.8574,0.0,0.0,0.0,0.0,0.0,0.0,0.0,0.0,0.0,0.0,0.0,-8.6921,-8.6801,-8.632,-8.5564,-8.5172,-8.5314,-8.461,-8.411,-8.411,-8.411,-8.411,-8.411,-8.411,-8.411,-8.411,-8.411,-8.411,-8.411,-8.411,-8.411,-8.411,-8.411,-8.411,-8.411,-8.411,-8.411,-8.411,-8.4808,-8.551,-8.5919,-8.7661,-8.9496,-9.0965,-9.121,-9.0933,-9.0049,-8.9426,-8.8791,-8.7933,-8.7319,-8.702,-8.703,-8.703,-8.703,-8.703,-8.703,-8.703,-8.703,-8.703,-8.703,-8.703,-8.703,-8.703,-6.6999,-6.706,-6.7335,-6.7999,0.0,-6.924,-6.9875,-7.0789,-7.0789,-7.0789,-7.0789,-7.0789,-7.0789,-7.0789,-7.1136,-7.1294,-7.1294,-7.161,-7.1768,-7.1768,-7.1768,-7.18,-7.1857,-7.469,-7.6063,-7.6262,-7.834,-7.9487,-7.9564,-7.8924,-7.8574,-7.8574,-7.8574,-7.8574,-7.8574,-7.8574,-7.8574,-7.8574,-7.8574,-7.8574,-7.8574,-7.8574,-7.8574,-7.8574,-7.8574,0.0,0.0,0.0,0.0,0.0,0.0,0.0,0.0,-7.9675,-8.0617,-8.2665,-8.2776,-8.3732,-8.5698,-8.5915,-8.624,-8.6923,-8.7031,-8.6801,-8.6324,-8.5608,-8.5134,-8.5134,-8.4516,-8.411,-8.411,-8.411,-8.411,-8.411,-8.411,-8.411,-8.411,-8.411,-8.411,-8.411,-8.411,-8.411,-8.411,-8.411,-8.411,-8.411,-8.411,-8.411,-8.4136,-8.4593,-8.526,-8.6525,-8.8721,-9.0453,-9.1059,-9.121,-9.0954,-9.0211,-8.9552,-8.8855,-8.813,-8.7442,-8.703,-8.703,-8.703,-8.703,-8.703,-8.703,-8.7137,-8.7525,-8.7642,-8.7797,-8.8069,-8.7564,-8.703,-6.6999,-6.706,-6.7517,-6.8238,-6.8948,-6.9472,-7.0047,-7.0789,-7.0789,0.0,0.0,-7.0789,-7.0852,-7.101,-7.1579,-7.1863,-7.2053,-7.2559,-7.278,-7.278,-7.278,-7.2869,-7.3156,-7.5232,-7.665,-7.7522,-7.9126,-7.9969,-8.0115,-7.9247,-7.875,-7.8609,-7.8574,-7.8574,-7.8574,-7.8574,-7.8574,-7.8574,-7.8574,-7.8574,-7.8574,-7.8574,-7.8574,-7.8574,-7.8574,-7.8574,-7.8574,-7.8574,-7.8574,-7.8574,-7.8574,-7.8574,-7.8574,-7.907,-8.0354,-8.2591,-8.3292,-8.4536,-8.6852,-8.7031,-8.7031,-8.7031,-8.7031,-8.6804,-8.6443,-8.5953,-8.5477,-8.4953,-8.4478,-8.4207,-8.411,-8.411,-8.411,-8.411,-8.411,-8.411,-8.411,-8.411,-8.411,-8.411,-8.411,-8.411,-8.411,-8.411,-8.411,-8.411,-8.411,-8.411,-8.4174,-8.4656,-8.571,-8.7661,-8.9707,-9.1154,-9.121,-9.121,-9.0954,-9.0471,-8.9653,-8.888,-8.8299,-8.7547,-8.7049,-8.703,-8.7098,-8.7254,-8.7254,-8.7448,-8.7681,-8.838,-8.8536,-8.8691,-8.9196,-8.8419,-8.7564,-6.6999,-6.6969,-6.7121,-6.7819,-6.8889,-6.9006,-6.9703,-7.0789,-7.0789,-7.0789,-7.0789,-7.0789,-7.1136,-7.1674,-7.1768,-7.2116,-7.2653,-7.2748,-7.278,-7.278,-7.278,-7.327,-7.4028,-7.5016,-7.6384,-7.8206,-8.0593,-8.111,-7.9956,-7.969,-7.9276,-7.8644,-7.8574,-7.8574,-7.8574,-7.8574,-7.8574,-7.8574,-7.8574,-7.8574,-7.8574,-7.8574,-7.8574,-7.8574,-7.8574,-7.8574,-7.8574,-7.8574,-7.8574,-7.8574,-7.8574,-7.8574,-7.8651,-8.0803,-8.2407,-8.2886,-8.5082,-8.6601,-8.696,-8.7031,-8.7031,-8.7031,-8.7031,-8.6958,-8.6917,-8.6447,-8.5953,-8.5446,-8.4944,-8.4553,-8.417,-8.411,-8.411,-8.411,-8.411,-8.411,-8.411,-8.411,-8.411,-8.411,-8.411,-8.411,-8.411,-8.411,-8.411,-8.411,-8.411,-8.411,-8.4365,-8.5834,-8.7541,-8.8935,-9.0262,-9.1098,-9.121,-9.121,-9.1073,-9.1091,-8.9902,-8.9047,-8.8791,-8.7852,-8.7176,-8.703,-8.7642,-8.8069,-8.8108,-8.8691,-8.9041,-8.9313,-8.9351,-8.9429,-8.9662,-8.9351,-8.9118,-6.6999,-6.706,-6.7335,-6.8059,-6.8948,-6.9646,-7.0249,-7.0789,-7.0789,-7.101,-7.1326,-7.1326,-7.1705,-7.2369,-7.278,-7.3096,-7.3412,-7.3759,-7.3917,-7.3917,-7.3917,-7.4151,-7.4672,-7.5917,-7.7304,-7.8757,-8.0459,-8.1245,-8.0989,-8.0224,-7.9627,-7.9241,-7.882,-7.8574,-7.8574,-7.8574,-7.8574,-7.8574,-7.8574,-7.8574,-7.8574,-7.8574,-7.8574,-7.8574,-7.8574,-7.8574,-7.8574,-7.8574,-7.8574,-7.8574,-7.8574,-7.8574,-7.8651,-7.9828,-8.1216,-8.2701,-8.3989,-8.5373,-8.6923,-8.7031,-8.7031,-8.7031,-8.7031,-8.7031,-8.7031,-8.6287,-8.5751,-8.549,-8.4852,-8.4325,-8.4148,-8.411,-8.411,-8.411,-8.411,-8.411,-8.411,-8.411,-8.411,-8.411,-8.411,-8.411,-8.411,-8.411,-8.411,-8.411,-8.411,-8.411,-8.4174,-8.6095,-8.7781,-8.8468,-8.9995,-9.1059,-9.121,-9.121,-9.1052,-9.0675,-8.9778,-8.9021,-8.8636,-8.7924,-8.7777,-8.7759,-8.838,-8.8885,-8.8963,-8.9235,-8.9623,-9.0128,-9.0206,-9.0323,-9.0711,-9.0905,-9.0595,-6.6999,-6.706,-6.7517,-6.8148,-6.9006,-7.0249,-7.0789,-7.0789,-7.0947,-7.1389,-7.1958,-7.1895,-7.2274,-7.3064,-7.3665,-7.3981,-7.4202,-7.4644,-7.4897,-7.4897,-7.4897,-7.4984,-7.5364,-7.686,-7.8266,-7.9414,-8.059,-8.1513,-8.1901,-8.0856,-8.0119,-7.9768,-7.8995,-7.8574,-7.8574,-7.8574,-7.8574,-7.8574,-7.8574,-7.8574,-7.8574,-7.8574,-7.8574,-7.8574,-7.8574,-7.8574,-7.8574,-7.8574,-7.8574,-7.8574,-7.8574,-7.8574,-7.8574,-7.8916,-8.0202,-8.2481,-8.3108,-8.4354,-8.6673,-8.7031,-8.7031,-8.7031,-8.7031,-8.7031,-8.6919,-8.6204,-8.5652,-8.5446,-8.4861,-8.4373,-8.4159,-8.411,-8.411,-8.411,-8.411,-8.411,-8.411,-8.411,-8.411,-8.411,-8.411,-8.411,-8.411,-8.411,-8.411,-8.411,-8.411,-8.411,-8.4365,-8.6119,-8.7443,-8.8036,-8.965,-9.1059,-9.121,-9.121,-9.0894,-9.0211,-8.9745,-8.9203,-8.8672,-8.849,-8.8564,-8.8652,-8.9235,-8.974,-8.9779,-9.0012,-9.04,-9.0983,-9.11,-9.1294,-9.1799,-9.1954,-9.1721,-6.6999,-6.6999,-6.7121,-6.7819,-6.9006,-7.0249,-7.0789,-7.0884,-7.1421,-7.2085,-7.2653,-7.2085,-7.259,-7.3696,-7.3886,-7.4233,-7.4739,-7.4866,-7.4897,-7.4897,-7.4897,-7.5337,-7.6021,-7.7148,-7.862,-8.0254,-8.1956,-8.2496,-8.2155,-8.1909,-8.1137,-7.9838,-7.8995,-7.8574,-7.8574,-7.8574,-7.8574,-7.8574,-7.8574,-7.8574,-7.8574,-7.8574,-7.8574,-7.8574,-7.8574,-7.8574,-7.8574,-7.8574,-7.8574,-7.8574,-7.8574,-7.8574,-7.8728,-7.9751,-8.1141,-8.2665,-8.3989,-8.5408,-8.6815,-8.7031,-8.7031,-8.7031,-8.7031,-8.7031,-8.6995,-8.6524,-8.6032,-8.5615,-8.5439,-8.4944,-8.4218,-8.411,-8.411,-8.411,-8.411,-8.411,-8.411,-8.411,-8.411,-8.411,-8.411,-8.411,-8.411,-8.411,-8.411,-8.411,-8.411,-8.411,-8.4301,-8.6095,-8.7563,-8.7976,-8.965,-9.1003,-9.121,-9.121,-9.0873,-9.0288,-9.0185,-8.9836,-8.9356,-8.9238,-8.939,-8.9507,-9.0089,-9.0633,-9.0866,-9.1255,-9.176,-9.1721,-9.1838,-9.1993,-9.211,-9.211,-9.1877,-6.6999,-6.6999,-6.6999,-6.7759,-6.8917,-6.9818,-7.0639,-7.1421,-7.1705,-7.2432,-7.3349,-7.3159,-7.357,-7.4486,-7.4486,-7.4644,-7.4897,-7.4897,-7.4897,-7.4897,-7.4897,-7.5102,-7.5565,-7.6974,-7.8345,-7.9685,-8.1461,-8.2496,-8.2629,-8.2296,-8.1313,-7.9908,-7.9452,-7.9066,-7.8609,-7.8574,-7.8574,-7.8574,-7.8574,-7.8574,-7.8574,-7.8574,-7.8574,-7.8574,-7.8574,-7.8574,-7.8574,-7.8574,-7.8574,-7.8574,-7.8574,-7.8574,-7.8574,-7.9182,-8.0091,-8.1552,-8.3696,-8.5517,-8.6923,-8.7031,-8.7031,-8.7031,-8.7031,-8.7031,-8.6995,-8.6838,-8.6487,-8.6032,-8.5439,-8.4806,-8.4218,-8.411,-8.411,-8.411,-8.411,-8.411,-8.411,-8.411,-8.411,-8.411,-8.411,-8.411,-8.411,-8.411,-8.411,-8.411,-8.411,-8.411,-8.4238,-8.6119,-8.7405,-8.7878,-8.965,-9.1003,-9.121,-9.121,-9.0906,-9.0497,-9.0358,-9.0159,-8.9698,-8.997,-9.0245,-9.0284,-9.0944,-9.1449,-9.1566,-9.176,-9.211,-9.211,-9.211,-9.211,-9.211,-9.211,-9.211,-6.6999,-6.706,-6.7365,-6.8059,-6.8948,-6.9761,-7.074,-7.1743,-7.199,-7.278,-7.3854,-7.4075,-7.4455,-7.4834,-7.4897,-7.4897,-7.4897,-7.4897,-7.4897,-7.4897,-7.4897,-7.4897,-7.5102,-7.7013,-7.8398,-7.9327,-8.1222,-8.2498,-8.3059,-8.2471,-8.1523,-8.0505,-8.0014,-7.9487,-7.896,-7.8715,-7.8574,-7.8574,-7.8574,-7.8574,-7.8574,-7.8574,-7.8574,-7.8574,-7.8574,-7.8574,-7.8574,-7.8574,-7.8574,-7.8574,-7.8574,-7.8574,-7.8574,-7.8574,-7.9411,-8.1216,-8.3549,-8.5517,-8.6923,-8.7031,-8.7031,-8.7031,-8.7031,-8.7031,-8.7031,-8.7031,-8.6764,-8.632,-8.5483,-8.4843,-8.4373,-8.417,-8.411,-8.411,-8.411,-8.411,-8.411,-8.411,-8.411,-8.411,-8.411,-8.411,-8.411,-8.411,-8.411,-8.411,-8.411,-8.4301,-8.4719,-8.628,-8.7721,-8.8095,-8.9918,-9.1021,-9.121,-9.121,-9.0956,-9.0672,-9.0516,-9.0611,-9.0075,-9.0623,-9.1138,-9.1216,-9.1799,-9.1993,-9.1915,-9.2032,-9.211,-9.211,-9.211,-9.211,-9.211,-9.211,-9.211,-6.6999,-6.7182,-6.8298,-6.8772,-6.9006,-7.0167,-7.1143,-7.1926,-7.2495,-7.3222,-7.3981,-7.4549,-7.4866,-7.4897,-7.4897,-7.4897,-7.4897,-7.4897,-7.4897,-7.4897,-7.4897,-7.4897,-7.5102,-7.7686,-7.9035,-7.9293,-8.1745,-8.3075,-8.3138,-8.2506,-8.205,-8.1874,-8.061,-7.9838,-7.9592,-7.8995,-7.8609,-7.8574,-7.8574,-7.8574,-7.8574,-7.8574,-7.8574,-7.8574,-7.8574,-7.8574,-7.8574,-7.8574,-7.8574,-7.8574,-7.8574,-7.8574,-7.8574,-7.8651,-7.9904,-8.2407,-8.4062,-8.5517,-8.6744,-8.7031,-8.7031,-8.7031,-8.7031,-8.7031,-8.7031,-8.7031,-8.6801,-8.6324,-8.5782,-8.5224,-8.476,-8.4315,-8.411,-8.411,-8.411,-8.411,-8.411,-8.411,-8.411,-8.411,-8.411,-8.411,-8.411,-8.411,-8.411,-8.411,-8.411,-8.4429,-8.5485,-8.6746,-8.7917,-8.909,-9.0262,-9.121,-9.121,-9.121,-9.094,-9.0827,-9.1008,-9.1347,-9.1327,-9.1371,-9.1721,-9.1993,-9.2032,-9.2071,-9.211,-9.211,-9.211,-9.211,-9.211,-9.211,-9.211,-9.211,-9.211,-6.6999,-6.706,-6.7457,-6.8119,-6.8979,-6.988,-7.1022,-7.2438,-7.3191,-7.3886,-7.4486,-7.4802,-7.4897,-7.4897,-7.4897,-7.4897,-7.4897,-7.4897,-7.4897,-7.4897,-7.4897,-7.4897,-7.5161,-7.7446,-7.8774,-7.9396,-8.1556,-8.2941,-8.3129,-8.2928,-8.2541,-8.2085,-8.1558,-8.0821,-7.9908,-7.9522,-7.9136,-7.8644,-7.8574,-7.8574,-7.8574,-7.8574,-7.8574,-7.8574,-7.8574,-7.8574,-7.8574,-7.8574,-7.8574,-7.8574,-7.8574,-7.8574,-7.8651,-7.9446,-8.0768,-8.2665,-8.4135,-8.5517,-8.6744,-8.7031,-8.7031,-8.7031,-8.7031,-8.7031,-8.7031,-8.6995,-8.6801,-8.6324,-8.5825,-8.5314,-8.4815,-8.4373,-8.411,-8.411,-8.411,-8.411,-8.411,-8.411,-8.411,-8.411,-8.411,-8.411,-8.411,-8.411,-8.411,-8.411,-8.411,-8.4656,-8.5672,-8.6845,-8.8095,-8.9245,-9.0376,-9.121,-9.121,-9.121,-9.1159,-9.1261,-9.1434,-9.1644,-9.1672,-9.1749,-9.2032,-9.2032,-9.211,-9.211,-9.211,-9.211,-9.211,-9.211,-9.211,-9.211,-9.211,-9.211,-9.211,-6.6999,-6.706,-6.7213,-6.7939,-6.8982,-6.9865,-7.1222,-7.2785,-7.3601,-7.4265,-7.4802,-7.4897,-7.4897,-7.4897,-7.4897,-7.4897,-7.4897,-7.4897,-7.4897,-7.4897,-7.4897,-7.5075,-7.5597,-7.7391,-7.8755,-7.9736,-8.1732,-8.2896,-8.3164,-8.3208,-8.2928,-8.2471,-8.2225,-8.1593,-8.061,-8.0084,-7.9487,-7.903,-7.875,-7.8574,-7.8574,-7.8574,-7.8574,-7.8574,-7.8574,-7.8574,-7.8574,-7.8574,-7.8574,-7.8574,-7.8574,-7.8805,-7.9335,-8.0202,-8.1552,-8.3292,-8.4354,-8.5517,-8.6744,-8.7031,-8.7031,-8.7031,-8.7031,-8.7031,-8.7031,-8.7031,-8.6762,-8.6324,-8.5825,-8.5314,-8.4852,-8.4373,-8.411,-8.411,-8.411,-8.411,-8.411,-8.411,-8.411,-8.411,-8.411,-8.411,-8.411,-8.411,-8.411,-8.411,-8.4365,-8.5097,-8.6242,-8.7405,-8.8624,-8.9746,-9.0623,-9.1115,-9.121,-9.121,-9.1308,-9.1406,-9.1484,-9.1747,-9.1971,-9.2077,-9.211,-9.211,-9.211,-9.211,-9.211,-9.211,-9.211,-9.211,-9.211,-9.211,-9.211,-9.211,-9.211,-6.6999,-6.703,-6.7608,-6.8269,-6.9133,-7.0341,-7.1576,-7.288,-7.3665,-7.436,-7.4866,-7.4897,-7.4897,-7.4897,-7.4897,-7.4897,-7.4897,-7.4897,-7.4897,-7.4897,-7.4897,-7.5337,-7.6142,-7.761,-7.912,-8.0505,-8.2326,-8.3164,-8.3208,-8.3208,-8.3138,-8.3033,-8.2471,-8.2085,-8.198,-8.0681,-7.9908,-7.9662,-7.9101,-7.8679,-7.8609,-7.8609,-7.8574,-7.8574,-7.8574,-7.8574,-7.8574,-7.8574,-7.8574,-7.8574,-7.8574,-7.9258,-8.0314,-8.0875,-8.2034,-8.4281,-8.4937,-8.5698,-8.6781,-8.7031,-8.7031,-8.7031,-8.7031,-8.7031,-8.7031,-8.6995,-8.6764,-8.6241,-8.5751,-8.5239,-8.4806,-8.4363,-8.411,-8.411,-8.411,-8.411,-8.411,-8.411,-8.411,-8.411,-8.411,-8.411,-8.411,-8.411,-8.411,-8.4238,-8.4972,-8.6019,-8.7163,-8.8311,-8.9707,-9.0718,-9.1098,-9.1154,-9.121,-9.1189,-9.1368,-9.1499,-9.1571,-9.1682,-9.1971,-9.211,-9.211,-9.211,-9.211,-9.211,-9.211,-9.211,-9.211,-9.211,-9.211,-9.211,-9.211,-9.211,-9.211,-6.6999,-6.6999,-6.7213,-6.8213,-6.9569,-7.0575,-7.1971,-7.3543,-7.4297,-7.4707,-7.4866,-7.4897,-7.4897,-7.4897,-7.4897,-7.4897,-7.4897,-7.4897,-7.4897,-7.4897,-7.4897,-7.5396,-7.637,-7.7665,-7.9532,-8.1638,-8.2726,-8.3208,-8.3208,-8.3208,-8.3208,-8.3138,-8.2963,-8.2577,-8.212,-8.1593,-8.1137,-8.054,-7.9803,-7.9417,-7.9346,-7.8855,-7.8574,-7.8574,-7.8574,-7.8574,-7.8574,-7.8574,-7.8574,-7.8574,-7.8574,-7.9258,-8.0612,-8.2242,-8.3651,-8.4791,-8.5879,-8.6456,-8.6852,-8.7031,-8.7031,-8.7031,-8.7031,-8.7031,-8.7031,-8.7031,-8.6608,-8.5879,-8.5392,-8.4927,-8.4404,-8.4207,-8.411,-8.411,-8.411,-8.411,-8.411,-8.411,-8.411,-8.411,-8.411,-8.411,-8.411,-8.411,-8.411,-8.4275,-8.5135,-8.6341,-8.7443,-8.8759,-8.9842,-9.0908,-9.1059,-9.121,-9.121,-9.1206,-9.1319,-9.1484,-9.1571,-9.1695,-9.1971,-9.211,-9.211,-9.211,-9.211,-9.211,-9.211,-9.211,-9.211,-9.211,-9.211,-9.211,-9.211,-9.211,-9.211,-6.6999,-6.6999,-6.6999,-6.8153,-6.9876,-7.0673,-7.2104,-7.3832,-7.4613,-7.4897,-7.4897,-7.4897,-7.4897,-7.4897,-7.4897,-7.4897,-7.4897,-7.4897,-7.4897,-7.5016,-7.5279,-7.5829,-7.6934,-7.8736,-8.0356,-8.2002,-8.2896,-8.3208,-8.3208,-8.3208,-8.3208,-8.3208,-8.3208,-8.2998,-8.2506,-8.219,-8.1804,-8.1277,-8.0575,-8.0189,-8.0049,-7.9417,-7.903,-7.8995,-7.875,-7.8574,-7.8574,-7.8574,-7.8574,-7.8574,-7.8574,-7.9258,-8.0688,-8.2506,-8.402,-8.501,-8.6096,-8.6995,-8.7031,-8.7031,-8.7031,-8.7031,-8.7031,-8.7031,-8.7031,-8.7031,-8.6565,-8.5671,-8.52,-8.4799,-8.4277,-8.411,-8.411,-8.411,-8.411,-8.411,-8.411,-8.411,-8.411,-8.411,-8.411,-8.411,-8.411,-8.411,-8.426,-8.4602,-8.5674,-8.6814,-8.7987,-8.9281,-9.0282,-9.1003,-9.1115,-9.121,-9.121,-9.1241,-9.1341,-9.1477,-9.1585,-9.176,-9.2005,-9.2088,-9.211,-9.211,-9.211,-9.211,-9.211,-9.211,-9.211,-9.211,-9.211,-9.211,-9.211,-9.211,-9.211,-6.6999,-6.6999,-6.7029,-6.8243,-6.9999,-7.0796,-7.2228,-7.3895,-7.4613,-7.4897,-7.4897,-7.4897,-7.4897,-7.4897,-7.4897,-7.4897,-7.4897,-7.4897,-7.4897,-7.5161,-7.5829,-7.6798,-7.7905,-8.014,-8.1434,-8.1861,-8.2726,-8.3164,-8.3208,-8.3208,-8.3208,-8.3208,-8.3208,-8.3208,-8.2998,-8.2471,-8.219,-8.205,-8.1383,-8.0997,-8.0926,-8.0259,-7.9838,-7.9838,-7.9241,-7.8855,-7.8785,-7.8644,-7.8574,-7.8574,-7.8574,-7.9299,-8.0768,-8.2183,-8.3693,-8.5082,-8.6348,-8.6852,-8.7031,-8.7031,-8.7031,-8.7031,-8.7031,-8.7031,-8.7031,-8.6958,-8.6568,-8.5621,-8.5237,-8.4836,-8.4288,-8.411,-8.411,-8.411,-8.411,-8.411,-8.411,-8.411,-8.411,-8.411,-8.411,-8.411,-8.4148,-8.4185,-8.4598,-8.5256,-8.6539,-8.7832,-8.87,-8.9761,-9.0834,-9.121,-9.121,-9.121,-9.121,-9.1227,-9.1308,-9.1469,-9.1614,-9.176,-9.1994,-9.2088,-9.211,-9.211,-9.211,-9.211,-9.211,-9.211,-9.211,-9.211,-9.211,-9.211,-9.211,-9.211,-9.211,-6.6999,-6.7029,-6.7508,-6.8879,-7.0705,-7.1413,-7.2789,-7.4522,-7.4802,-7.4897,-7.4897,-7.4897,-7.4897,-7.4897,-7.4897,-7.4897,-7.4897,-7.4897,-7.4897,-7.5161,-7.6516,-7.7687,-7.8816,-8.0622,-8.172,-8.1861,-8.2726,-8.3208,-8.3208,-8.3208,-8.3208,-8.3208,-8.3208,-8.3208,-8.3138,-8.2963,-8.2928,-8.2822,-8.2155,-8.1769,-8.1664,-8.1032,-8.0646,-8.061,-8.0365,-7.9978,-7.9487,-7.889,-7.8574,-7.8574,-7.8574,-7.9751,-8.1848,-8.3135,-8.4423,-8.5988,-8.6673,-8.7031,-8.7031,-8.7031,-8.7031,-8.7031,-8.7031,-8.7031,-8.7031,-8.7031,-8.6524,-8.5714,-8.5237,-8.4836,-8.425,-8.411,-8.411,-8.411,-8.411,-8.411,-8.411,-8.411,-8.411,-8.411,-8.411,-8.411,-8.4298,-8.4598,-8.5086,-8.567,-8.7069,-8.8591,-8.9256,-9.0147,-9.121,-9.121,-9.121,-9.121,-9.121,-9.121,-9.1292,-9.1499,-9.1641,-9.1747,-9.1971,-9.2099,-9.211,-9.211,-9.211,-9.211,-9.211,-9.211,-9.211,-9.211,-9.211,-9.211,-9.211,-9.211,-9.211,-6.6999,-6.7029,-6.7687,-6.9152,-7.0952,-7.1659,-7.3069,-7.4624,-7.4897,-7.4897,-7.4897,-7.4897,-7.4897,-7.4897,-7.4897,-7.4897,-7.4897,-7.4897,-7.4897,-7.5161,-7.6742,-7.8337,-7.9752,-8.1194,-8.1849,-8.213,-8.2816,-8.3164,-8.3208,-8.3208,-8.3208,-8.3208,-8.3208,-8.3208,-8.3208,-8.3208,-8.3208,-8.3103,-8.2752,-8.2541,-8.2506,-8.1804,-8.1453,-8.1313,-8.1137,-8.0681,-8.0224,-7.9803,-7.9311,-7.8785,-7.8686,-7.9675,-8.1699,-8.3025,-8.4387,-8.5987,-8.6636,-8.7031,-8.7031,-8.7031,-8.7031,-8.7031,-8.7031,-8.7031,-8.7031,-8.6995,-8.6568,-8.5664,-8.5274,-8.4746,-8.425,-8.411,-8.411,-8.411,-8.411,-8.411,-8.411,-8.411,-8.411,-8.411,-8.411,-8.4298,-8.4636,-8.5124,-8.565,-8.6448,-8.7785,-8.8775,-8.9495,-9.0532,-9.121,-9.121,-9.121,-9.121,-9.1206,-9.1224,-9.1341,-9.1528,-9.1786,-9.1861,-9.196,-9.211,-9.211,-9.211,-9.211,-9.211,-9.211,-9.211,-9.211,-9.211,-9.211,-9.211,-9.211,-9.211,-9.211,-6.6999,-6.7059,-6.7777,-6.9151,-7.0861,-7.1751,-7.3101,-7.4564,-7.4897,-7.4897,-7.4897,-7.4897,-7.4897,-7.4897,-7.4897,-7.4897,-7.4897,-7.4897,-7.5161,-7.5745,-7.7023,-7.8657,-8.0675,-8.1373,-8.1943,-8.2407,-8.2986,-8.3164,-8.3208,-8.3208,-8.3208,-8.3208,-8.3208,-8.3208,-8.3208,-8.3208,-8.3208,-8.3208,-8.3138,-8.3068,-8.2998,-8.2506,-8.2225,-8.2085,-8.1488,-8.1172,-8.1032,-8.0786,-8.0259,-7.8925,-7.8904,-7.9893,-8.1137,-8.2332,-8.3806,-8.5191,-8.6456,-8.7031,-8.7031,-8.7031,-8.7031,-8.7031,-8.7031,-8.7031,-8.6995,-8.6917,-8.6484,-8.5578,-8.5193,-8.4692,-8.424,-8.411,-8.411,-8.411,-8.411,-8.411,-8.411,-8.411,-8.411,-8.4148,-8.4148,-8.4749,-8.5237,-8.5725,-8.61,-8.7083,-8.8355,-8.9254,-8.9888,-9.0627,-9.1082,-9.121,-9.121,-9.121,-9.1224,-9.1275,-9.14,-9.1596,-9.1861,-9.2017,-9.2017,-9.211,-9.211,-9.211,-9.211,-9.211,-9.211,-9.211,-9.211,-9.211,-9.211,-9.211,-9.211,-9.211,-9.211,-6.6999,-6.7089,-6.8286,-6.9356,-7.0372,-7.1998,-7.32,-7.4147,-7.4719,-7.4897,-7.4897,-7.4897,-7.4897,-7.4897,-7.4897,-7.4897,-7.4897,-7.4956,-7.5571,-7.7055,-7.7301,-7.8869,-8.0724,-8.1469,-8.199,-8.2498,-8.2986,-8.3208,-8.3208,-8.3208,-8.3208,-8.3208,-8.3208,-8.3208,-8.3208,-8.3208,-8.3208,-8.3208,-8.3208,-8.3208,-8.3208,-8.3068,-8.2892,-8.2822,-8.2225,-8.1874,-8.1699,-8.1242,-8.0751,-8.0633,-8.0912,-8.1591,-8.2398,-8.3585,-8.4973,-8.6096,-8.6673,-8.7031,-8.7031,-8.7031,-8.7031,-8.7031,-8.7031,-8.7031,-8.6958,-8.6645,-8.62,-8.5571,-8.5105,-8.4648,-8.4181,-8.411,-8.411,-8.411,-8.411,-8.411,-8.411,-8.411,-8.411,-8.426,-8.4673,-8.5162,-8.55,-8.6664,-8.7254,-8.7899,-8.8721,-8.9733,-9.03,-9.078,-9.1028,-9.121,-9.121,-9.121,-9.1224,-9.1325,-9.1492,-9.1652,-9.1936,-9.211,-9.211,-9.211,-9.211,-9.211,-9.211,-9.211,-9.211,-9.211,-9.211,-9.211,-9.211,-9.211,-9.211,-9.211,-9.211,-6.7148,-6.7567,-6.8555,-6.9532,-7.0582,-7.2181,-7.3293,-7.3966,-7.4627,-7.4897,-7.4897,-7.4897,-7.4897,-7.4897,-7.4897,-7.4897,-7.4897,-7.4956,-7.5861,-7.719,-7.7719,-7.8869,-8.0724,-8.1469,-8.199,-8.2488,-8.2986,-8.3164,-8.3208,-8.3208,-8.3208,-8.3208,-8.3208,-8.3208,-8.3208,-8.3208,-8.3208,-8.3208,-8.3208,-8.3208,-8.3208,-8.3208,-8.3208,-8.3173,-8.2822,-8.2612,-8.2541,-8.2261,-8.1977,-8.215,-8.2837,-8.332,-8.3462,-8.4389,-8.5554,-8.6709,-8.7031,-8.7031,-8.7031,-8.7031,-8.7031,-8.7031,-8.7031,-8.7031,-8.6917,-8.6565,-8.6074,-8.5571,-8.5081,-8.461,-8.417,-8.411,-8.411,-8.411,-8.411,-8.4223,-8.4486,-8.4335,-8.4335,-8.4673,-8.5124,-8.6052,-8.6841,-8.7527,-8.794,-8.8371,-8.9099,-9.0037,-9.0253,-9.0663,-9.1028,-9.121,-9.121,-9.121,-9.1224,-9.1319,-9.1513,-9.1734,-9.196,-9.2088,-9.211,-9.211,-9.211,-9.211,-9.211,-9.211,-9.211,-9.211,-9.211,-9.211,-9.211,-9.211,-9.211,-9.211,-9.211,-6.7358,-6.8078,-6.8704,-6.9649,-7.0912,-7.2241,-7.3231,-7.3783,-7.4599,-7.4897,-7.4897,-7.4897,-7.4897,-7.4897,-7.4897,-7.4897,-7.4956,-7.522,-7.6174,-7.7412,-7.785,-7.9131,-8.0724,-8.1469,-8.199,-8.2533,-8.2986,-8.3164,-8.3208,-8.3208,-8.3208,-8.3208,-8.3208,-8.3208,-8.3208,-8.3208,-8.3208,-8.3208,-8.3208,-8.3208,-8.3208,-8.3208,-8.3208,-8.3173,-8.3138,-8.3068,-8.3068,-8.3042,-8.3128,-8.3241,-8.4434,-8.4679,-8.4665,-8.4935,-8.5626,-8.696,-8.7031,-8.7031,-8.7031,-8.7031,-8.7031,-8.7031,-8.7031,-8.7031,-8.6917,-8.6447,-8.5953,-8.5483,-8.5027,-8.4506,-8.4159,-8.411,-8.4185,-8.4298,-8.4298,-8.4636,-8.5124,-8.4861,-8.5086,-8.5537,-8.6025,-8.6776,-8.7555,-8.8231,-8.8541,-8.8904,-8.9589,-9.0136,-9.0291,-9.0623,-9.1028,-9.121,-9.121,-9.121,-9.1245,-9.1384,-9.1571,-9.1747,-9.196,-9.2077,-9.211,-9.211,-9.211,-9.211,-9.211,-9.211,-9.211,-9.211,-9.211,-9.211,-9.211,-9.211,-9.211,-9.211,-9.211,-6.7358,-6.8016,-6.8704,-6.9426,-7.0404,-7.2147,-7.2984,-7.3231,-7.4388,-7.4897,-7.4897,-7.4897,-7.4897,-7.4897,-7.4897,-7.4897,-7.5102,-7.5597,-7.6516,-7.7687,-7.8283,-7.9528,-8.0774,-8.1469,-8.199,-8.2498,-8.2941,-8.3208,-8.3208,-8.3208,-8.3208,-8.3208,-8.3208,-8.3208,-8.3208,-8.3208,-8.3208,-8.3208,-8.3208,-8.3208,-8.3208,-8.3208,-8.3208,-8.3208,-8.3208,-8.3208,-8.3208,-8.3253,-8.3445,-8.3987,-8.468,-8.5273,-8.5697,-8.6208,-8.6638,-8.6923,-8.7031,-8.7031,-8.7031,-8.7031,-8.7031,-8.7031,-8.7031,-8.7031,-8.6838,-8.6278,-8.5881,-8.5522,-8.49,-8.4283,-8.4148,-8.4335,-8.4523,-8.4861,-8.5162,-8.5424,-8.6025,-8.6175,-8.6138,-8.6551,-8.7039,-8.7415,-8.8053,-8.8569,-8.8766,-8.906,-8.9627,-9.0022,-9.0181,-9.0602,-9.11,-9.121,-9.121,-9.121,-9.121,-9.1415,-9.1614,-9.1734,-9.1924,-9.2077,-9.211,-9.211,-9.211,-9.211,-9.211,-9.211,-9.211,-9.211,-9.211,-9.211,-9.211,-9.211,-9.211,-9.211,-9.211,-6.7597,-6.8525,-6.8884,-6.9572,-7.0667,-7.2237,-7.2922,-7.3108,-7.4268,-7.4897,-7.4897,-7.4897,-7.4897,-7.4897,-7.4897,-7.5102,-7.5597,-7.5945,-7.7023,-7.8122,-7.8763,-7.9683,-8.0921,-8.1469,-8.199,-8.2453,-8.2941,-8.3208,-8.3208,-8.3208,-8.3208,-8.3208,-8.3208,-8.3208,-8.3208,-8.3208,-8.3208,-8.3208,-8.3208,-8.3208,-8.3208,-8.3208,-8.3208,-8.3208,-8.3208,-8.3208,-8.3253,-8.3646,-8.4039,-8.463,-8.5267,-8.5915,-8.6429,-8.6786,-8.7031,-8.7031,-8.7031,-8.7031,-8.7031,-8.7031,-8.7031,-8.7031,-8.7031,-8.7031,-8.6909,-8.6528,-8.6095,-8.5889,-8.5798,-8.5349,-8.5424,-8.5274,-8.5537,-8.58,-8.595,-8.6326,-8.6926,-8.7152,-8.7339,-8.749,-8.7602,-8.794,-8.8391,-8.8766,-8.8917,-8.928,-8.969,-8.9906,-9.0068,-9.0623,-9.121,-9.121,-9.121,-9.1224,-9.1258,-9.15,-9.168,-9.176,-9.1861,-9.2028,-9.211,-9.211,-9.211,-9.211,-9.211,-9.211,-9.211,-9.211,-9.211,-9.211,-9.211,-9.211,-9.211,-9.211,-9.211,-6.7777,-6.9004,-6.9004,-6.9752,-7.0993,-7.2359,-7.2922,-7.317,-7.4328,-7.4897,-7.4897,-7.4897,-7.4897,-7.4897,-7.5016,-7.5337,-7.6174,-7.6313,-7.7467,-7.8604,-7.9165,-7.9938,-8.0936,-8.1517,-8.2036,-8.2716,-8.2986,-8.3208,-8.3208,-8.3208,-8.3208,-8.3208,-8.3208,-8.3208,-8.3208,-8.3208,-8.3208,-8.3208,-8.3208,-8.3208,-8.3208,-8.3208,-8.3208,-8.3208,-8.3208,-8.3208,-8.3253,-8.3819,-8.442,-8.5032,-8.5689,-8.6356,-8.6856,-8.7031,-8.7031,-8.7031,-8.7031,-8.7031,-8.7031,-8.7031,-8.7031,-8.7031,-8.7031,-8.7066,-8.7117,-8.6942,-8.6743,-8.6564,-8.6438,-8.6326,-8.6251,-8.6401,-8.6551,-8.6739,-8.6814,-8.7039,-8.7715,-8.809,-8.8241,-8.8316,-8.8241,-8.8353,-8.8729,-8.8841,-8.8992,-8.9227,-8.9616,-8.9953,-9.0181,-9.078,-9.1192,-9.121,-9.1189,-9.1275,-9.1374,-9.1608,-9.1757,-9.185,-9.1948,-9.2088,-9.211,-9.211,-9.211,-9.211,-9.211,-9.211,-9.211,-9.211,-9.211,-9.211,-9.211,-9.211,-9.211,-9.211,-9.211,-6.7777,-6.9004,-6.9004,-6.9752,-7.0993,-7.2359,-7.2922,-7.3046,-7.4328,-7.4897,-7.4897,-7.4897,-7.4897,-7.4897,-7.4956,-7.5423,-7.6231,-7.7102,-7.8014,-7.906,-7.9632,-8.0492,-8.1434,-8.1625,-8.2269,-8.2861,-8.312,-8.3208,-8.3208,-8.3208,-8.3208,-8.3208,-8.3208,-8.3208,-8.3208,-8.3208,-8.3208,-8.3208,-8.3208,-8.3208,-8.3208,-8.3208,-8.3208,-8.3208,-8.3208,-8.3253,-8.3385,-8.3954,-8.4585,-8.515,-8.5802,-8.6392,-8.6856,-8.7031,-8.7031,-8.7031,-8.7031,-8.7031,-8.7031,-8.7031,-8.7031,-8.7031,-8.7031,-8.7166,-8.7313,-8.7378,-8.7142,-8.6534,-8.6588,-8.6739,-8.6814,-8.6664,-8.6964,-8.7339,-8.764,-8.8015,-8.8579,-8.8541,-8.8766,-8.8804,-8.8616,-8.8691,-8.8954,-8.8954,-8.9019,-8.928,-8.9553,-8.9882,-9.0269,-9.0839,-9.1192,-9.121,-9.1206,-9.1275,-9.1415,-9.1644,-9.1798,-9.1888,-9.2022,-9.211,-9.211,-9.211,-9.211,-9.211,-9.211,-9.211,-9.211,-9.211,-9.211,-9.211,-9.211,-9.211,-9.211,-9.211,-9.211,-6.8106,-6.9034,-6.9393,-7.0081,-7.1053,-7.2359,-7.2922,-7.317,-7.4328,-7.4897,-7.4897,-7.4897,-7.4897,-7.4956,-7.5337,-7.6174,-7.7023,-7.785,-7.8797,-7.9425,-8.0074,-8.0774,-8.1482,-8.1767,-8.2234,-8.2951,-8.3208,-8.3208,-8.3208,-8.3208,-8.3208,-8.3208,-8.3208,-8.3208,-8.3208,-8.3208,-8.3208,-8.3208,-8.3208,-8.3208,-8.3208,-8.3208,-8.3208,-8.3208,-8.3208,-8.3385,-8.3826,-8.4379,-8.5028,-8.565,-8.6283,-8.6715,-8.6925,-8.7031,-8.7031,-8.7031,-8.7031,-8.7031,-8.7031,-8.7031,-8.7031,-8.7031,-8.7029,-8.7234,-8.7651,-8.789,-8.8005,-8.795,-8.794,-8.7865,-8.7828,-8.7903,-8.809,-8.8353,-8.8353,-8.8541,-8.8841,-8.8917,-8.8954,-8.8992,-8.8992,-8.8992,-8.8992,-8.8992,-8.9019,-8.9173,-8.9553,-8.9999,-9.0334,-9.08,-9.1064,-9.121,-9.1224,-9.1275,-9.1446,-9.1624,-9.1812,-9.1936,-9.2044,-9.211,-9.211,-9.211,-9.211,-9.211,-9.211,-9.211,-9.211,-9.211,-9.211,-9.211,-9.211,-9.211,-9.211,-9.211,-9.211,-6.8525,-6.9064,-6.9692,-7.035,-7.1018,-7.2359,-7.2922,-7.3046,-7.4328,-7.4897,-7.4897,-7.4897,-7.4897,-7.5016,-7.5571,-7.6289,-7.761,-7.8283,-7.9217,-7.987,-8.0326,-8.0823,-8.1421,-8.1767,-8.2222,-8.3208,-8.3208,-8.3208,-8.3208,-8.3208,-8.3208,-8.3208,-8.3208,-8.3208,-8.3208,-8.3208,-8.3208,-8.3208,-8.3208,-8.3208,-8.3208,-8.3208,-8.3208,-8.3208,-8.3253,-8.3481,-8.4165,-8.4752,-8.5384,-8.5989,-8.6608,-8.6925,-8.7031,-8.7031,-8.7031,-8.7031,-8.7031,-8.7031,-8.7031,-8.7031,-8.7031,-8.7029,-8.7268,-8.7563,-8.8041,-8.8406,-8.8671,-8.8804,-8.8804,-8.8841,-8.8954,-8.8917,-8.8841,-8.8804,-8.8879,-8.8954,-8.8992,-8.8992,-8.8992,-8.8992,-8.8992,-8.8992,-8.8992,-8.8992,-8.9047,-8.9129,-8.9503,-9.0068,-9.052,-9.0877,-9.1028,-9.121,-9.1206,-9.1308,-9.1492,-9.1641,-9.1824,-9.1971,-9.2077,-9.211,-9.211,-9.211,-9.211,-9.211,-9.211,-9.211,-9.211,-9.211,-9.211,-9.211,-9.211,-9.211,-9.211,-9.211,-9.211,-6.8944,-6.9064,-6.9722,-7.035,-7.0984,-7.2359,-7.2859,-7.3046,-7.4268,-7.4838,-7.4897,-7.4897,-7.4897,-7.5075,-7.5454,-7.6289,-7.7665,-7.7665,-7.885,-7.9819,-8.0276,-8.0789,-8.1386,-8.1814,-8.2222,-8.3075,-8.3208,-8.3208,-8.3208,-8.3208,-8.3208,-8.3208,-8.3208,-8.3208,-8.3208,-8.3208,-8.3208,-8.3208,-8.3208,-8.3208,-8.3208,-8.3208,-8.3208,-8.3208,-8.3253,-8.3481,-8.4207,-8.4872,-8.5538,-8.621,-8.6715,-8.696,-8.7031,-8.7031,-8.7031,-8.7031,-8.7031,-8.7031,-8.7031,-8.7031,-8.6995,-8.7166,-8.7497,-8.7947,-8.8346,-8.8766,-8.8964,-8.8992,-8.8992,-8.8992,-8.8992,-8.8992,-8.8992,-8.8992,-8.8992,-8.8992,-8.8992,-8.8992,-8.8992,-8.8992,-8.8992,-8.8992,-8.8992,-8.8992,-8.8992,-8.9075,-8.9654,-9.0181,-9.0703,-9.1082,-9.11,-9.121,-9.1227,-9.1341,-9.1552,-9.1721,-9.1837,-9.1971,-9.2088,-9.211,-9.211,-9.211,-9.211,-9.211,-9.211,-9.211,-9.211,-9.211,-9.211,-9.211,-9.211,-9.211,-9.211,-9.211,-9.211,-6.9004,-6.9093,-7.0111,-7.0679,-7.0954,-7.1916,-7.2517,-7.2984,-7.3905,-7.4508,-7.4897,-7.4897,-7.522,-7.5655,-7.6403,-7.719,-7.8391,-7.9008,-7.958,-7.9921,-8.0326,-8.0789,-8.1338,-8.1814,-8.2222,-8.2996,-8.3208,-8.3208,-8.3208,-8.3208,-8.3208,-8.3208,-8.3208,-8.3208,-8.3208,-8.3208,-8.3208,-8.3208,-8.3208,-8.3208,-8.3208,-8.3208,-8.3208,-8.3208,-8.3697,-8.4087,-8.4752,-8.5345,-8.5989,-8.6501,-8.6856,-8.6997,-8.7031,-8.7031,-8.7031,-8.7031,-8.7031,-8.7031,-8.6995,-8.6995,-8.7098,-8.7402,-8.7757,-8.8164,-8.8495,-8.8823,-8.8964,-8.8992,-8.8992,-8.8992,-8.8992,-8.8992,-8.8992,-8.8992,-8.8992,-8.8992,-8.8992,-8.8992,-8.8992,-8.8992,-8.8992,-8.8992,-8.8992,-8.8992,-8.8992,-8.9075,-8.969,-9.0312,-9.0858,-9.121,-9.121,-9.1206,-9.1241,-9.1336,-9.1543,-9.1721,-9.1875,-9.1971,-9.211,-9.211,-9.211,-9.211,-9.211,-9.211,-9.211,-9.211,-9.211,-9.211,-9.211,-9.211,-9.211,-9.211,-9.211,-9.211,-9.211,-6.9004,-6.9153,-7.038,-7.0919,-7.0954,-7.1631,-7.2265,-7.2922,-7.36,-7.4268,-7.4897,-7.4956,-7.5396,-7.6231,-7.6798,-7.7796,-7.8657,-7.9373,-7.9819,-8.0107,-8.0276,-8.0789,-8.1386,-8.1814,-8.2222,-8.2951,-8.3208,-8.3208,-8.3208,-8.3208,-8.3208,-8.3208,-8.3208,-8.3208,-8.3208,-8.3208,-8.3208,-8.3208,-8.3208,-8.3208,-8.3208,-8.3208,-8.3208,-8.3297,-8.3783,-8.442,-8.5032,-8.565,-8.6283,-8.6715,-8.6997,-8.6997,-8.7031,-8.7031,-8.7031,-8.7031,-8.7031,-8.7031,-8.6995,-8.7132,-8.7265,-8.7628,-8.7978,-8.8316,-8.8583,-8.8879,-8.8992,-8.8992,-8.8992,-8.8992,-8.8992,-8.8992,-8.8992,-8.8992,-8.8992,-8.8992,-8.8992,-8.8992,-8.8992,-8.8992,-8.8992,-8.8992,-8.9102,-8.9157,-8.9386,-8.94,-8.9763,-9.0377,-9.0934,-9.121,-9.121,-9.1224,-9.1308,-9.1431,-9.1571,-9.1747,-9.19,-9.1994,-9.211,-9.211,-9.211,-9.211,-9.211,-9.211,-9.211,-9.211,-9.211,-9.211,-9.211,-9.211,-9.211,-9.211,-9.211,-9.211,-9.211,-6.9004,-6.9153,-7.038,-7.0919,-7.0954,-7.1567,-7.2265,-7.2984,-7.3661,-7.4328,-7.4897,-7.4897,-7.5396,-7.6117,-7.6573,-7.7577,-7.871,-7.9079,-7.9528,-8.0107,-8.0259,-8.0789,-8.1373,-8.1814,-8.2222,-8.2951,-8.3208,-8.3208,-8.3208,-8.3208,-8.3208,-8.3208,-8.3208,-8.3208,-8.3208,-8.3208,-8.3208,-8.3208,-8.3208,-8.3208,-8.3208,-8.3208,-8.3208,-8.335,-8.3996,-8.463,-8.5111,-8.5915,-8.6501,-8.6891,-8.6997,-8.7031,-8.7031,-8.7031,-8.7031,-8.7031,-8.7031,-8.7031,-8.7029,-8.7298,-8.7628,-8.7916,-8.8195,-8.8562,-8.8851,-8.8992,-8.8992,-8.8992,-8.8992,-8.8992,-8.8992,-8.8992,-8.8992,-8.8992,-8.8992,-8.8992,-8.8992,-8.8992,-8.8992,-8.8992,-8.8992,-8.9019,-8.9157,-8.9307,-8.9678,-8.9873,-9.0022,-9.0419,-9.1028,-9.121,-9.121,-9.1258,-9.1319,-9.1477,-9.16,-9.1786,-9.1936,-9.2066,-9.211,-9.211,-9.211,-9.211,-9.211,-9.211,-9.211,-9.211,-9.211,-9.211,-9.211,-9.211,-9.211,-9.211,-9.211,-9.211,-9.211,-6.9243,-6.9722,-7.056,-7.0919,-7.0919,-7.1148,-7.1853,-7.2984,-7.4026,-7.4719,-7.4838,-7.4897,-7.5396,-7.6117,-7.6967,-7.7796,-7.8816,-7.9632,-8.0074,-8.0158,-8.0209,-8.0838,-8.1386,-8.1814,-8.2269,-8.2951,-8.3208,-8.3208,-8.3208,-8.3208,-8.3208,-8.3208,-8.3208,-8.3208,-8.3208,-8.3208,-8.3208,-8.3208,-8.3208,-8.3208,-8.3208,-8.3208,-8.3208,-8.3262,-8.4213,-8.4872,-8.5228,-8.61,-8.675,-8.696,-8.7031,-8.7031,-8.7031,-8.7031,-8.7031,-8.7031,-8.7031,-8.7132,-8.7335,-8.7628,-8.7852,-8.8072,-8.8346,-8.8679,-8.8936,-8.8992,-8.8992,-8.8992,-8.8992,-8.8992,-8.8992,-8.8992,-8.8992,-8.8992,-8.8992,-8.8992,-8.8992,-8.8992,-8.8992,-8.8992,-8.8992,-8.8992,-8.9075,-8.9359,-8.9703,-9.0045,-9.0203,-9.0582,-9.11,-9.1192,-9.121,-9.1292,-9.1352,-9.1484,-9.1666,-9.1863,-9.196,-9.2077,-9.211,-9.211,-9.211,-9.211,-9.211,-9.211,-9.211,-9.211,-9.211,-9.211,-9.211,-9.211,-9.211,-9.211,-9.211,-9.211,-9.211,-6.9393,-7.0051,-7.0649,-7.0919,-7.0919,-7.0919,-7.1661,-7.2984,-7.4268,-7.4897,-7.4897,-7.4897,-7.5629,-7.6573,-7.7356,-7.837,-7.9321,-7.987,-8.0209,-8.0209,-8.0209,-8.0838,-8.1386,-8.1767,-8.2315,-8.2906,-8.3208,-8.3208,-8.3208,-8.3208,-8.3208,-8.3208,-8.3208,-8.3208,-8.3208,-8.3208,-8.3208,-8.3208,-8.3208,-8.3208,-8.3208,-8.3253,-8.3306,-8.3748,-8.4467,-8.5228,-8.5652,-8.6283,-8.7031,-8.7031,-8.7031,-8.7031,-8.7031,-8.7031,-8.7031,-8.7031,-8.7166,-8.7301,-8.7497,-8.7978,-8.8164,-8.8225,-8.8495,-8.8766,-8.8964,-8.8992,-8.8992,-8.8992,-8.8992,-8.8992,-8.8992,-8.8992,-8.8992,-8.8992,-8.8992,-8.8992,-8.8992,-8.8992,-8.8992,-8.8992,-8.8992,-8.8992,-8.9047,-8.9386,-8.9741,-9.0045,-9.0339,-9.0742,-9.11,-9.1175,-9.121,-9.1275,-9.1384,-9.1513,-9.1682,-9.1912,-9.2005,-9.2099,-9.211,-9.211,-9.211,-9.211,-9.211,-9.211,-9.211,-9.211,-9.211,-9.211,-9.211,-9.211,-9.211,-9.211,-9.211,-9.211,-9.211,-6.9393,-7.0051,-7.0649,-7.0919,-7.0919,-7.1018,-7.1789,-7.3046,-7.4328,-7.4897,-7.4897,-7.4956,-7.5829,-7.719,-7.761,-7.8531,-7.9717,-8.0023,-8.0209,-8.0259,-8.0309,-8.0985,-8.1469,-8.1814,-8.2407,-8.2906,-8.3208,-8.3208,-8.3208,-8.3208,-8.3208,-8.3208,-8.3208,-8.3208,-8.3208,-8.3208,-8.3208,-8.3208,-8.3208,-8.3208,-8.3208,-8.3208,-8.3516,-8.4039,-8.4711,-8.5384,-8.5952,-8.6572,-8.6925,-8.7031,-8.7031,-8.7031,-8.7031,-8.7031,-8.7031,-8.7098,-8.7332,-8.7464,-8.7725,-8.8225,-8.8436,-8.8525,-8.8794,-8.8936,-8.8992,-8.8992,-8.8992,-8.8992,-8.8992,-8.8992,-8.8992,-8.8992,-8.8992,-8.8992,-8.8992,-8.8992,-8.8992,-8.8992,-8.8992,-8.8992,-8.8992,-8.9019,-8.9075,-8.9333,-8.9667,-8.9968,-9.0269,-9.0625,-9.0952,-9.1175,-9.121,-9.1224,-9.1368,-9.1543,-9.1708,-9.1936,-9.2017,-9.211,-9.211,-9.211,-9.211,-9.211,-9.211,-9.211,-9.211,-9.211,-9.211,-9.211,-9.211,-9.211,-9.211,-9.211,-9.211,-9.211,-9.211,-6.9632,-7.062,-7.0829,-7.0919,-7.1018,-7.1916,-7.2859,-7.3722,-7.4599,-7.4897,-7.4956,-7.5539,-7.6174,-7.6686,-7.7926,-7.8763,-7.9373,-7.987,-8.0124,-8.0309,-8.056,-8.1117,-8.1612,-8.2083,-8.259,-8.2951,-8.3208,-8.3208,-8.3208,-8.3208,-8.3208,-8.3208,-8.3208,-8.3208,-8.3208,-8.3208,-8.3208,-8.3208,-8.3208,-8.3208,-8.3253,-8.3253,-8.3697,-8.4255,-8.4872,-8.55,-8.6137,-8.6715,-8.6997,-8.7031,-8.7031,-8.7031,-8.7031,-8.7031,-8.7066,-8.7368,-8.7497,-8.766,-8.8134,-8.8376,-8.8583,-8.8794,-8.8936,-8.8964,-8.8992,-8.8992,-8.8992,-8.8992,-8.8992,-8.8992,-8.8992,-8.8992,-8.8992,-8.8992,-8.8992,-8.8992,-8.8992,-8.8992,-8.8992,-8.8992,-8.8992,-8.8992,-8.9075,-8.9291,-8.9591,-8.9849,-9.0136,-9.0503,-9.0839,-9.1064,-9.1245,-9.1258,-9.14,-9.1571,-9.1708,-9.1873,-9.2005,-9.211,-9.211,-9.211,-9.211,-9.211,-9.211,-9.211,-9.211,-9.211,-9.211,-9.211,-9.211,-9.211,-9.211,-9.211,-9.211,-9.211,-9.211,-6.9722,-7.0829,-7.0919,-7.1148,-7.1789,-7.2547,-7.3416,-7.4268,-7.4719,-7.4897,-7.4984,-7.5771,-7.637,-7.7023,-7.823,-7.9113,-7.9528,-7.9972,-8.0209,-8.036,-8.0808,-8.1262,-8.1707,-8.2269,-8.2681,-8.3031,-8.3208,-8.3208,-8.3208,-8.3208,-8.3208,-8.3208,-8.3208,-8.3208,-8.3208,-8.3208,-8.3208,-8.3208,-8.3208,-8.3208,-8.3297,-8.3437,-8.3996,-8.4503,-8.515,-8.5764,-8.6356,-8.6856,-8.6997,-8.7031,-8.7031,-8.7031,-8.7066,-8.7098,-8.7234,-8.753,-8.7852,-8.8072,-8.8406,-8.8613,-8.8785,-8.8936,-8.8992,-8.8992,-8.8992,-8.8992,-8.8992,-8.8992,-8.8992,-8.8992,-8.8992,-8.8992,-8.8992,-8.8992,-8.8992,-8.8992,-8.8992,-8.8992,-8.8992,-8.8992,-8.8992,-8.8992,-8.9102,-8.9291,-8.9501,-8.9741,-9.0014,-9.0355,-9.0722,-9.1028,-9.1206,-9.1325,-9.1477,-9.1627,-9.1773,-9.1873,-9.2005,-9.211,-9.211,-9.211,-9.211,-9.211,-9.211,-9.211,-9.211,-9.211,-9.211,-9.211,-9.211,-9.211,-9.211,-9.211,-9.211,-9.211,-9.211,-6.9752,-7.0919,-7.0919,-7.1597,-7.2797,-7.2922,-7.3661,-7.4838,-7.5016,-7.5075,-7.522,-7.5945,-7.6911,-7.7741,-7.8763,-7.9477,-7.987,-8.0158,-8.0309,-8.0276,-8.0921,-8.1421,-8.1896,-8.2315,-8.2816,-8.312,-8.3208,-8.3208,-8.3208,-8.3208,-8.3208,-8.3208,-8.3208,-8.3208,-8.3208,-8.3208,-8.3208,-8.3208,-8.3208,-8.3208,-8.3385,-8.3826,-8.4503,-8.5071,-8.5652,-8.632,-8.6786,-8.7031,-8.7031,-8.7031,-8.7031,-8.7031,-8.7098,-8.7301,-8.7431,-8.7688,-8.8103,-8.8376,-8.8583,-8.8785,-8.8908,-8.8992,-8.8992,-8.8992,-8.8992,-8.8992,-8.8992,-8.8992,-8.8992,-8.8992,-8.8992,-8.8992,-8.8992,-8.8992,-8.8992,-8.8992,-8.8992,-8.8992,-8.8992,-8.8992,-8.8992,-8.8992,-8.9019,-8.9184,-8.9238,-8.9515,-8.9897,-9.0247,-9.0544,-9.0896,-9.1168,-9.1352,-9.1469,-9.1641,-9.1812,-9.1948,-9.2066,-9.211,-9.211,-9.211,-9.211,-9.211,-9.211,-9.211,-9.211,-9.211,-9.211,-9.211,-9.211,-9.211,-9.211,-9.211,-9.211,-9.211,-9.211,-6.9752,-7.0889,-7.0919,-7.1661,-7.2797,-7.2922,-7.3661,-7.4956,-7.5597,-7.5887,-7.606,-7.6855,-7.7687,-7.8498,-7.9373,-7.9972,-8.0107,-8.0259,-8.046,-8.0774,-8.1228,-8.1707,-8.2269,-8.2716,-8.3031,-8.3164,-8.3208,-8.3208,-8.3208,-8.3208,-8.3208,-8.3208,-8.3208,-8.3208,-8.3208,-8.3208,-8.3208,-8.3208,-8.3208,-8.3253,-8.3429,-8.3869,-8.4503,-8.5111,-8.5764,-8.6392,-8.6821,-8.7031,-8.7031,-8.7031,-8.7031,-8.7031,-8.7031,-8.7332,-8.7628,-8.7879,-8.8286,-8.8583,-8.8794,-8.8936,-8.8964,-8.8992,-8.8992,-8.8992,-8.8992,-8.8992,-8.8992,-8.8992,-8.8992,-8.8992,-8.8992,-8.8992,-8.8992,-8.8992,-8.8992,-8.8992,-8.8992,-8.8992,-8.8992,-8.8992,-8.8992,-8.8992,-8.8992,-8.9019,-8.9047,-8.9359,-8.9849,-9.0181,-9.0419,-9.0742,-9.1202,-9.14,-9.1499,-9.1641,-9.1875,-9.201,-9.2088,-9.211,-9.211,-9.211,-9.211,-9.211,-9.211,-9.211,-9.211,-9.211,-9.211,-9.211,-9.211,-9.211,-9.211,-9.211,-9.211,-9.211,-9.211,-6.9991,-7.0859,-7.1212,-7.1886,-7.2859,-7.3231,-7.3966,-7.4925,-7.5829,-7.6427,-7.6911,-7.7741,-7.8444,-7.906,-7.9819,-8.0209,-8.0209,-8.0209,-8.051,-8.097,-8.1517,-8.1943,-8.2533,-8.2986,-8.312,-8.3208,-8.3208,-8.3208,-8.3208,-8.3208,-8.3208,-8.3208,-8.3208,-8.3208,-8.3208,-8.3208,-8.3208,-8.3208,-8.3208,-8.3341,-8.3568,-8.4255,-8.4671,-8.5267,-8.5952,-8.6572,-8.6821,-8.7031,-8.7031,-8.7031,-8.7031,-8.7132,-8.7231,-8.7489,-8.781,-8.8158,-8.8525,-8.8823,-8.8936,-8.8992,-8.8992,-8.8992,-8.8992,-8.8992,-8.8992,-8.8992,-8.8992,-8.8992,-8.8992,-8.8992,-8.8992,-8.8992,-8.8992,-8.8992,-8.8992,-8.8992,-8.8992,-8.8992,-8.8992,-8.8992,-8.8992,-8.8992,-8.8992,-8.8992,-8.9047,-8.9173,-8.9678,-9.0068,-9.0312,-9.0762,-9.1147,-9.1446,-9.1596,-9.176,-9.1971,-9.2066,-9.2099,-9.211,-9.211,-9.211,-9.211,-9.211,-9.211,-9.211,-9.211,-9.211,-9.211,-9.211,-9.211,-9.211,-9.211,-9.211,-9.211,-9.211,-9.211,-7.032,-7.0924,-7.1533,-7.2202,-7.2922,-7.3477,-7.4147,-7.4984,-7.5945,-7.6855,-7.7632,-7.8604,-7.9008,-7.9373,-7.9768,-8.0023,-8.0209,-8.0209,-8.056,-8.1117,-8.1517,-8.213,-8.259,-8.2986,-8.312,-8.3208,-8.3208,-8.3208,-8.3208,-8.3208,-8.3208,-8.3208,-8.3208,-8.3208,-8.3208,-8.3208,-8.3208,-8.3208,-8.3297,-8.3603,-8.4129,-8.4792,-8.5071,-8.5576,-8.6283,-8.6925,-8.7031,-8.7031,-8.7031,-8.7031,-8.7031,-8.72,-8.7431,-8.7683,-8.7997,-8.8406,-8.8737,-8.8908,-8.8992,-8.8992,-8.8992,-8.8992,-8.8992,-8.8992,-8.8992,-8.8992,-8.8992,-8.8992,-8.8992,-8.8992,-8.8992,-8.8992,-8.8992,-8.8992,-8.8992,-8.8992,-8.8992,-8.8992,-8.8992,-8.8992,-8.8992,-8.8992,-8.8992,-8.8992,-8.9075,-8.9173,-8.9452,-8.9811,-9.0269,-9.0819,-9.1336,-9.1522,-9.1666,-9.1837,-9.2028,-9.2099,-9.211,-9.211,-9.211,-9.211,-9.211,-9.211,-9.211,-9.211,-9.211,-9.211,-9.211,-9.211,-9.211,-9.211,-9.211,-9.211,-9.211,-9.211,-9.211,-7.035,-7.0889,-7.1018,-7.1789,-7.2797,-7.3046,-7.3783,-7.5043,-7.6629,-7.7499,-7.7959,-7.9217,-7.9972,-7.9921,-8.0074,-8.0209,-8.0209,-8.0209,-8.0872,-8.1517,-8.166,-8.2269,-8.2851,-8.312,-8.3164,-8.3208,-8.3208,-8.3208,-8.3208,-8.3208,-8.3208,-8.3208,-8.3208,-8.3208,-8.3208,-8.3208,-8.3208,-8.3208,-8.3297,-8.3524,-8.4213,-8.4792,-8.5384,-8.5952,-8.6572,-8.6891,-8.7031,-8.7031,-8.7031,-8.7031,-8.7066,-8.7268,-8.7567,-8.7921,-8.83,-8.8525,-8.8879,-8.8964,-8.8992,-8.8992,-8.8992,-8.8992,-8.8992,-8.8992,-8.8992,-8.8992,-8.8992,-8.8992,-8.8992,-8.8992,-8.8992,-8.8992,-8.8992,-8.8992,-8.8992,-8.8992,-8.8992,-8.8992,-8.8992,-8.8992,-8.8992,-8.8992,-8.8992,-8.8992,-8.8992,-8.92,-8.9579,-8.993,-9.0159,-9.08,-9.1446,-9.1596,-9.1721,-9.1912,-9.2088,-9.2099,-9.211,-9.211,-9.211,-9.211,-9.211,-9.211,-9.211,-9.211,-9.211,-9.211,-9.211,-9.211,-9.211,-9.211,-9.211,-9.211,-9.211,-9.211,-9.211]},{"header":{"parameterUnit":"m.s-1","parameterCategory":1,"la1":31.0,"la2":29.5877,"lo1":-88.7671,"lo2":-86.6584,"dx":0.0162,"dy":0.0185,"nx":115,"ny":88,"refTime":"2023-02-11T18:00:00:Z","depth":0,"parameterNumber":3,"parameterNumberName":"V-component_of_WINDS"},"data":[0.0,0.0,0.0,0.0,0.0,0.0,0.0,0.0,0.0,0.0,0.0,0.0,0.0,0.0,0.0,0.0,0.0,0.0,0.0,0.0,0.0,0.0,0.0,0.0,0.0,0.0,0.0,0.0,0.0,0.0,0.0,0.0,0.0,0.0,0.0,0.0,0.0,0.0,0.0,0.0,0.0,0.0,0.0,0.0,0.0,0.0,0.0,0.0,0.0,0.0,0.0,0.0,0.0,0.0,0.0,0.0,0.0,0.0,0.0,0.0,0.0,0.0,0.0,0.0,0.0,0.0,0.0,0.0,0.0,0.0,0.0,0.0,0.0,0.0,0.0,0.0,0.0,0.0,0.0,0.0,0.0,0.0,0.0,0.0,0.0,0.0,0.0,0.0,0.0,0.0,0.0,0.0,0.0,0.0,0.0,0.0,0.0,0.0,0.0,0.0,0.0,0.0,0.0,0.0,0.0,0.0,0.0,0.0,0.0,0.0,0.0,0.0,0.0,0.0,0.0,0.0,0.0,0.0,0.0,0.0,0.0,0.0,0.0,0.0,0.0,0.0,0.0,0.0,0.0,0.0,0.0,0.0,0.0,0.0,0.0,0.0,0.0,0.0,0.0,0.0,0.0,0.0,0.0,0.0,0.0,0.0,0.0,0.0,0.0,0.0,0.0,0.0,0.0,0.0,0.0,0.0,0.0,0.0,0.0,0.0,0.0,0.0,0.0,0.0,0.0,0.0,0.0,0.0,0.0,0.0,0.0,0.0,0.0,0.0,0.0,0.0,0.0,0.0,0.0,0.0,0.0,0.0,0.0,0.0,0.0,0.0,0.0,0.0,0.0,0.0,0.0,0.0,0.0,0.0,0.0,0.0,0.0,0.0,0.0,0.0,0.0,0.0,0.0,0.0,0.0,0.0,0.0,0.0,0.0,0.0,0.0,0.0,0.0,0.0,0.0,0.0,0.0,0.0,0.0,0.0,0.0,0.0,0.0,0.0,0.0,0.0,0.0,0.0,0.0,0.0,0.0,0.0,0.0,0.0,0.0,0.0,0.0,0.0,0.0,0.0,0.0,0.0,0.0,0.0,0.0,0.0,0.0,0.0,0.0,0.0,0.0,0.0,0.0,0.0,0.0,0.0,0.0,0.0,0.0,0.0,0.0,0.0,0.0,0.0,0.0,0.0,0.0,0.0,0.0,0.0,0.0,0.0,0.0,0.0,0.0,0.0,0.0,0.0,0.0,0.0,0.0,0.0,0.0,0.0,0.0,0.0,0.0,0.0,0.0,0.0,0.0,0.0,0.0,0.0,0.0,0.0,0.0,0.0,0.0,0.0,0.0,0.0,0.0,0.0,0.0,0.0,0.0,0.0,0.0,0.0,0.0,0.0,0.0,0.0,0.0,0.0,0.0,0.0,0.0,0.0,0.0,0.0,0.0,0.0,0.0,0.0,0.0,0.0,0.0,0.0,0.0,0.0,0.0,0.0,0.0,0.0,0.0,0.0,0.0,0.0,0.0,0.0,0.0,0.0,0.0,0.0,0.0,0.0,0.0,0.0,0.0,0.0,0.0,0.0,0.0,0.0,0.0,0.0,0.0,0.0,0.0,0.0,0.0,0.0,0.0,0.0,0.0,0.0,0.0,0.0,0.0,0.0,0.0,0.0,0.0,0.0,0.0,0.0,0.0,0.0,0.0,0.0,0.0,0.0,0.0,0.0,0.0,0.0,0.0,0.0,0.0,0.0,0.0,0.0,0.0,0.0,0.0,0.0,0.0,0.0,0.0,0.0,0.0,0.0,0.0,0.0,0.0,0.0,0.0,0.0,0.0,0.0,0.0,0.0,0.0,0.0,0.0,0.0,0.0,0.0,0.0,0.0,0.0,0.0,0.0,0.0,0.0,0.0,0.0,0.0,0.0,0.0,0.0,0.0,0.0,0.0,0.0,0.0,0.0,0.0,0.0,0.0,0.0,0.0,0.0,0.0,0.0,0.0,0.0,0.0,0.0,0.0,0.0,0.0,0.0,0.0,0.0,0.0,0.0,0.0,0.0,0.0,0.0,0.0,0.0,0.0,0.0,0.0,0.0,0.0,0.0,0.0,0.0,0.0,0.0,0.0,0.0,0.0,0.0,0.0,0.0,0.0,0.0,0.0,0.0,0.0,0.0,0.0,0.0,0.0,0.0,0.0,0.0,0.0,0.0,0.0,0.0,0.0,0.0,0.0,0.0,0.0,0.0,0.0,0.0,0.0,0.0,0.0,0.0,0.0,0.0,0.0,0.0,0.0,0.0,0.0,0.0,0.0,0.0,0.0,0.0,0.0,0.0,0.0,0.0,0.0,0.0,0.0,0.0,0.0,0.0,0.0,0.0,0.0,0.0,0.0,0.0,0.0,0.0,0.0,0.0,0.0,0.0,0.0,0.0,0.0,0.0,0.0,0.0,0.0,0.0,0.0,0.0,0.0,0.0,0.0,0.0,0.0,0.0,0.0,0.0,0.0,0.0,0.0,0.0,0.0,0.0,0.0,0.0,0.0,0.0,0.0,0.0,0.0,0.0,0.0,0.0,0.0,0.0,0.0,0.0,0.0,0.0,0.0,0.0,0.0,0.0,0.0,0.0,0.0,0.0,0.0,0.0,0.0,0.0,0.0,0.0,0.0,0.0,0.0,0.0,0.0,0.0,0.0,0.0,0.0,0.0,0.0,0.0,0.0,0.0,0.0,0.0,0.0,0.0,0.0,0.0,0.0,0.0,0.0,0.0,0.0,0.0,0.0,0.0,0.0,0.0,0.0,0.0,0.0,0.0,0.0,0.0,0.0,0.0,0.0,0.0,0.0,0.0,0.0,0.0,0.0,0.0,0.0,0.0,0.0,0.0,0.0,0.0,0.0,0.0,0.0,0.0,0.0,0.0,0.0,0.0,0.0,0.0,0.0,0.0,0.0,0.0,0.0,0.0,0.0,0.0,0.0,0.0,0.0,0.0,0.0,0.0,0.0,0.0,0.0,0.0,0.0,0.0,0.0,0.0,0.0,0.0,0.0,0.0,0.0,0.0,0.0,0.0,0.0,0.0,0.0,0.0,0.0,0.0,0.0,0.0,0.0,0.0,0.0,0.0,0.0,0.0,0.0,0.0,0.0,0.0,0.0,0.0,0.0,0.0,0.0,0.0,0.0,0.0,0.0,0.0,0.0,0.0,0.0,0.0,0.0,0.0,0.0,0.0,0.0,0.0,0.0,0.0,0.0,0.0,0.0,0.0,0.0,0.0,0.0,0.0,0.0,0.0,0.0,0.0,0.0,0.0,0.0,0.0,0.0,0.0,0.0,0.0,0.0,0.0,0.0,0.0,0.0,0.0,0.0,0.0,0.0,0.0,0.0,0.0,0.0,0.0,0.0,0.0,0.0,0.0,0.0,0.0,0.0,0.0,0.0,0.0,0.0,0.0,0.0,0.0,0.0,0.0,0.0,0.0,0.0,0.0,0.0,0.0,0.0,0.0,0.0,0.0,0.0,0.0,0.0,0.0,0.0,0.0,0.0,0.0,0.0,0.0,0.0,0.0,0.0,0.0,0.0,0.0,0.0,0.0,0.0,0.0,0.0,0.0,0.0,0.0,0.0,0.0,0.0,0.0,0.0,0.0,0.0,0.0,0.0,0.0,0.0,0.0,0.0,0.0,0.0,0.0,0.0,0.0,0.0,0.0,0.0,0.0,0.0,0.0,0.0,0.0,0.0,0.0,0.0,0.0,0.0,0.0,0.0,0.0,0.0,0.0,0.0,0.0,0.0,0.0,0.0,0.0,0.0,0.0,0.0,0.0,0.0,0.0,0.0,0.0,0.0,0.0,0.0,0.0,0.0,0.0,0.0,0.0,0.0,0.0,0.0,0.0,0.0,0.0,0.0,0.0,0.0,0.0,0.0,0.0,0.0,0.0,0.0,0.0,0.0,0.0,0.0,0.0,0.0,0.0,0.0,0.0,0.0,0.0,0.0,0.0,0.0,0.0,0.0,0.0,0.0,0.0,0.0,0.0,0.0,0.0,0.0,0.0,0.0,0.0,0.0,0.0,0.0,0.0,0.0,0.0,0.0,0.0,0.0,0.0,0.0,0.0,0.0,0.0,0.0,0.0,0.0,0.0,0.0,0.0,0.0,0.0,0.0,0.0,0.0,0.0,0.0,0.0,0.0,0.0,0.0,0.0,0.0,0.0,0.0,0.0,0.0,0.0,0.0,0.0,0.0,0.0,0.0,0.0,0.0,0.0,0.0,0.0,0.0,-3.6405,0.0,0.0,0.0,-3.6645,0.0,0.0,0.0,0.0,0.0,0.0,0.0,0.0,0.0,0.0,0.0,0.0,0.0,0.0,0.0,0.0,0.0,0.0,0.0,0.0,0.0,0.0,0.0,0.0,0.0,0.0,0.0,0.0,0.0,0.0,0.0,0.0,0.0,0.0,0.0,0.0,0.0,0.0,0.0,0.0,0.0,0.0,0.0,0.0,0.0,0.0,0.0,0.0,0.0,0.0,0.0,0.0,0.0,0.0,0.0,0.0,0.0,0.0,0.0,0.0,0.0,0.0,0.0,0.0,0.0,0.0,0.0,0.0,0.0,0.0,0.0,0.0,0.0,0.0,0.0,0.0,0.0,0.0,0.0,0.0,0.0,0.0,0.0,0.0,0.0,0.0,0.0,0.0,0.0,0.0,0.0,0.0,0.0,0.0,0.0,0.0,0.0,0.0,0.0,0.0,0.0,0.0,0.0,0.0,0.0,0.0,0.0,0.0,0.0,0.0,-3.6268,-3.6097,-3.644,-3.6542,-3.6354,0.0,0.0,0.0,0.0,0.0,0.0,0.0,0.0,0.0,0.0,0.0,0.0,0.0,0.0,0.0,0.0,0.0,0.0,0.0,0.0,0.0,0.0,0.0,0.0,0.0,0.0,0.0,0.0,0.0,0.0,0.0,0.0,0.0,0.0,0.0,0.0,0.0,0.0,0.0,0.0,0.0,0.0,0.0,0.0,0.0,0.0,0.0,0.0,0.0,0.0,0.0,0.0,0.0,0.0,0.0,0.0,0.0,0.0,0.0,0.0,0.0,0.0,0.0,0.0,0.0,0.0,0.0,0.0,0.0,0.0,0.0,0.0,0.0,0.0,0.0,0.0,0.0,0.0,0.0,0.0,0.0,0.0,0.0,0.0,0.0,0.0,0.0,0.0,0.0,0.0,0.0,0.0,0.0,0.0,0.0,0.0,0.0,0.0,0.0,0.0,0.0,0.0,0.0,0.0,0.0,0.0,0.0,0.0,0.0,0.0,0.0,0.0,-3.644,-3.6577,-3.6491,0.0,0.0,0.0,0.0,0.0,0.0,0.0,0.0,0.0,0.0,0.0,0.0,0.0,0.0,0.0,0.0,0.0,0.0,0.0,0.0,0.0,0.0,0.0,0.0,0.0,0.0,0.0,0.0,0.0,0.0,0.0,0.0,0.0,0.0,0.0,0.0,0.0,0.0,0.0,0.0,0.0,0.0,0.0,0.0,0.0,0.0,0.0,0.0,0.0,0.0,0.0,0.0,0.0,0.0,0.0,0.0,0.0,0.0,0.0,0.0,0.0,0.0,0.0,0.0,0.0,0.0,0.0,0.0,0.0,0.0,0.0,0.0,0.0,0.0,0.0,0.0,0.0,0.0,0.0,0.0,0.0,0.0,0.0,0.0,0.0,0.0,0.0,0.0,0.0,0.0,0.0,0.0,0.0,0.0,0.0,0.0,0.0,0.0,0.0,0.0,0.0,0.0,0.0,0.0,0.0,0.0,0.0,0.0,0.0,0.0,-3.6097,-3.6097,-3.644,0.0,-3.7535,0.0,0.0,0.0,0.0,0.0,0.0,0.0,0.0,0.0,0.0,0.0,0.0,0.0,0.0,0.0,0.0,0.0,0.0,0.0,0.0,0.0,0.0,0.0,0.0,0.0,0.0,0.0,0.0,0.0,0.0,0.0,0.0,0.0,0.0,0.0,0.0,0.0,0.0,0.0,0.0,0.0,0.0,0.0,0.0,0.0,0.0,0.0,0.0,0.0,0.0,0.0,0.0,0.0,0.0,0.0,0.0,0.0,0.0,0.0,0.0,0.0,0.0,0.0,0.0,0.0,0.0,0.0,0.0,0.0,0.0,0.0,0.0,0.0,0.0,0.0,0.0,0.0,0.0,0.0,0.0,0.0,0.0,0.0,0.0,0.0,0.0,0.0,0.0,0.0,0.0,0.0,0.0,0.0,0.0,0.0,0.0,0.0,0.0,0.0,0.0,0.0,0.0,0.0,0.0,0.0,0.0,0.0,0.0,0.0,0.0,-3.62,-3.6405,-3.6542,-3.6885,0.0,0.0,0.0,0.0,0.0,0.0,0.0,0.0,0.0,0.0,0.0,0.0,0.0,0.0,0.0,0.0,0.0,0.0,0.0,0.0,0.0,0.0,0.0,0.0,0.0,0.0,0.0,0.0,0.0,0.0,0.0,0.0,0.0,0.0,0.0,0.0,0.0,0.0,0.0,0.0,0.0,0.0,0.0,0.0,0.0,0.0,0.0,0.0,0.0,0.0,0.0,0.0,0.0,0.0,0.0,0.0,0.0,0.0,0.0,0.0,0.0,0.0,0.0,0.0,0.0,0.0,0.0,0.0,0.0,0.0,0.0,0.0,0.0,0.0,0.0,0.0,0.0,0.0,0.0,0.0,0.0,0.0,0.0,0.0,0.0,0.0,0.0,0.0,0.0,0.0,0.0,0.0,0.0,0.0,0.0,0.0,0.0,0.0,0.0,0.0,0.0,0.0,0.0,0.0,0.0,0.0,0.0,0.0,0.0,0.0,-3.6183,-3.6405,-3.6765,-3.6679,-3.685,-3.7347,0.0,0.0,0.0,0.0,0.0,0.0,0.0,0.0,0.0,0.0,0.0,0.0,0.0,0.0,0.0,0.0,0.0,0.0,0.0,0.0,0.0,0.0,0.0,0.0,0.0,0.0,0.0,0.0,0.0,0.0,0.0,0.0,0.0,0.0,0.0,0.0,0.0,0.0,0.0,0.0,0.0,0.0,0.0,0.0,0.0,0.0,0.0,0.0,0.0,0.0,0.0,0.0,0.0,0.0,0.0,0.0,0.0,0.0,0.0,0.0,0.0,0.0,0.0,0.0,0.0,0.0,0.0,0.0,0.0,0.0,0.0,0.0,0.0,0.0,0.0,0.0,0.0,0.0,0.0,0.0,0.0,0.0,0.0,0.0,0.0,0.0,0.0,0.0,0.0,0.0,0.0,0.0,0.0,0.0,0.0,0.0,0.0,0.0,0.0,0.0,0.0,0.0,0.0,0.0,0.0,0.0,0.0,0.0,-3.6097,-3.6422,-3.6782,-3.7142,-3.6816,-3.697,0.0,0.0,0.0,0.0,0.0,0.0,0.0,0.0,0.0,0.0,0.0,0.0,0.0,0.0,0.0,0.0,0.0,0.0,0.0,0.0,0.0,0.0,0.0,0.0,0.0,0.0,0.0,0.0,0.0,0.0,0.0,0.0,0.0,0.0,0.0,0.0,0.0,0.0,0.0,0.0,0.0,0.0,0.0,0.0,0.0,0.0,0.0,0.0,0.0,0.0,0.0,0.0,0.0,0.0,0.0,0.0,0.0,0.0,0.0,0.0,0.0,0.0,0.0,0.0,0.0,0.0,0.0,0.0,0.0,0.0,0.0,0.0,0.0,0.0,0.0,0.0,0.0,0.0,0.0,0.0,0.0,0.0,0.0,0.0,0.0,0.0,0.0,0.0,0.0,0.0,0.0,0.0,0.0,0.0,0.0,0.0,0.0,0.0,0.0,0.0,0.0,0.0,0.0,0.0,0.0,0.0,0.0,0.0,0.0,-3.6114,-3.644,-3.6696,-3.6833,-3.6936,-3.7244,0.0,0.0,0.0,0.0,0.0,0.0,0.0,0.0,0.0,0.0,0.0,0.0,0.0,0.0,0.0,0.0,0.0,0.0,0.0,0.0,0.0,0.0,0.0,0.0,0.0,0.0,0.0,0.0,0.0,0.0,0.0,0.0,0.0,0.0,0.0,0.0,0.0,0.0,0.0,0.0,0.0,0.0,0.0,0.0,0.0,0.0,0.0,0.0,0.0,0.0,0.0,0.0,0.0,0.0,0.0,0.0,0.0,0.0,0.0,0.0,0.0,0.0,0.0,0.0,0.0,0.0,0.0,0.0,0.0,0.0,0.0,0.0,0.0,0.0,0.0,0.0,0.0,0.0,0.0,0.0,0.0,0.0,0.0,0.0,0.0,0.0,0.0,0.0,0.0,0.0,0.0,0.0,0.0,0.0,0.0,0.0,0.0,0.0,0.0,0.0,0.0,0.0,0.0,0.0,0.0,0.0,0.0,0.0,0.0,-3.644,0.0,-3.6868,-3.7005,-3.7244,-3.7501,0.0,0.0,0.0,0.0,0.0,0.0,0.0,0.0,0.0,0.0,0.0,0.0,0.0,0.0,0.0,0.0,0.0,0.0,0.0,0.0,0.0,0.0,0.0,0.0,0.0,0.0,0.0,0.0,0.0,0.0,0.0,0.0,0.0,0.0,0.0,0.0,0.0,0.0,0.0,0.0,0.0,0.0,0.0,0.0,0.0,0.0,0.0,0.0,0.0,0.0,0.0,0.0,0.0,0.0,0.0,0.0,0.0,0.0,0.0,0.0,0.0,0.0,0.0,0.0,0.0,0.0,0.0,0.0,0.0,0.0,0.0,0.0,0.0,0.0,0.0,0.0,0.0,0.0,0.0,0.0,0.0,0.0,0.0,0.0,0.0,0.0,0.0,0.0,0.0,0.0,0.0,0.0,0.0,0.0,0.0,0.0,0.0,0.0,0.0,0.0,0.0,0.0,0.0,0.0,0.0,0.0,0.0,0.0,-3.6457,-3.7142,-3.7176,-3.7347,-3.7724,-3.7724,-3.7758,0.0,0.0,0.0,0.0,0.0,0.0,0.0,0.0,0.0,0.0,0.0,0.0,0.0,0.0,0.0,0.0,0.0,0.0,0.0,0.0,0.0,0.0,0.0,0.0,0.0,0.0,0.0,0.0,0.0,0.0,0.0,0.0,0.0,0.0,0.0,0.0,0.0,0.0,0.0,0.0,0.0,0.0,0.0,0.0,0.0,0.0,0.0,0.0,0.0,0.0,0.0,0.0,0.0,0.0,0.0,0.0,0.0,0.0,0.0,0.0,0.0,0.0,0.0,0.0,0.0,0.0,0.0,0.0,0.0,0.0,0.0,0.0,0.0,0.0,0.0,0.0,0.0,0.0,0.0,0.0,0.0,0.0,0.0,0.0,0.0,0.0,0.0,0.0,0.0,0.0,0.0,0.0,0.0,0.0,0.0,0.0,0.0,0.0,0.0,0.0,0.0,0.0,0.0,0.0,0.0,0.0,0.0,0.0,0.0,-3.6457,-3.6936,-3.7261,-3.7381,-3.7638,-3.7895,0.0,0.0,0.0,0.0,0.0,0.0,0.0,0.0,0.0,0.0,0.0,0.0,0.0,0.0,0.0,0.0,0.0,0.0,0.0,0.0,0.0,0.0,0.0,0.0,0.0,0.0,0.0,0.0,0.0,0.0,0.0,0.0,0.0,0.0,0.0,0.0,0.0,0.0,0.0,0.0,0.0,0.0,0.0,0.0,0.0,0.0,0.0,0.0,0.0,0.0,0.0,0.0,0.0,0.0,0.0,0.0,0.0,0.0,0.0,0.0,0.0,0.0,0.0,0.0,0.0,0.0,0.0,0.0,0.0,0.0,0.0,0.0,0.0,0.0,0.0,0.0,0.0,0.0,0.0,0.0,0.0,0.0,0.0,0.0,0.0,0.0,0.0,0.0,0.0,0.0,0.0,0.0,0.0,0.0,0.0,0.0,0.0,0.0,0.0,0.0,0.0,0.0,0.0,0.0,0.0,0.0,0.0,0.0,0.0,-3.6559,-3.7244,-3.7621,-3.7621,-3.7844,-3.8083,-3.8323,0.0,0.0,0.0,0.0,0.0,0.0,0.0,0.0,0.0,0.0,0.0,0.0,0.0,0.0,0.0,0.0,0.0,0.0,0.0,0.0,0.0,0.0,0.0,0.0,0.0,0.0,0.0,0.0,0.0,0.0,0.0,0.0,0.0,0.0,0.0,0.0,0.0,0.0,0.0,0.0,0.0,0.0,0.0,0.0,0.0,0.0,0.0,0.0,0.0,0.0,0.0,0.0,0.0,0.0,0.0,0.0,0.0,0.0,0.0,0.0,0.0,0.0,0.0,0.0,0.0,0.0,0.0,0.0,0.0,0.0,0.0,0.0,0.0,0.0,0.0,0.0,0.0,0.0,0.0,0.0,0.0,0.0,0.0,0.0,0.0,0.0,0.0,0.0,0.0,0.0,0.0,0.0,0.0,0.0,0.0,0.0,0.0,0.0,0.0,0.0,0.0,0.0,0.0,0.0,0.0,0.0,0.0,0.0,-3.7244,-3.7946,-3.8306,-3.8272,-3.8306,-3.8254,0.0,0.0,0.0,0.0,0.0,0.0,0.0,0.0,0.0,0.0,0.0,0.0,0.0,0.0,0.0,0.0,0.0,0.0,0.0,0.0,0.0,0.0,0.0,0.0,0.0,0.0,0.0,0.0,0.0,0.0,0.0,0.0,0.0,0.0,0.0,0.0,0.0,0.0,0.0,0.0,0.0,0.0,0.0,0.0,0.0,0.0,0.0,0.0,0.0,0.0,0.0,0.0,0.0,0.0,0.0,0.0,0.0,0.0,0.0,0.0,0.0,0.0,0.0,0.0,0.0,0.0,0.0,0.0,0.0,0.0,0.0,0.0,0.0,0.0,0.0,0.0,0.0,0.0,0.0,0.0,0.0,0.0,0.0,0.0,0.0,0.0,0.0,0.0,0.0,0.0,0.0,0.0,0.0,0.0,0.0,0.0,0.0,0.0,0.0,0.0,0.0,0.0,0.0,0.0,0.0,0.0,0.0,0.0,0.0,-3.7638,-3.8083,-3.8186,-3.7929,-3.8186,-3.7943,0.0,0.0,0.0,0.0,0.0,0.0,0.0,0.0,0.0,0.0,0.0,0.0,0.0,0.0,0.0,0.0,0.0,0.0,0.0,0.0,0.0,0.0,0.0,0.0,0.0,0.0,0.0,0.0,0.0,0.0,0.0,0.0,0.0,0.0,0.0,0.0,0.0,0.0,0.0,0.0,0.0,0.0,0.0,0.0,0.0,0.0,0.0,0.0,0.0,0.0,0.0,0.0,0.0,0.0,0.0,0.0,0.0,0.0,0.0,0.0,0.0,0.0,0.0,0.0,0.0,0.0,0.0,0.0,0.0,0.0,0.0,0.0,0.0,0.0,0.0,0.0,0.0,0.0,0.0,0.0,0.0,0.0,0.0,0.0,0.0,0.0,0.0,0.0,0.0,0.0,0.0,0.0,0.0,0.0,0.0,0.0,0.0,0.0,0.0,0.0,0.0,0.0,0.0,0.0,0.0,0.0,0.0,0.0,-3.7844,-3.7998,-3.822,-3.822,-3.7998,-3.822,-3.7804,0.0,0.0,0.0,0.0,0.0,0.0,0.0,0.0,0.0,0.0,0.0,0.0,0.0,0.0,0.0,0.0,0.0,0.0,0.0,0.0,0.0,0.0,0.0,0.0,0.0,0.0,0.0,0.0,0.0,0.0,0.0,0.0,0.0,0.0,0.0,0.0,0.0,0.0,0.0,0.0,0.0,0.0,0.0,0.0,0.0,0.0,0.0,0.0,0.0,0.0,0.0,0.0,0.0,0.0,0.0,0.0,0.0,0.0,0.0,0.0,0.0,0.0,0.0,0.0,0.0,0.0,0.0,0.0,0.0,0.0,0.0,0.0,0.0,0.0,0.0,0.0,0.0,0.0,0.0,0.0,0.0,0.0,0.0,0.0,0.0,0.0,0.0,0.0,0.0,0.0,0.0,0.0,0.0,0.0,0.0,0.0,0.0,0.0,0.0,0.0,0.0,0.0,0.0,0.0,0.0,0.0,0.0,0.0,-3.7981,-3.8323,-3.8323,-3.8323,-3.8323,-3.8323,-3.7804,0.0,0.0,0.0,0.0,0.0,0.0,0.0,0.0,0.0,0.0,0.0,0.0,0.0,0.0,0.0,0.0,0.0,0.0,0.0,0.0,0.0,0.0,0.0,0.0,0.0,0.0,0.0,0.0,0.0,0.0,0.0,0.0,0.0,0.0,0.0,0.0,0.0,0.0,0.0,0.0,0.0,0.0,0.0,0.0,0.0,0.0,0.0,0.0,0.0,0.0,0.0,0.0,0.0,0.0,0.0,0.0,0.0,0.0,0.0,0.0,0.0,0.0,0.0,0.0,0.0,0.0,0.0,0.0,0.0,0.0,0.0,0.0,0.0,0.0,0.0,0.0,0.0,0.0,0.0,0.0,0.0,0.0,0.0,0.0,0.0,0.0,0.0,0.0,0.0,0.0,0.0,0.0,0.0,0.0,0.0,0.0,0.0,0.0,0.0,0.0,0.0,0.0,0.0,0.0,0.0,0.0,0.0,0.0,-3.8255,-3.8323,-3.8323,-3.8323,-3.8323,-3.8323,-3.7804,0.0,0.0,0.0,0.0,0.0,0.0,0.0,0.0,0.0,0.0,0.0,0.0,0.0,0.0,0.0,0.0,0.0,0.0,0.0,0.0,0.0,0.0,0.0,0.0,0.0,0.0,0.0,0.0,0.0,0.0,0.0,0.0,0.0,0.0,0.0,0.0,0.0,0.0,0.0,0.0,0.0,0.0,0.0,0.0,0.0,0.0,0.0,0.0,-2.4118,0.0,0.0,0.0,0.0,0.0,0.0,0.0,0.0,0.0,0.0,0.0,0.0,0.0,0.0,0.0,0.0,0.0,0.0,0.0,0.0,0.0,0.0,0.0,0.0,0.0,0.0,0.0,0.0,0.0,0.0,0.0,0.0,0.0,0.0,0.0,0.0,0.0,0.0,0.0,0.0,0.0,0.0,0.0,0.0,0.0,0.0,0.0,0.0,0.0,0.0,0.0,0.0,0.0,0.0,0.0,0.0,0.0,0.0,0.0,-3.8323,-3.8323,-3.8323,-3.8323,-3.8237,-3.7804,-3.7276,0.0,0.0,0.0,0.0,0.0,0.0,0.0,0.0,0.0,0.0,0.0,0.0,0.0,0.0,0.0,0.0,0.0,0.0,0.0,0.0,0.0,0.0,0.0,0.0,0.0,0.0,0.0,0.0,0.0,0.0,0.0,0.0,0.0,0.0,0.0,0.0,0.0,0.0,0.0,0.0,0.0,0.0,0.0,0.0,0.0,0.0,0.0,0.0,0.0,0.0,0.0,0.0,0.0,0.0,0.0,0.0,0.0,0.0,0.0,0.0,0.0,0.0,0.0,0.0,0.0,0.0,0.0,0.0,0.0,0.0,0.0,0.0,0.0,0.0,0.0,0.0,0.0,0.0,0.0,0.0,0.0,0.0,0.0,0.0,0.0,0.0,0.0,0.0,0.0,0.0,0.0,0.0,0.0,0.0,0.0,0.0,0.0,0.0,0.0,0.0,0.0,0.0,0.0,0.0,0.0,0.0,0.0,-3.8323,-3.8323,-3.8323,-3.8323,-3.8323,-3.834,-3.7401,-3.6882,-3.6684,0.0,0.0,0.0,0.0,0.0,0.0,0.0,0.0,0.0,0.0,0.0,0.0,0.0,0.0,0.0,0.0,0.0,0.0,0.0,0.0,0.0,0.0,0.0,0.0,0.0,0.0,0.0,0.0,0.0,0.0,0.0,0.0,0.0,0.0,0.0,0.0,0.0,0.0,-2.4118,-2.4118,0.0,0.0,0.0,0.0,0.0,0.0,0.0,0.0,-2.4118,0.0,0.0,0.0,0.0,0.0,0.0,0.0,0.0,0.0,0.0,0.0,0.0,0.0,0.0,0.0,0.0,0.0,0.0,0.0,0.0,0.0,0.0,0.0,0.0,0.0,0.0,0.0,0.0,0.0,0.0,0.0,0.0,0.0,0.0,0.0,0.0,0.0,0.0,0.0,0.0,0.0,0.0,0.0,0.0,0.0,0.0,0.0,0.0,0.0,0.0,0.0,0.0,0.0,0.0,0.0,0.0,-3.8323,-3.8323,-3.8323,-3.8323,-3.8323,-3.8323,-3.8323,-3.8117,-3.7611,-3.6684,0.0,0.0,0.0,0.0,0.0,0.0,0.0,0.0,0.0,0.0,0.0,0.0,0.0,0.0,0.0,0.0,0.0,0.0,0.0,0.0,0.0,0.0,0.0,0.0,0.0,0.0,0.0,0.0,0.0,0.0,0.0,0.0,0.0,0.0,0.0,0.0,0.0,0.0,0.0,-2.4118,-2.4118,0.0,0.0,0.0,0.0,0.0,0.0,0.0,0.0,-2.4118,0.0,0.0,0.0,0.0,0.0,0.0,0.0,0.0,0.0,0.0,0.0,0.0,0.0,0.0,0.0,0.0,0.0,0.0,0.0,0.0,0.0,0.0,0.0,0.0,0.0,0.0,0.0,0.0,0.0,0.0,0.0,0.0,0.0,0.0,0.0,0.0,0.0,0.0,0.0,0.0,0.0,0.0,0.0,0.0,0.0,0.0,0.0,0.0,0.0,0.0,0.0,0.0,0.0,0.0,0.0,-3.8323,-3.8323,-3.8323,-3.8323,-3.8323,-3.8323,-3.8323,-3.7734,-3.7205,0.0,0.0,0.0,0.0,0.0,0.0,0.0,0.0,0.0,0.0,0.0,0.0,0.0,0.0,0.0,0.0,0.0,0.0,0.0,0.0,0.0,0.0,0.0,0.0,0.0,0.0,0.0,0.0,0.0,0.0,0.0,0.0,0.0,0.0,0.0,0.0,0.0,0.0,0.0,0.0,-2.4118,-2.4118,-2.4118,0.0,0.0,0.0,0.0,0.0,0.0,-2.4118,-2.4118,0.0,0.0,0.0,0.0,0.0,0.0,0.0,0.0,0.0,0.0,0.0,0.0,0.0,0.0,0.0,0.0,0.0,0.0,0.0,0.0,0.0,0.0,0.0,0.0,0.0,0.0,0.0,0.0,0.0,0.0,0.0,0.0,0.0,0.0,0.0,0.0,0.0,0.0,0.0,0.0,0.0,0.0,0.0,0.0,0.0,0.0,0.0,0.0,0.0,0.0,0.0,0.0,0.0,0.0,0.0,-3.8323,-3.8323,-3.8323,-3.8323,-3.8323,-3.8323,-3.8237,-3.7276,-3.6612,0.0,0.0,0.0,0.0,0.0,0.0,0.0,0.0,0.0,0.0,0.0,0.0,0.0,0.0,0.0,0.0,0.0,0.0,0.0,0.0,0.0,0.0,0.0,0.0,0.0,0.0,0.0,0.0,0.0,0.0,0.0,0.0,0.0,0.0,0.0,0.0,0.0,0.0,0.0,0.0,0.0,-2.4118,-2.4118,-2.4118,0.0,0.0,0.0,0.0,-2.4118,-2.4118,0.0,0.0,0.0,0.0,0.0,0.0,0.0,0.0,0.0,0.0,0.0,0.0,0.0,0.0,0.0,0.0,0.0,0.0,0.0,0.0,0.0,0.0,0.0,0.0,0.0,0.0,0.0,0.0,0.0,0.0,0.0,0.0,0.0,0.0,0.0,0.0,0.0,0.0,0.0,0.0,0.0,0.0,0.0,0.0,0.0,0.0,0.0,0.0,0.0,0.0,0.0,0.0,0.0,0.0,0.0,0.0,-3.8323,-3.8323,-3.8323,-3.8323,-3.8323,-3.8323,-3.8237,-3.7276,-3.6193,0.0,0.0,0.0,0.0,0.0,0.0,0.0,0.0,0.0,0.0,0.0,0.0,0.0,0.0,0.0,0.0,0.0,0.0,0.0,0.0,0.0,0.0,0.0,0.0,0.0,0.0,0.0,0.0,0.0,0.0,0.0,0.0,0.0,0.0,0.0,0.0,0.0,0.0,0.0,0.0,0.0,-2.4118,-2.4118,-2.4118,-2.4118,0.0,0.0,-2.4118,-2.4118,-2.4118,0.0,0.0,0.0,0.0,0.0,0.0,0.0,0.0,0.0,0.0,0.0,0.0,0.0,0.0,0.0,0.0,0.0,0.0,0.0,0.0,0.0,0.0,0.0,0.0,0.0,0.0,0.0,0.0,0.0,0.0,0.0,0.0,0.0,0.0,0.0,0.0,0.0,0.0,0.0,0.0,0.0,0.0,0.0,0.0,0.0,0.0,0.0,0.0,0.0,0.0,0.0,0.0,0.0,0.0,0.0,-3.8323,-3.8323,-3.8323,-3.8323,-3.8323,-3.8323,-3.8323,-3.8323,-3.7874,-3.7417,0.0,0.0,0.0,0.0,0.0,0.0,0.0,0.0,0.0,0.0,0.0,0.0,0.0,0.0,0.0,0.0,0.0,0.0,0.0,0.0,0.0,0.0,0.0,0.0,0.0,0.0,0.0,0.0,0.0,0.0,0.0,0.0,0.0,0.0,0.0,0.0,0.0,0.0,0.0,0.0,0.0,0.0,-2.4118,-2.4118,0.0,0.0,0.0,-2.4118,-2.4118,0.0,0.0,0.0,0.0,0.0,0.0,0.0,0.0,0.0,0.0,0.0,0.0,0.0,0.0,0.0,0.0,0.0,0.0,0.0,0.0,0.0,0.0,0.0,0.0,0.0,0.0,0.0,0.0,0.0,0.0,0.0,0.0,0.0,0.0,0.0,0.0,0.0,0.0,0.0,0.0,0.0,0.0,0.0,0.0,0.0,0.0,0.0,0.0,0.0,0.0,0.0,0.0,0.0,0.0,0.0,0.0,0.0,-3.8323,-3.8323,-3.8323,-3.8323,-3.8323,-3.8323,-3.8323,-3.7804,0.0,0.0,0.0,0.0,0.0,0.0,0.0,0.0,0.0,0.0,0.0,0.0,0.0,0.0,0.0,0.0,0.0,0.0,0.0,0.0,0.0,0.0,0.0,0.0,0.0,0.0,0.0,-2.4118,0.0,0.0,0.0,0.0,0.0,0.0,0.0,0.0,0.0,0.0,0.0,0.0,0.0,0.0,-2.4118,-2.4118,-2.4118,-2.4118,0.0,0.0,-2.4118,-2.4118,-2.4118,-2.3793,0.0,0.0,0.0,0.0,0.0,0.0,0.0,0.0,0.0,0.0,0.0,0.0,0.0,0.0,0.0,0.0,0.0,0.0,0.0,0.0,0.0,0.0,0.0,0.0,0.0,0.0,0.0,0.0,0.0,0.0,0.0,0.0,0.0,0.0,0.0,0.0,0.0,0.0,0.0,0.0,0.0,0.0,0.0,0.0,0.0,0.0,0.0,0.0,0.0,0.0,0.0,0.0,0.0,0.0,-3.8323,-3.8323,-3.8323,-3.8323,-3.8323,-3.8323,-3.8323,-3.8254,-3.6338,-3.5224,0.0,0.0,0.0,0.0,0.0,0.0,0.0,0.0,0.0,0.0,0.0,0.0,0.0,0.0,0.0,0.0,0.0,0.0,0.0,0.0,0.0,0.0,0.0,0.0,0.0,0.0,0.0,0.0,0.0,0.0,0.0,0.0,0.0,0.0,0.0,0.0,0.0,0.0,0.0,0.0,0.0,-2.4118,-2.4118,-2.4118,-2.4118,0.0,-2.4118,-2.4118,-2.4118,-2.4118,-2.4118,-2.3956,0.0,0.0,0.0,0.0,0.0,0.0,0.0,0.0,0.0,0.0,0.0,0.0,0.0,0.0,0.0,0.0,0.0,0.0,0.0,0.0,0.0,0.0,0.0,0.0,0.0,0.0,0.0,0.0,0.0,0.0,0.0,0.0,0.0,0.0,0.0,0.0,0.0,0.0,0.0,0.0,0.0,0.0,0.0,0.0,0.0,0.0,0.0,0.0,0.0,0.0,0.0,0.0,0.0,-3.8323,-3.8323,-3.8323,-3.8323,-3.8323,-3.8323,-3.8323,-3.8323,-3.7454,-3.708,0.0,0.0,0.0,0.0,0.0,0.0,0.0,0.0,0.0,0.0,0.0,0.0,0.0,0.0,0.0,0.0,0.0,0.0,0.0,0.0,0.0,0.0,0.0,0.0,0.0,0.0,0.0,0.0,-2.4118,-2.4118,-2.4118,0.0,0.0,0.0,0.0,0.0,0.0,0.0,0.0,0.0,0.0,-2.4118,-2.4118,-2.4118,0.0,0.0,-2.4118,-2.4118,-2.4118,-2.4118,-2.3783,-2.2984,-2.3549,0.0,0.0,0.0,0.0,0.0,0.0,0.0,0.0,0.0,0.0,0.0,0.0,0.0,0.0,0.0,0.0,0.0,0.0,0.0,0.0,0.0,0.0,0.0,0.0,0.0,0.0,-5.1431,-5.1431,0.0,0.0,0.0,0.0,0.0,0.0,0.0,0.0,0.0,0.0,0.0,0.0,0.0,0.0,0.0,0.0,0.0,0.0,0.0,0.0,0.0,0.0,0.0,0.0,-3.8323,-3.8323,-3.8323,-3.8323,-3.8323,-3.8323,-3.8323,-3.8323,-3.7996,-3.7665,-3.733,0.0,0.0,0.0,0.0,0.0,0.0,0.0,0.0,0.0,0.0,0.0,0.0,0.0,0.0,0.0,0.0,0.0,0.0,0.0,0.0,0.0,0.0,0.0,0.0,0.0,0.0,0.0,-2.4118,-2.4118,-2.4118,0.0,0.0,0.0,0.0,0.0,0.0,0.0,0.0,0.0,0.0,-2.4118,-2.4118,-2.4118,-2.4118,-2.4118,-2.4118,-2.4118,-2.4118,-2.3793,-2.3138,-2.2256,0.0,0.0,0.0,0.0,0.0,0.0,0.0,0.0,0.0,0.0,0.0,0.0,0.0,0.0,0.0,0.0,0.0,0.0,0.0,0.0,0.0,0.0,0.0,0.0,0.0,0.0,0.0,-5.1431,0.0,0.0,-5.1431,0.0,0.0,0.0,0.0,0.0,0.0,0.0,0.0,0.0,0.0,0.0,0.0,0.0,0.0,0.0,0.0,0.0,0.0,0.0,0.0,0.0,0.0,-3.8323,-3.8323,-3.8323,-3.8323,-3.8323,-3.8323,-3.8323,-3.8254,-3.7276,-3.6282,-3.5239,0.0,0.0,0.0,0.0,0.0,0.0,0.0,0.0,0.0,0.0,0.0,0.0,0.0,0.0,0.0,0.0,0.0,0.0,0.0,0.0,0.0,0.0,0.0,0.0,0.0,0.0,-2.4118,-2.4118,-2.4118,0.0,0.0,0.0,0.0,0.0,0.0,0.0,0.0,0.0,-2.4118,-2.4118,-2.4118,-2.4118,-2.4118,-2.4118,-2.4118,-2.4118,-2.4118,-2.4118,-2.2984,-2.2079,0.0,0.0,0.0,0.0,0.0,0.0,0.0,0.0,0.0,0.0,0.0,0.0,0.0,0.0,0.0,0.0,0.0,0.0,0.0,0.0,0.0,0.0,0.0,0.0,0.0,0.0,0.0,-5.2612,-5.1431,0.0,0.0,0.0,0.0,0.0,0.0,0.0,0.0,0.0,0.0,0.0,-4.8853,-4.7439,0.0,0.0,0.0,0.0,0.0,0.0,0.0,0.0,0.0,0.0,0.0,0.0,-3.8323,-3.8323,-3.8323,-3.8323,-3.8323,-3.8323,-3.8323,-3.834,-3.7926,-3.7611,-3.7205,0.0,0.0,0.0,0.0,0.0,0.0,0.0,0.0,0.0,0.0,0.0,0.0,0.0,0.0,0.0,0.0,0.0,0.0,0.0,0.0,0.0,0.0,0.0,0.0,0.0,-2.4118,0.0,0.0,0.0,0.0,0.0,0.0,0.0,0.0,0.0,0.0,-2.4118,-2.4118,-2.4118,-2.4118,-2.4118,-2.4118,-2.4118,-2.4118,0.0,0.0,0.0,0.0,0.0,0.0,0.0,0.0,0.0,0.0,0.0,0.0,0.0,-1.0535,-0.9996,-0.9711,-0.9616,-0.9522,-0.9142,0.0,0.0,0.0,0.0,0.0,0.0,0.0,0.0,0.0,0.0,0.0,0.0,0.0,0.0,-5.2612,-5.1431,-5.1431,0.0,0.0,0.0,0.0,0.0,0.0,0.0,0.0,-4.9685,-4.8914,-4.8791,-4.7087,-4.6308,-4.6289,-4.5784,-4.447,0.0,0.0,0.0,0.0,0.0,0.0,0.0,0.0,-3.8323,-3.8323,-3.8323,-3.8323,-3.8323,-3.8323,-3.8323,-3.8323,-3.7926,-3.7525,-3.7118,-3.5373,-3.4256,0.0,0.0,0.0,0.0,0.0,0.0,0.0,0.0,0.0,0.0,0.0,0.0,0.0,0.0,0.0,0.0,0.0,0.0,0.0,0.0,0.0,0.0,0.0,-2.4118,0.0,0.0,0.0,0.0,0.0,0.0,0.0,0.0,0.0,-2.4118,-2.4118,-2.4118,-2.4118,-2.4118,-2.4118,-2.4118,0.0,0.0,0.0,0.0,0.0,0.0,0.0,-2.1273,-2.0742,-1.8669,-1.6737,-1.5955,-1.3767,-1.1842,-1.0458,0.0,0.0,-0.9051,-0.9051,-0.9051,-0.9051,-0.9093,-0.9073,-0.913,-0.9097,-0.9073,0.0,0.0,0.0,0.0,-5.5066,0.0,0.0,0.0,-5.2612,-5.2154,0.0,-5.1431,0.0,0.0,0.0,0.0,-5.1431,-5.1431,0.0,0.0,-4.9685,-4.8893,-4.8812,-4.7153,-4.6376,-4.6182,-4.5009,-4.3702,-4.2339,-4.2321,-4.1582,0.0,0.0,0.0,0.0,0.0,-3.8323,-3.8323,-3.8323,-3.8323,-3.8323,-3.8323,-3.8323,-3.8254,-3.7347,-3.6354,-3.5164,-3.4102,-3.2985,-3.1894,-3.2748,0.0,0.0,0.0,0.0,0.0,0.0,0.0,0.0,0.0,0.0,0.0,0.0,0.0,0.0,0.0,0.0,0.0,0.0,0.0,0.0,-2.4118,0.0,0.0,0.0,0.0,0.0,0.0,0.0,0.0,0.0,-2.4118,-2.4118,-2.4118,-2.4118,-2.4118,0.0,0.0,0.0,0.0,-2.4118,-2.4037,-2.4037,-2.3546,-2.226,-2.0879,-1.9592,-1.8334,0.0,0.0,-1.1316,-1.0898,-1.0481,-0.9349,-0.9146,-0.9051,-0.9051,-0.9051,-0.9051,-0.9051,-0.9142,-0.9047,-0.9047,-0.9138,-0.9138,-5.6219,0.0,0.0,0.0,0.0,-5.4397,-5.3572,-5.2612,-5.2612,-5.2154,-5.1431,-5.1431,0.0,0.0,0.0,0.0,0.0,0.0,-5.1431,-5.1377,-5.0295,-4.947,-4.8853,-4.7745,-4.6929,-4.6289,-4.591,-4.4489,-4.2357,-4.2321,-4.111,-3.8924,0.0,0.0,0.0,0.0,-3.8323,-3.8323,-3.8323,-3.8323,-3.8323,-3.8323,-3.8323,-3.8323,-3.7996,-3.7665,-3.733,-3.6338,-3.5254,-3.4117,-3.3528,0.0,0.0,0.0,0.0,0.0,0.0,0.0,0.0,0.0,0.0,0.0,0.0,0.0,0.0,0.0,0.0,0.0,0.0,0.0,-2.4118,-2.4118,-2.4118,0.0,0.0,0.0,0.0,0.0,0.0,0.0,0.0,0.0,-2.4118,-2.4118,-2.4118,0.0,0.0,-2.4118,-2.4118,-2.4118,-2.3804,-2.2829,-2.2663,0.0,-2.0871,-1.9499,-1.8584,-1.8172,-1.5314,-1.2299,-0.9972,-0.9655,-0.9456,-0.9146,-0.9051,-0.9051,-0.9051,-0.9051,-0.9051,-0.9051,-0.9051,-0.9051,-0.9051,-0.9051,-0.9051,-5.6219,-5.612,-5.5312,-5.4843,-5.4472,-5.3648,-5.284,-5.2154,-5.2077,-5.187,-5.1431,-5.1431,-5.1431,-5.1431,-5.1431,0.0,0.0,0.0,-5.1431,-5.1377,-5.0202,-4.9351,-4.8853,-4.7637,-4.6796,-4.6289,-4.5764,-4.4364,-4.2321,-4.1723,-4.0378,-3.834,0.0,-3.8323,-3.8323,-3.8323,-3.8323,-3.8323,-3.8323,-3.8323,-3.8323,-3.8323,-3.8323,-3.8323,-3.8323,-3.8134,-3.7665,-3.7009,-3.6209,-3.5105,-3.4819,-3.4102,0.0,0.0,0.0,0.0,0.0,0.0,0.0,0.0,0.0,0.0,0.0,-3.0054,-2.8731,0.0,0.0,0.0,-2.4356,-2.4118,-2.4118,-2.4118,0.0,0.0,0.0,0.0,0.0,0.0,0.0,-2.3359,-2.3753,-2.4118,-2.4118,-2.4118,-2.4118,-2.4118,-2.4118,-2.4118,-2.4118,0.0,-2.3793,-2.2984,-2.2413,-2.1677,-2.033,-1.9011,-1.7659,-1.6091,-1.4194,-1.1859,-0.956,-0.9051,-0.9051,-0.9051,-0.9051,-0.9051,-0.9051,-0.9051,-0.9051,-0.9051,-0.9051,-0.9051,-0.9051,-0.9051,-0.9051,-5.6219,-5.612,-5.5386,-5.4546,-5.3747,-5.2892,-5.2077,-5.1431,-5.1431,-5.1431,-5.1431,-5.1431,-5.1431,-5.1431,-5.1431,0.0,-5.1431,-5.1431,-5.1431,-5.1299,-4.9781,-4.9054,-4.8893,-4.7329,-4.6473,-4.6405,-4.4952,-4.3597,-4.2321,-4.097,-3.9649,-3.834,-3.8323,-3.8323,-3.8323,-3.8323,-3.8323,-3.8323,-3.8323,-3.8323,-3.8323,-3.8323,-3.8323,-3.8323,-3.8323,-3.7874,-3.6882,-3.6811,-3.625,-3.5239,-3.6136,-3.6136,-3.4939,0.0,0.0,0.0,0.0,0.0,0.0,0.0,0.0,0.0,0.0,0.0,0.0,0.0,0.0,-2.604,-2.4789,0.0,-2.4118,-2.4118,0.0,0.0,0.0,-2.4118,-2.4118,-2.4118,-2.4118,-2.4118,0.0,0.0,-2.4118,-2.4118,-2.4118,-2.4118,-2.4118,-2.4118,-2.4118,-2.4118,-2.4118,-2.3793,-2.2746,-2.1414,-2.0052,-1.8696,-1.6691,-1.3526,-1.2623,-1.1762,-0.9659,-0.9051,-0.9051,-0.9051,-0.9051,-0.9051,-0.9051,-0.9051,-0.9051,-0.9051,-0.9051,-0.9051,-0.9051,-0.9051,-0.9051,-5.6219,-5.612,-5.5287,-5.4546,-5.3672,-5.2307,-5.1562,-5.1431,-5.1431,-5.1431,-5.1431,-5.1431,-5.1431,-5.1431,-5.1431,-5.1431,-5.1431,-5.1431,-5.1431,-5.1354,-5.096,-5.0444,-4.9759,-4.8791,-4.7916,-4.7203,-4.5232,-4.3597,-4.2321,-4.097,-3.9632,-3.834,-3.8323,-3.8323,-3.8323,-3.8323,-3.8323,-3.8323,-3.8323,-3.8323,-3.8323,-3.8323,-3.8323,-3.8323,-3.8323,-3.8203,-3.7926,-3.7943,-3.7401,-3.6322,-3.6539,-3.5786,-3.3823,-3.4819,0.0,0.0,0.0,0.0,0.0,0.0,0.0,0.0,0.0,-2.9695,-2.847,0.0,-2.7307,0.0,-2.4242,-2.4118,-2.4118,-2.4118,0.0,0.0,-2.4118,-2.4118,-2.4118,-2.4118,-2.4118,-2.4118,-2.4118,-2.4118,-2.4118,-2.4118,-2.4118,-2.4118,-2.4118,-2.4118,-2.4118,-2.4118,-2.3712,-2.2746,-2.1527,-2.0106,-1.8741,-1.743,-1.573,-1.3045,-1.2623,-1.1768,-0.946,-0.9051,-0.9051,-0.9051,-0.9051,-0.9051,-0.9051,-0.9051,-0.9051,-0.9051,-0.9051,-0.9051,-0.9051,-0.9051,-0.9051,-5.6219,-5.6146,-5.5361,-5.4546,-5.3747,-5.2459,-5.1716,-5.1431,-5.1431,-5.1431,-5.1431,-5.1431,-5.1431,-5.1431,-5.1431,-5.1431,-5.1431,-5.1431,-5.1431,-5.1354,-5.0993,-5.0591,-5.0065,-4.8871,-4.8086,-4.7467,-4.4722,-4.3063,-4.2216,-4.036,-3.9045,-3.8323,-3.8323,-3.8323,-3.8323,-3.8323,-3.8323,-3.8323,-3.8323,-3.8323,-3.8323,-3.8323,-3.8323,-3.8323,-3.8323,-3.8323,-3.8323,-3.8323,-3.8082,-3.7488,-3.7401,-3.6866,-3.5638,-3.612,-3.5786,0.0,0.0,0.0,0.0,0.0,0.0,0.0,0.0,0.0,0.0,0.0,-2.767,-2.5132,-2.4448,-2.4118,-2.4118,-2.4118,-2.4118,-2.4118,-2.4118,-2.4118,-2.4118,-2.4118,-2.4118,-2.4118,-2.4118,-2.4118,-2.4118,-2.4118,-2.4118,-2.4118,-2.4118,-2.4118,-2.4118,-2.4118,-2.363,-2.2246,-2.0941,-1.9405,-1.7551,-1.6594,-1.5282,-1.3171,-1.2623,-1.1864,-0.956,-0.9051,-0.9051,-0.9051,-0.9051,-0.9051,-0.9051,-0.9051,-0.9051,-0.9051,-0.9051,-0.9051,-0.9051,-0.9051,-0.9051,-5.6219,-5.612,-5.5435,-5.4645,-5.3747,-5.3068,-5.223,-5.1431,-5.1431,-5.1431,-5.1431,-5.1431,-5.1431,-5.1431,-5.1431,-5.1431,-5.1431,-5.1431,-5.1431,-5.1377,-5.0647,-5.0273,-5.0237,-4.8566,-4.7704,-4.7369,-4.4004,-4.2216,-4.1969,-3.9528,-3.8323,-3.8323,-3.8323,-3.8323,-3.8323,-3.8323,-3.8323,-3.8323,-3.8323,-3.8323,-3.8323,-3.8323,-3.8323,-3.8323,-3.8323,-3.8323,-3.8323,-3.8323,-3.8323,-3.8323,-3.8323,-3.8272,-3.8134,-3.8134,-3.7205,0.0,-3.503,0.0,0.0,0.0,0.0,0.0,0.0,0.0,0.0,-2.9469,-2.8482,-2.6388,-2.4903,-2.4118,-2.4118,-2.4118,-2.4118,-2.4118,-2.4118,-2.4118,-2.4118,-2.4118,-2.4118,-2.4118,-2.4118,-2.4118,-2.4118,-2.4118,-2.4118,-2.4118,-2.4118,-2.4118,-2.4118,-2.3864,-2.3313,-2.2162,-2.0778,-1.8866,-1.6807,-1.6182,-1.5394,-1.3384,-1.2731,-1.1864,-0.9763,-0.9249,-0.9051,-0.9051,-0.9051,-0.9051,-0.9051,-0.9051,-0.9051,-0.9051,-0.9051,-0.9051,-0.9051,-0.9051,-0.9051,-5.6219,-5.6219,-5.6072,-5.5164,-5.3822,-5.3672,-5.2764,-5.1431,-5.1431,-5.1431,-5.1431,-5.1431,-5.1431,-5.1431,-5.1431,-5.1431,-5.1431,-5.1431,-5.1431,-5.1431,-5.119,-5.1158,-5.1071,-4.9411,-4.8087,-4.6886,-4.3785,-4.1723,-4.0622,-3.9062,-3.8323,-3.8323,-3.8323,-3.8323,-3.8323,0.0,0.0,0.0,-3.8323,-3.8323,-3.8323,-3.8323,-3.8323,-3.8323,-3.8323,0.0,-3.8323,-3.8323,-3.8323,-3.8323,-3.8323,0.0,0.0,0.0,0.0,0.0,0.0,0.0,0.0,0.0,0.0,0.0,-3.1637,-3.1165,-2.9828,-2.7905,-2.6957,-2.7412,-2.5465,-2.4118,-2.4118,-2.4118,-2.4118,-2.4118,-2.4118,-2.4118,-2.4118,-2.4118,-2.4118,-2.4118,-2.4118,-2.4118,-2.4118,-2.4118,-2.4118,-2.4118,-2.4118,-2.4118,-2.4118,-2.3221,-2.2413,-2.1921,-2.0037,-1.8005,-1.6347,-1.6083,-1.5625,-1.4262,-1.3165,-1.2084,-1.0797,-0.9659,-0.9146,-0.9051,-0.9051,-0.9051,-0.9051,-0.9051,-0.9051,-0.9051,-0.9051,-0.9051,-0.9051,-0.9051,-0.9051,-5.6219,-5.6146,-5.5754,-5.4942,0.0,-5.337,-5.2535,-5.1431,-5.1431,-5.1431,-5.1431,-5.1431,-5.1431,-5.1431,-5.1684,-5.1798,-5.1798,-5.2028,-5.2143,-5.2143,-5.2143,-5.2166,-5.2087,-5.0143,-4.8691,-4.7423,-4.3985,-4.1709,-4.054,-3.9028,-3.8323,-3.8323,-3.8323,-3.8323,-3.8323,-3.8323,-3.8323,-3.8323,-3.8323,-3.8323,-3.8323,-3.8323,-3.8323,-3.8323,-3.8323,0.0,0.0,0.0,0.0,0.0,0.0,0.0,0.0,-3.7471,-3.6739,-3.5089,-3.503,-3.4256,-3.2682,-3.255,-3.2244,-3.1745,-3.1677,-3.1165,-2.9935,-2.8022,-2.6945,-2.6945,-2.5235,-2.4118,-2.4118,-2.4118,-2.4118,-2.4118,-2.4118,-2.4118,-2.4118,-2.4118,-2.4118,-2.4118,-2.4118,-2.4118,-2.4118,-2.4118,-2.4118,-2.4118,-2.4118,-2.4118,-2.4026,-2.3559,-2.2746,-2.1273,-1.8858,-1.6969,-1.6261,-1.6083,-1.5731,-1.449,-1.3384,-1.2191,-1.1114,-0.9963,-0.9051,-0.9051,-0.9051,-0.9051,-0.9051,-0.9051,-0.9158,-0.9199,-0.9212,-0.9228,-0.9256,-0.9203,-0.9051,-5.6219,-5.6146,-5.5533,-5.4645,-5.3747,-5.3068,-5.2307,-5.1431,-5.1431,0.0,0.0,-5.1431,-5.1477,-5.1592,-5.2005,-5.2212,-5.235,-5.2717,-5.2878,-5.2878,-5.2878,-5.2821,-5.2423,-5.0387,-4.8714,-4.7389,-4.386,-4.1629,-4.0491,-3.908,-3.8409,-3.834,-3.8323,-3.8323,-3.8323,-3.8323,-3.8323,-3.8323,-3.8323,-3.8323,-3.8323,-3.8323,-3.8323,-3.8323,-3.8323,-3.8323,-3.8323,-3.8323,-3.8323,-3.8323,-3.8323,-3.8323,-3.8323,-3.7926,-3.6938,-3.5164,-3.4607,-3.362,-3.1826,-3.1677,-3.1677,-3.1677,-3.1677,-3.1273,-3.0187,-2.8968,-2.767,-2.648,-2.5224,-2.4345,-2.4118,-2.4118,-2.4118,-2.4118,-2.4118,-2.4118,-2.4118,-2.4118,-2.4118,-2.4118,-2.4118,-2.4118,-2.4118,-2.4118,-2.4118,-2.4118,-2.4118,-2.4118,-2.4037,-2.3477,-2.2266,-2.0037,-1.7742,-1.6175,-1.6083,-1.6083,-1.5731,-1.4835,-1.3499,-1.2294,-1.1331,-1.0072,-0.9245,-0.9051,-0.9154,-0.9171,-0.9171,-0.9191,-0.9216,-0.9289,-0.9305,-0.9322,-0.9375,-0.9293,-0.9203,-5.6219,-5.6194,-5.6072,-5.5164,-5.3822,-5.3672,-5.2764,-5.1431,-5.1431,-5.1431,-5.1431,-5.1431,-5.1684,-5.2074,-5.2143,-5.2395,-5.2786,-5.2855,-5.2878,-5.2878,-5.2878,-5.2263,-5.1116,-4.93,-4.7153,-4.4698,-4.2627,-4.0772,-3.9321,-3.8975,-3.8666,-3.8357,-3.8323,-3.8323,-3.8323,-3.8323,-3.8323,-3.8323,-3.8323,-3.8323,-3.8323,-3.8323,-3.8323,-3.8323,-3.8323,-3.8323,-3.8323,-3.8323,-3.8323,-3.8323,-3.8323,-3.8323,-3.8254,-3.6612,-3.5298,-3.497,-3.3194,-3.2056,-3.1758,-3.1677,-3.1677,-3.1677,-3.1677,-3.165,-3.1421,-3.0294,-2.8968,-2.7763,-2.6376,-2.5247,-2.4334,-2.4118,-2.4118,-2.4118,-2.4118,-2.4118,-2.4118,-2.4118,-2.4118,-2.4118,-2.4118,-2.4118,-2.4118,-2.4118,-2.4118,-2.4118,-2.4118,-2.4118,-2.3793,-2.2098,-2.021,-1.86,-1.7137,-1.6268,-1.6083,-1.6083,-1.5956,-1.5857,-1.3938,-1.2515,-1.2084,-1.0495,-0.9163,-0.9051,-0.9212,-0.9256,-0.9261,-0.9322,-0.9359,-0.9387,-0.9391,-0.9399,-0.9424,-0.9391,-0.9367,-5.6219,-5.6146,-5.5754,-5.4868,-5.3747,-5.284,-5.21,-5.1431,-5.1431,-5.1592,-5.1821,-5.1821,-5.2097,-5.2579,-5.2878,-5.3107,-5.3337,-5.3589,-5.3704,-5.3704,-5.3704,-5.3381,-5.2651,-5.0487,-4.8188,-4.593,-4.3458,-4.1285,-3.961,-3.9128,-3.8837,-3.8648,-3.8443,-3.8323,-3.8323,-3.8323,-3.8323,-3.8323,-3.8323,-3.8323,-3.8323,-3.8323,-3.8323,-3.8323,-3.8323,-3.8323,-3.8323,-3.8323,-3.8323,-3.8323,-3.8323,-3.8323,-3.8254,-3.733,-3.6266,-3.5105,-3.404,-3.2985,-3.1745,-3.1677,-3.1677,-3.1677,-3.1677,-3.1677,-3.1677,-2.9922,-2.8588,-2.7881,-2.6145,-2.4778,-2.4129,-2.4118,-2.4118,-2.4118,-2.4118,-2.4118,-2.4118,-2.4118,-2.4118,-2.4118,-2.4118,-2.4118,-2.4118,-2.4118,-2.4118,-2.4118,-2.4118,-2.4118,-2.4037,-2.1865,-1.9863,-1.9107,-1.7493,-1.6261,-1.6083,-1.6083,-1.585,-1.5276,-1.3718,-1.2412,-1.1768,-1.0212,-0.9419,-0.9224,-0.9289,-0.9342,-0.935,-0.9379,-0.942,-0.9473,-0.9481,-0.9493,-0.9534,-0.9555,-0.9522,-5.6219,-5.6146,-5.5533,-5.4695,-5.3672,-5.21,-5.1431,-5.1431,-5.1546,-5.1867,-5.2281,-5.2235,-5.251,-5.3084,-5.352,-5.375,-5.3911,-5.4232,-5.4416,-5.4416,-5.4416,-5.423,-5.3633,-5.1114,-4.8787,-4.6895,-4.3871,-4.1533,-4.0056,-3.9436,-3.9077,-3.8905,-3.8529,-3.8323,-3.8323,-3.8323,-3.8323,-3.8323,-3.8323,-3.8323,-3.8323,-3.8323,-3.8323,-3.8323,-3.8323,-3.8323,-3.8323,-3.8323,-3.8323,-3.8323,-3.8323,-3.8323,-3.8323,-3.8065,-3.708,-3.5224,-3.4743,-3.3761,-3.1975,-3.1677,-3.1677,-3.1677,-3.1677,-3.1677,-3.1529,-2.9683,-2.814,-2.7763,-2.6249,-2.4892,-2.4232,-2.4118,-2.4118,-2.4118,-2.4118,-2.4118,-2.4118,-2.4118,-2.4118,-2.4118,-2.4118,-2.4118,-2.4118,-2.4118,-2.4118,-2.4118,-2.4118,-2.4118,-2.3793,-2.1771,-2.0288,-1.9618,-1.7832,-1.6261,-1.6083,-1.6083,-1.5618,-1.449,-1.3413,-1.2239,-1.1182,-1.0082,-0.9406,-0.9318,-0.9379,-0.9432,-0.9436,-0.9461,-0.9501,-0.9563,-0.9575,-0.9595,-0.9648,-0.9665,-0.964,-5.6219,-5.6219,-5.6072,-5.5164,-5.3672,-5.21,-5.1431,-5.15,-5.189,-5.2372,-5.2786,-5.2372,-5.274,-5.3543,-5.3681,-5.3934,-5.4301,-5.4393,-5.4416,-5.4416,-5.4416,-5.3738,-5.2492,-4.9386,-4.7007,-4.5521,-4.255,-4.0794,-4.007,-3.995,-3.9573,-3.894,-3.8529,-3.8323,-3.8323,-3.8323,-3.8323,-3.8323,-3.8323,-3.8323,-3.8323,-3.8323,-3.8323,-3.8323,-3.8323,-3.8323,-3.8323,-3.8323,-3.8323,-3.8323,-3.8323,-3.8323,-3.8186,-3.7401,-3.6338,-3.5089,-3.404,-3.2892,-3.1813,-3.1677,-3.1677,-3.1677,-3.1677,-3.1677,-3.1664,-3.0428,-2.9099,-2.8128,-2.7658,-2.6376,-2.4448,-2.4118,-2.4118,-2.4118,-2.4118,-2.4118,-2.4118,-2.4118,-2.4118,-2.4118,-2.4118,-2.4118,-2.4118,-2.4118,-2.4118,-2.4118,-2.4118,-2.4118,-2.3875,-2.1865,-2.0115,-1.9705,-1.7832,-1.6354,-1.6083,-1.6083,-1.5513,-1.4502,-1.3378,-1.2226,-1.107,-1.0069,-0.9395,-0.9408,-0.9469,-0.9526,-0.955,-0.9591,-0.9644,-0.964,-0.9653,-0.9669,-0.9681,-0.9681,-0.9657,-5.6219,-5.6219,-5.6219,-5.5238,-5.3723,-5.2612,-5.2032,-5.189,-5.2097,-5.2625,-5.3291,-5.3153,-5.3452,-5.4117,-5.4117,-5.4232,-5.4416,-5.4416,-5.4416,-5.4416,-5.4416,-5.4066,-5.3281,-5.0587,-4.8363,-4.6588,-4.3656,-4.1581,-4.0524,-4.0138,-3.9659,-3.8974,-3.8751,-3.8563,-3.834,-3.8323,-3.8323,-3.8323,-3.8323,-3.8323,-3.8323,-3.8323,-3.8323,-3.8323,-3.8323,-3.8323,-3.8323,-3.8323,-3.8323,-3.8323,-3.8323,-3.8323,-3.8323,-3.7874,-3.7135,-3.599,-3.4241,-3.2827,-3.1745,-3.1677,-3.1677,-3.1677,-3.1677,-3.1677,-3.1664,-3.1178,-3.0415,-2.9099,-2.7658,-2.6029,-2.4448,-2.4118,-2.4118,-2.4118,-2.4118,-2.4118,-2.4118,-2.4118,-2.4118,-2.4118,-2.4118,-2.4118,-2.4118,-2.4118,-2.4118,-2.4118,-2.4118,-2.4118,-2.3956,-2.1771,-2.0279,-1.9784,-1.7832,-1.6354,-1.6083,-1.6083,-1.5314,-1.3929,-1.3001,-1.217,-1.0517,-0.9853,-0.9485,-0.9489,-0.9559,-0.9612,-0.9624,-0.9644,-0.9681,-0.9681,-0.9681,-0.9681,-0.9681,-0.9681,-0.9681,-5.6219,-5.6146,-5.5779,-5.4868,-5.3747,-5.2688,-5.2225,-5.2244,-5.2304,-5.2878,-5.3658,-5.3819,-5.4094,-5.437,-5.4416,-5.4416,-5.4416,-5.4416,-5.4416,-5.4416,-5.4416,-5.4416,-5.4066,-5.1095,-4.887,-4.7195,-4.41,-4.1922,-4.0623,-4.0224,-3.9762,-3.9265,-3.9025,-3.8768,-3.8512,-3.8392,-3.8323,-3.8323,-3.8323,-3.8323,-3.8323,-3.8323,-3.8323,-3.8323,-3.8323,-3.8323,-3.8323,-3.8323,-3.8323,-3.8323,-3.8323,-3.8323,-3.8323,-3.8323,-3.7665,-3.6266,-3.4394,-3.2827,-3.1745,-3.1677,-3.1677,-3.1677,-3.1677,-3.1677,-3.1677,-3.1677,-3.1152,-2.9828,-2.7775,-2.604,-2.4892,-2.4334,-2.4118,-2.4118,-2.4118,-2.4118,-2.4118,-2.4118,-2.4118,-2.4118,-2.4118,-2.4118,-2.4118,-2.4118,-2.4118,-2.4118,-2.4118,-2.3875,-2.3395,-2.1612,-1.995,-1.953,-1.7478,-1.6254,-1.6083,-1.6083,-1.5017,-1.3551,-1.2721,-1.203,-0.9964,-0.9625,-0.9579,-0.9587,-0.9648,-0.9669,-0.9661,-0.9673,-0.9681,-0.9681,-0.9681,-0.9681,-0.9681,-0.9681,-0.9681,-5.6219,-5.5999,-5.457,-5.3972,-5.3672,-5.2277,-5.1807,-5.2258,-5.2671,-5.3199,-5.375,-5.4163,-5.4393,-5.4416,-5.4416,-5.4416,-5.4416,-5.4416,-5.4416,-5.4416,-5.4416,-5.4416,-5.4066,-4.985,-4.7606,-4.7175,-4.3122,-4.0856,-4.0549,-4.0241,-4.0018,-3.9933,-3.9316,-3.894,-3.882,-3.8529,-3.834,-3.8323,-3.8323,-3.8323,-3.8323,-3.8323,-3.8323,-3.8323,-3.8323,-3.8323,-3.8323,-3.8323,-3.8323,-3.8323,-3.8323,-3.8323,-3.8323,-3.8254,-3.726,-3.5298,-3.3963,-3.2827,-3.1894,-3.1677,-3.1677,-3.1677,-3.1677,-3.1677,-3.1677,-3.1677,-3.1165,-2.9935,-2.8494,-2.7178,-2.5914,-2.4675,-2.4118,-2.4118,-2.4118,-2.4118,-2.4118,-2.4118,-2.4118,-2.4118,-2.4118,-2.4118,-2.4118,-2.4118,-2.4118,-2.4118,-2.4118,-2.3712,-2.2506,-2.1026,-1.9793,-1.8429,-1.7137,-1.6083,-1.6083,-1.6083,-1.5116,-1.3574,-1.2588,-1.2127,-1.0708,-0.9604,-0.964,-0.9669,-0.9673,-0.9677,-0.9681,-0.9681,-0.9681,-0.9681,-0.9681,-0.9681,-0.9681,-0.9681,-0.9681,-5.6219,-5.6146,-5.5607,-5.4794,-5.3771,-5.3499,-5.3155,-5.275,-5.3176,-5.3681,-5.4117,-5.4347,-5.4416,-5.4416,-5.4416,-5.4416,-5.4416,-5.4416,-5.4416,-5.4416,-5.4416,-5.4416,-5.3984,-5.0294,-4.8037,-4.7002,-4.3478,-4.1127,-4.0657,-4.0446,-4.0258,-4.0036,-3.9779,-3.9419,-3.8974,-3.8785,-3.8597,-3.8357,-3.8323,-3.8323,-3.8323,-3.8323,-3.8323,-3.8323,-3.8323,-3.8323,-3.8323,-3.8323,-3.8323,-3.8323,-3.8323,-3.8323,-3.8254,-3.7681,-3.6595,-3.5089,-3.3886,-3.2827,-3.1894,-3.1677,-3.1677,-3.1677,-3.1677,-3.1677,-3.1677,-3.1664,-3.1165,-2.9935,-2.8612,-2.7412,-2.6133,-2.4892,-2.4118,-2.4118,-2.4118,-2.4118,-2.4118,-2.4118,-2.4118,-2.4118,-2.4118,-2.4118,-2.4118,-2.4118,-2.4118,-2.4118,-2.4118,-2.3477,-2.2256,-2.095,-1.953,-1.8258,-1.6954,-1.6083,-1.6083,-1.6083,-1.5459,-1.3843,-1.2647,-1.1659,-1.0445,-0.9744,-0.9673,-0.9673,-0.9681,-0.9681,-0.9681,-0.9681,-0.9681,-0.9681,-0.9681,-0.9681,-0.9681,-0.9681,-0.9681,-5.6219,-5.6146,-5.5901,-5.5016,-5.3894,-5.4095,-5.367,-5.3003,-5.3475,-5.3957,-5.4347,-5.4416,-5.4416,-5.4416,-5.4416,-5.4416,-5.4416,-5.4416,-5.4416,-5.4416,-5.4416,-5.4171,-5.3303,-5.0378,-4.8143,-4.6501,-4.3229,-4.1218,-4.0674,-4.0583,-4.0446,-4.0224,-4.0104,-3.9796,-3.9316,-3.9059,-3.8768,-3.8546,-3.8409,-3.8323,-3.8323,-3.8323,-3.8323,-3.8323,-3.8323,-3.8323,-3.8323,-3.8323,-3.8323,-3.8323,-3.8323,-3.8117,-3.7734,-3.708,-3.599,-3.4607,-3.3761,-3.2827,-3.1894,-3.1677,-3.1677,-3.1677,-3.1677,-3.1677,-3.1677,-3.1677,-3.1044,-2.9935,-2.8612,-2.7412,-2.6145,-2.4892,-2.4118,-2.4118,-2.4118,-2.4118,-2.4118,-2.4118,-2.4118,-2.4118,-2.4118,-2.4118,-2.4118,-2.4118,-2.4118,-2.4118,-2.3793,-2.2901,-2.1602,-2.0279,-1.8939,-1.775,-1.6694,-1.6169,-1.6083,-1.6083,-1.528,-1.3661,-1.2857,-1.1773,-1.058,-0.9982,-0.9681,-0.9681,-0.9681,-0.9681,-0.9681,-0.9681,-0.9681,-0.9681,-0.9681,-0.9681,-0.9681,-0.9681,-0.9681,-5.6219,-5.612,-5.5361,-5.4669,-5.3891,-5.3731,-5.3327,-5.3072,-5.352,-5.4026,-5.4393,-5.4416,-5.4416,-5.4416,-5.4416,-5.4416,-5.4416,-5.4416,-5.4416,-5.4416,-5.4416,-5.3738,-5.2453,-5.004,-4.754,-4.5316,-4.2174,-4.0674,-4.0583,-4.0583,-4.0549,-4.0498,-4.0224,-4.0036,-3.9984,-3.9351,-3.8974,-3.8854,-3.858,-3.8375,-3.834,-3.834,-3.8323,-3.8323,-3.8323,-3.8323,-3.8323,-3.8323,-3.8323,-3.8323,-3.8323,-3.7804,-3.7025,-3.6644,-3.5669,-3.3838,-3.3244,-3.2682,-3.1908,-3.1677,-3.1677,-3.1677,-3.1677,-3.1677,-3.1677,-3.1664,-3.1152,-2.9695,-2.8588,-2.7388,-2.6029,-2.4789,-2.4118,-2.4118,-2.4118,-2.4118,-2.4118,-2.4118,-2.4118,-2.4118,-2.4118,-2.4118,-2.4118,-2.4118,-2.4118,-2.3956,-2.3066,-2.1846,-2.0625,-1.9275,-1.7742,-1.6609,-1.6268,-1.6175,-1.6083,-1.5977,-1.4676,-1.3573,-1.3073,-1.2274,-1.058,-0.9681,-0.9681,-0.9681,-0.9681,-0.9681,-0.9681,-0.9681,-0.9681,-0.9681,-0.9681,-0.9681,-0.9681,-0.9681,-0.9681,-5.6219,-5.6219,-5.5901,-5.5237,-5.4475,-5.4645,-5.4234,-5.3555,-5.398,-5.4278,-5.4393,-5.4416,-5.4416,-5.4416,-5.4416,-5.4416,-5.4416,-5.4416,-5.4416,-5.4416,-5.4416,-5.3655,-5.2121,-4.9955,-4.6848,-4.3408,-4.1471,-4.0583,-4.0583,-4.0583,-4.0583,-4.0549,-4.0464,-4.0275,-4.0053,-3.9796,-3.9573,-3.9282,-3.8922,-3.8734,-3.87,-3.846,-3.8323,-3.8323,-3.8323,-3.8323,-3.8323,-3.8323,-3.8323,-3.8323,-3.8323,-3.7804,-3.6843,-3.5973,-3.4863,-3.3507,-3.2537,-3.211,-3.1826,-3.1677,-3.1677,-3.1677,-3.1677,-3.1677,-3.1677,-3.1677,-3.0776,-2.8943,-2.8055,-2.7083,-2.5202,-2.4345,-2.4118,-2.4118,-2.4118,-2.4118,-2.4118,-2.4118,-2.4118,-2.4118,-2.4118,-2.4118,-2.4118,-2.4118,-2.4118,-2.3967,-2.2911,-2.1527,-2.0288,-1.8866,-1.7667,-1.6439,-1.6261,-1.6083,-1.6083,-1.5877,-1.4975,-1.3672,-1.3073,-1.2174,-1.058,-0.9681,-0.9681,-0.9681,-0.9681,-0.9681,-0.9681,-0.9681,-0.9681,-0.9681,-0.9681,-0.9681,-0.9681,-0.9681,-0.9681,-5.6219,-5.6219,-5.6219,-5.5559,-5.4716,-5.5092,-5.4705,-5.3888,-5.4209,-5.4416,-5.4416,-5.4416,-5.4416,-5.4416,-5.4416,-5.4416,-5.4416,-5.4416,-5.4416,-5.4252,-5.382,-5.2973,-5.1285,-4.8249,-4.5579,-4.2801,-4.1218,-4.0583,-4.0583,-4.0583,-4.0583,-4.0583,-4.0583,-4.0481,-4.0241,-4.0087,-3.9899,-3.9642,-3.9299,-3.9111,-3.9042,-3.8734,-3.8546,-3.8529,-3.8409,-3.8323,-3.8323,-3.8323,-3.8323,-3.8323,-3.8323,-3.7804,-3.6772,-3.5661,-3.4481,-3.3379,-3.2404,-3.1664,-3.1677,-3.1677,-3.1677,-3.1677,-3.1677,-3.1677,-3.1677,-3.1677,-3.0548,-2.8457,-2.7889,-2.6839,-2.4664,-2.4118,-2.4118,-2.4118,-2.4118,-2.4118,-2.4118,-2.4118,-2.4118,-2.4118,-2.4118,-2.4118,-2.4118,-2.4118,-2.4161,-2.396,-2.2556,-2.1243,-2.001,-1.8469,-1.7243,-1.6354,-1.6169,-1.6083,-1.6083,-1.5678,-1.5081,-1.3978,-1.2973,-1.1673,-1.0279,-0.9882,-0.9681,-0.9681,-0.9681,-0.9681,-0.9681,-0.9681,-0.9681,-0.9681,-0.9681,-0.9681,-0.9681,-0.9681,-0.9681,-5.6219,-5.6219,-5.6244,-5.5633,-5.4812,-5.5188,-5.48,-5.3934,-5.4209,-5.4416,-5.4416,-5.4416,-5.4416,-5.4416,-5.4416,-5.4416,-5.4416,-5.4416,-5.4416,-5.3984,-5.2973,-5.1558,-4.987,-4.6036,-4.3871,-4.3069,-4.1471,-4.0674,-4.0583,-4.0583,-4.0583,-4.0583,-4.0583,-4.0583,-4.0481,-4.0224,-4.0087,-4.0018,-3.9693,-3.9505,-3.947,-3.9145,-3.894,-3.894,-3.8648,-3.846,-3.8426,-3.8357,-3.8323,-3.8323,-3.8323,-3.7718,-3.6595,-3.5521,-3.4453,-3.3194,-3.2177,-3.1826,-3.1677,-3.1677,-3.1677,-3.1677,-3.1677,-3.1677,-3.1677,-3.165,-3.0655,-2.8234,-2.7901,-2.6851,-2.4767,-2.4118,-2.4118,-2.4118,-2.4118,-2.4118,-2.4118,-2.4118,-2.4118,-2.4118,-2.4118,-2.4118,-2.4129,-2.414,-2.4258,-2.3944,-2.2179,-2.0682,-1.9868,-1.8466,-1.663,-1.6083,-1.6083,-1.6083,-1.6083,-1.5983,-1.528,-1.3772,-1.2774,-1.1673,-1.038,-0.9882,-0.9681,-0.9681,-0.9681,-0.9681,-0.9681,-0.9681,-0.9681,-0.9681,-0.9681,-0.9681,-0.9681,-0.9681,-0.9681,-5.6219,-5.6244,-5.6646,-5.6152,-5.5241,-5.5668,-5.5225,-5.4268,-5.4347,-5.4416,-5.4416,-5.4416,-5.4416,-5.4416,-5.4416,-5.4416,-5.4416,-5.4416,-5.4416,-5.3984,-5.1976,-5.021,-4.8417,-4.5266,-4.3337,-4.3069,-4.1471,-4.0583,-4.0583,-4.0583,-4.0583,-4.0583,-4.0583,-4.0583,-4.0549,-4.0464,-4.0446,-4.0395,-4.007,-3.9881,-3.983,-3.9522,-3.9333,-3.9316,-3.9196,-3.9008,-3.8768,-3.8477,-3.8323,-3.8323,-3.8323,-3.7401,-3.5801,-3.5182,-3.4216,-3.2578,-3.1975,-3.1677,-3.1677,-3.1677,-3.1677,-3.1677,-3.1677,-3.1677,-3.1677,-3.1677,-3.0428,-2.8575,-2.7901,-2.6851,-2.4756,-2.4118,-2.4118,-2.4118,-2.4118,-2.4118,-2.4118,-2.4118,-2.4118,-2.4118,-2.4118,-2.4118,-2.4172,-2.4258,-2.4398,-2.406,-2.2315,-2.0351,-1.989,-1.8136,-1.6083,-1.6083,-1.6083,-1.6083,-1.6083,-1.6083,-1.5379,-1.3573,-1.2574,-1.1773,-1.058,-0.9782,-0.9681,-0.9681,-0.9681,-0.9681,-0.9681,-0.9681,-0.9681,-0.9681,-0.9681,-0.9681,-0.9681,-0.9681,-0.9681,-5.6219,-5.6244,-5.6796,-5.6374,-5.5433,-5.586,-5.5437,-5.4592,-5.4416,-5.4416,-5.4416,-5.4416,-5.4416,-5.4416,-5.4416,-5.4416,-5.4416,-5.4416,-5.4416,-5.3984,-5.1642,-4.9188,-4.686,-4.4314,-4.3177,-4.264,-4.1291,-4.0674,-4.0583,-4.0583,-4.0583,-4.0583,-4.0583,-4.0583,-4.0583,-4.0583,-4.0583,-4.0532,-4.0361,-4.0258,-4.0241,-3.9899,-3.9727,-3.9659,-3.9573,-3.9351,-3.9128,-3.8922,-3.8683,-3.8426,-3.8272,-3.7471,-3.5948,-3.5242,-3.4202,-3.247,-3.1962,-3.1677,-3.1677,-3.1677,-3.1677,-3.1677,-3.1677,-3.1677,-3.1677,-3.1664,-3.0655,-2.8352,-2.7913,-2.6619,-2.4756,-2.4118,-2.4118,-2.4118,-2.4118,-2.4118,-2.4118,-2.4118,-2.4118,-2.4118,-2.4118,-2.4172,-2.4269,-2.4409,-2.456,-2.4177,-2.2193,-2.1108,-2.0251,-1.7803,-1.6083,-1.6083,-1.6083,-1.6083,-1.5877,-1.5778,-1.5081,-1.3373,-1.1778,-1.1177,-1.0681,-0.9681,-0.9681,-0.9681,-0.9681,-0.9681,-0.9681,-0.9681,-0.9681,-0.9681,-0.9681,-0.9681,-0.9681,-0.9681,-0.9681,-5.6219,-5.6269,-5.6872,-5.6498,-5.5612,-5.5932,-5.5588,-5.4673,-5.4416,-5.4416,-5.4416,-5.4416,-5.4416,-5.4416,-5.4416,-5.4416,-5.4416,-5.4416,-5.3984,-5.3161,-5.1222,-4.8675,-4.5412,-4.4067,-4.2998,-4.2102,-4.1037,-4.0674,-4.0583,-4.0583,-4.0583,-4.0583,-4.0583,-4.0583,-4.0583,-4.0583,-4.0583,-4.0583,-4.0549,-4.0515,-4.0481,-4.0241,-4.0104,-4.0036,-3.9744,-3.959,-3.9522,-3.9402,-3.9145,-3.8494,-3.8271,-3.7467,-3.6443,-3.5373,-3.4179,-3.3129,-3.211,-3.1677,-3.1677,-3.1677,-3.1677,-3.1677,-3.1677,-3.1677,-3.1664,-3.1421,-3.0307,-2.8116,-2.7784,-2.6399,-2.4653,-2.4118,-2.4118,-2.4118,-2.4118,-2.4118,-2.4118,-2.4118,-2.4118,-2.4129,-2.4129,-2.4301,-2.4441,-2.4581,-2.4689,-2.4662,-2.2645,-2.1119,-1.9928,-1.7924,-1.6573,-1.6083,-1.6083,-1.6083,-1.5778,-1.5479,-1.4476,-1.3179,-1.1177,-1.0179,-1.0179,-0.9681,-0.9681,-0.9681,-0.9681,-0.9681,-0.9681,-0.9681,-0.9681,-0.9681,-0.9681,-0.9681,-0.9681,-0.9681,-0.9681,-5.6219,-5.6294,-5.7298,-5.7172,-5.648,-5.6631,-5.6295,-5.5368,-5.4661,-5.4416,-5.4416,-5.4416,-5.4416,-5.4416,-5.4416,-5.4416,-5.4416,-5.4334,-5.3408,-5.1244,-5.0801,-4.8331,-4.5324,-4.3889,-4.2909,-4.1922,-4.1037,-4.0583,-4.0583,-4.0583,-4.0583,-4.0583,-4.0583,-4.0583,-4.0583,-4.0583,-4.0583,-4.0583,-4.0583,-4.0583,-4.0583,-4.0515,-4.0429,-4.0395,-4.0104,-3.9933,-3.9847,-3.9625,-3.9385,-3.9001,-3.8053,-3.6861,-3.5614,-3.4409,-3.3258,-3.2404,-3.1975,-3.1677,-3.1677,-3.1677,-3.1677,-3.1677,-3.1677,-3.1677,-3.165,-3.0789,-2.9576,-2.801,-2.7038,-2.5879,-2.4437,-2.4118,-2.4118,-2.4118,-2.4118,-2.4118,-2.4118,-2.4118,-2.4118,-2.4161,-2.428,-2.442,-2.4517,-2.485,-2.4917,-2.479,-2.3255,-2.1129,-1.9503,-1.7954,-1.6871,-1.6083,-1.6083,-1.6083,-1.5778,-1.518,-1.3878,-1.2779,-1.0881,-0.9681,-0.9681,-0.9681,-0.9681,-0.9681,-0.9681,-0.9681,-0.9681,-0.9681,-0.9681,-0.9681,-0.9681,-0.9681,-0.9681,-0.9681,-0.9681,-5.6344,-5.6696,-5.7524,-5.7573,-5.7029,-5.703,-5.6494,-5.5611,-5.4719,-5.4416,-5.4416,-5.4416,-5.4416,-5.4416,-5.4416,-5.4416,-5.4416,-5.4334,-5.2995,-5.097,-5.0231,-4.8331,-4.5324,-4.3889,-4.2909,-4.2029,-4.1037,-4.0674,-4.0583,-4.0583,-4.0583,-4.0583,-4.0583,-4.0583,-4.0583,-4.0583,-4.0583,-4.0583,-4.0583,-4.0583,-4.0583,-4.0583,-4.0583,-4.0566,-4.0395,-4.0292,-4.0258,-4.0121,-3.9541,-3.8635,-3.7424,-3.6336,-3.5213,-3.3988,-3.2841,-3.1989,-3.1677,-3.1677,-3.1677,-3.1677,-3.1677,-3.1677,-3.1677,-3.1677,-3.1421,-3.0548,-2.9218,-2.801,-2.6724,-2.5465,-2.4334,-2.4118,-2.4118,-2.4118,-2.4118,-2.4151,-2.4226,-2.4183,-2.4183,-2.428,-2.4409,-2.4573,-2.4799,-2.5098,-2.5216,-2.5131,-2.2732,-2.0683,-1.9905,-1.8343,-1.6871,-1.6083,-1.6083,-1.6083,-1.5778,-1.4975,-1.3473,-1.2179,-1.0681,-0.9882,-0.9681,-0.9681,-0.9681,-0.9681,-0.9681,-0.9681,-0.9681,-0.9681,-0.9681,-0.9681,-0.9681,-0.9681,-0.9681,-0.9681,-0.9681,-5.652,-5.6998,-5.765,-5.7798,-5.7552,-5.7206,-5.6574,-5.5852,-5.4824,-5.4416,-5.4416,-5.4416,-5.4416,-5.4416,-5.4416,-5.4416,-5.4334,-5.3902,-5.2476,-5.0633,-4.9955,-4.79,-4.5324,-4.3889,-4.2909,-4.1939,-4.1037,-4.0674,-4.0583,-4.0583,-4.0583,-4.0583,-4.0583,-4.0583,-4.0583,-4.0583,-4.0583,-4.0583,-4.0583,-4.0583,-4.0583,-4.0583,-4.0583,-4.0566,-4.0549,-4.0515,-4.0515,-4.039,-3.9762,-3.8045,-3.6713,-3.5944,-3.5069,-3.3886,-3.2762,-3.1758,-3.1677,-3.1677,-3.1677,-3.1677,-3.1677,-3.1677,-3.1677,-3.1677,-3.1421,-3.0294,-2.8968,-2.7775,-2.6503,-2.5132,-2.4232,-2.4118,-2.414,-2.4172,-2.4172,-2.4269,-2.4409,-2.4334,-2.4398,-2.4527,-2.4667,-2.4883,-2.5003,-2.5196,-2.5389,-2.4969,-2.2545,-2.0603,-1.9914,-1.854,-1.6871,-1.6083,-1.6083,-1.6083,-1.5884,-1.4576,-1.3073,-1.2079,-1.0681,-0.9982,-0.9681,-0.9681,-0.9681,-0.9681,-0.9681,-0.9681,-0.9681,-0.9681,-0.9681,-0.9681,-0.9681,-0.9681,-0.9681,-0.9681,-0.9681,-5.652,-5.7072,-5.765,-5.8127,-5.8295,-5.7388,-5.6893,-5.6574,-5.5044,-5.4416,-5.4416,-5.4416,-5.4416,-5.4416,-5.4416,-5.4416,-5.4066,-5.3303,-5.1976,-5.021,-4.9274,-4.7314,-4.5236,-4.3889,-4.2909,-4.1922,-4.1127,-4.0583,-4.0583,-4.0583,-4.0583,-4.0583,-4.0583,-4.0583,-4.0583,-4.0583,-4.0583,-4.0583,-4.0583,-4.0583,-4.0583,-4.0583,-4.0583,-4.0583,-4.0583,-4.0583,-4.0583,-4.0493,-3.9913,-3.8386,-3.693,-3.5539,-3.419,-3.2769,-3.207,-3.1745,-3.1677,-3.1677,-3.1677,-3.1677,-3.1677,-3.1677,-3.1677,-3.1677,-3.1178,-2.9708,-2.8319,-2.7273,-2.5855,-2.4367,-2.4129,-2.4183,-2.4237,-2.4334,-2.442,-2.4495,-2.4667,-2.471,-2.47,-2.4818,-2.4958,-2.5066,-2.5249,-2.5292,-2.5453,-2.4699,-2.2554,-2.1094,-2.0406,-1.8639,-1.6474,-1.6083,-1.6083,-1.6083,-1.6083,-1.4377,-1.2774,-1.2179,-1.0982,-0.9982,-0.9681,-0.9681,-0.9681,-0.9681,-0.9681,-0.9681,-0.9681,-0.9681,-0.9681,-0.9681,-0.9681,-0.9681,-0.9681,-0.9681,-0.9681,-5.6721,-5.7499,-5.7801,-5.8378,-5.8773,-5.7588,-5.6973,-5.6734,-5.5206,-5.4416,-5.4416,-5.4416,-5.4416,-5.4416,-5.4416,-5.4066,-5.3303,-5.2807,-5.1222,-4.953,-4.8503,-4.7054,-4.4971,-4.3889,-4.2909,-4.2012,-4.1127,-4.0583,-4.0583,-4.0583,-4.0583,-4.0583,-4.0583,-4.0583,-4.0583,-4.0583,-4.0583,-4.0583,-4.0583,-4.0583,-4.0583,-4.0583,-4.0583,-4.0583,-4.0583,-4.0583,-4.0493,-3.9673,-3.8742,-3.7238,-3.5756,-3.4276,-3.3069,-3.2232,-3.1677,-3.1677,-3.1677,-3.1677,-3.1677,-3.1677,-3.1677,-3.1677,-3.1677,-3.1677,-3.1096,-2.9583,-2.7663,-2.6361,-2.572,-2.4474,-2.4495,-2.4452,-2.4527,-2.4603,-2.4646,-2.4753,-2.4926,-2.499,-2.5044,-2.5087,-2.512,-2.5216,-2.5346,-2.5453,-2.5496,-2.4341,-2.2466,-2.1585,-2.0897,-1.854,-1.6083,-1.6083,-1.6083,-1.5778,-1.5578,-1.4083,-1.2579,-1.1979,-1.1177,-1.0079,-0.9681,-0.9681,-0.9681,-0.9681,-0.9681,-0.9681,-0.9681,-0.9681,-0.9681,-0.9681,-0.9681,-0.9681,-0.9681,-0.9681,-0.9681,-5.6872,-5.7901,-5.7901,-5.8529,-5.9175,-5.7686,-5.6973,-5.6654,-5.5125,-5.4416,-5.4416,-5.4416,-5.4416,-5.4416,-5.4252,-5.3738,-5.2476,-5.2204,-5.0548,-4.876,-4.792,-4.6619,-4.4864,-4.38,-4.2819,-4.1579,-4.1037,-4.0583,-4.0583,-4.0583,-4.0583,-4.0583,-4.0583,-4.0583,-4.0583,-4.0583,-4.0583,-4.0583,-4.0583,-4.0583,-4.0583,-4.0583,-4.0583,-4.0583,-4.0583,-4.0583,-4.0493,-3.9308,-3.7807,-3.6313,-3.4838,-3.3257,-3.2043,-3.1677,-3.1677,-3.1677,-3.1677,-3.1677,-3.1677,-3.1677,-3.1677,-3.1677,-3.1677,-3.1582,-3.0743,-2.909,-2.7038,-2.5334,-2.4786,-2.4753,-2.4732,-2.4775,-2.4818,-2.4872,-2.4893,-2.4958,-2.5152,-2.526,-2.5303,-2.5324,-2.5303,-2.5335,-2.5443,-2.5475,-2.5518,-2.4535,-2.276,-2.1388,-2.0406,-1.7954,-1.6182,-1.6083,-1.5977,-1.5479,-1.4881,-1.3895,-1.259,-1.1583,-1.0781,-0.9882,-0.9681,-0.9681,-0.9681,-0.9681,-0.9681,-0.9681,-0.9681,-0.9681,-0.9681,-0.9681,-0.9681,-0.9681,-0.9681,-0.9681,-0.9681,-5.6872,-5.7901,-5.7901,-5.8529,-5.9175,-5.7686,-5.6973,-5.6813,-5.5125,-5.4416,-5.4416,-5.4416,-5.4416,-5.4416,-5.4334,-5.355,-5.2392,-5.1032,-4.97,-4.8093,-4.7141,-4.5656,-4.3871,-4.3515,-4.2371,-4.12,-4.0765,-4.0583,-4.0583,-4.0583,-4.0583,-4.0583,-4.0583,-4.0583,-4.0583,-4.0583,-4.0583,-4.0583,-4.0583,-4.0583,-4.0583,-4.0583,-4.0583,-4.0583,-4.0583,-4.0493,-4.022,-3.8926,-3.7439,-3.6034,-3.4557,-3.3163,-3.2043,-3.1677,-3.1677,-3.1677,-3.1677,-3.1677,-3.1677,-3.1677,-3.1677,-3.1677,-3.1677,-3.1189,-3.0064,-2.8391,-2.6538,-2.5018,-2.4829,-2.4872,-2.4893,-2.485,-2.4937,-2.5044,-2.513,-2.5238,-2.5399,-2.5389,-2.5453,-2.5464,-2.541,-2.5432,-2.5507,-2.5507,-2.5421,-2.4341,-2.316,-2.1683,-2.0012,-1.7657,-1.6182,-1.6083,-1.5877,-1.5479,-1.4377,-1.339,-1.2289,-1.1282,-1.0485,-0.9681,-0.9681,-0.9681,-0.9681,-0.9681,-0.9681,-0.9681,-0.9681,-0.9681,-0.9681,-0.9681,-0.9681,-0.9681,-0.9681,-0.9681,-0.9681,-5.7148,-5.7926,-5.8227,-5.8805,-5.9226,-5.7686,-5.6973,-5.6654,-5.5125,-5.4416,-5.4416,-5.4416,-5.4416,-5.4334,-5.3738,-5.2476,-5.1222,-4.9955,-4.8523,-4.7488,-4.6464,-4.5236,-4.3782,-4.3248,-4.2353,-4.1019,-4.0583,-4.0583,-4.0583,-4.0583,-4.0583,-4.0583,-4.0583,-4.0583,-4.0583,-4.0583,-4.0583,-4.0583,-4.0583,-4.0583,-4.0583,-4.0583,-4.0583,-4.0583,-4.0583,-4.022,-3.92,-3.7899,-3.6421,-3.4932,-3.3445,-3.2421,-3.1853,-3.1677,-3.1677,-3.1677,-3.1677,-3.1677,-3.1677,-3.1677,-3.1677,-3.1677,-3.1569,-3.0998,-2.9434,-2.7817,-2.6382,-2.5323,-2.5216,-2.5195,-2.5184,-2.5206,-2.526,-2.5335,-2.5335,-2.5389,-2.5475,-2.5496,-2.5507,-2.5518,-2.5518,-2.5518,-2.5518,-2.5518,-2.5421,-2.473,-2.316,-2.1192,-1.9717,-1.7855,-1.6672,-1.6083,-1.5778,-1.5479,-1.4177,-1.2979,-1.1884,-1.0881,-1.0284,-0.9681,-0.9681,-0.9681,-0.9681,-0.9681,-0.9681,-0.9681,-0.9681,-0.9681,-0.9681,-0.9681,-0.9681,-0.9681,-0.9681,-0.9681,-0.9681,-5.7499,-5.7951,-5.8478,-5.9031,-5.9328,-5.7686,-5.6973,-5.6813,-5.5125,-5.4416,-5.4416,-5.4416,-5.4416,-5.4252,-5.3408,-5.2309,-5.04,-4.9274,-4.7834,-4.6813,-4.6026,-4.5147,-4.3978,-4.3248,-4.2461,-4.0583,-4.0583,-4.0583,-4.0583,-4.0583,-4.0583,-4.0583,-4.0583,-4.0583,-4.0583,-4.0583,-4.0583,-4.0583,-4.0583,-4.0583,-4.0583,-4.0583,-4.0583,-4.0583,-4.0493,-3.993,-3.8467,-3.6961,-3.5476,-3.4089,-3.2597,-3.1853,-3.1677,-3.1677,-3.1677,-3.1677,-3.1677,-3.1677,-3.1677,-3.1677,-3.1677,-3.1569,-3.0903,-2.9937,-2.85,-2.7345,-2.6476,-2.5464,-2.5464,-2.5475,-2.5507,-2.5496,-2.5475,-2.5464,-2.5486,-2.5507,-2.5518,-2.5518,-2.5518,-2.5518,-2.5518,-2.5518,-2.5518,-2.5518,-2.5324,-2.5032,-2.3355,-2.0897,-1.9034,-1.7459,-1.6871,-1.6083,-1.5877,-1.528,-1.3878,-1.2574,-1.1478,-1.058,-0.9982,-0.9681,-0.9681,-0.9681,-0.9681,-0.9681,-0.9681,-0.9681,-0.9681,-0.9681,-0.9681,-0.9681,-0.9681,-0.9681,-0.9681,-0.9681,-0.9681,-5.7851,-5.7951,-5.8504,-5.9031,-5.9431,-5.7686,-5.7052,-5.6813,-5.5206,-5.4498,-5.4416,-5.4416,-5.4416,-5.4171,-5.3573,-5.2309,-5.0316,-5.0316,-4.8437,-4.69,-4.6114,-4.5128,-4.396,-4.3159,-4.2461,-4.0856,-4.0583,-4.0583,-4.0583,-4.0583,-4.0583,-4.0583,-4.0583,-4.0583,-4.0583,-4.0583,-4.0583,-4.0583,-4.0583,-4.0583,-4.0583,-4.0583,-4.0583,-4.0583,-4.0493,-3.993,-3.8375,-3.6684,-3.5103,-3.3634,-3.2421,-3.1758,-3.1677,-3.1677,-3.1677,-3.1677,-3.1677,-3.1677,-3.1677,-3.1677,-3.1664,-3.1189,-3.0128,-2.8788,-2.7538,-2.6294,-2.5615,-2.5518,-2.5518,-2.5518,-2.5518,-2.5518,-2.5518,-2.5518,-2.5518,-2.5518,-2.5518,-2.5518,-2.5518,-2.5518,-2.5518,-2.5518,-2.5518,-2.5518,-2.5518,-2.5227,-2.2769,-2.0406,-1.8145,-1.6573,-1.6474,-1.6083,-1.5983,-1.5081,-1.3478,-1.2279,-1.1378,-1.058,-0.9882,-0.9681,-0.9681,-0.9681,-0.9681,-0.9681,-0.9681,-0.9681,-0.9681,-0.9681,-0.9681,-0.9681,-0.9681,-0.9681,-0.9681,-0.9681,-0.9681,-5.7901,-5.7976,-5.883,-5.9307,-5.9405,-5.8237,-5.7424,-5.6893,-5.5691,-5.4882,-5.4416,-5.4416,-5.3902,-5.3221,-5.2143,-5.097,-4.9103,-4.8179,-4.7228,-4.6726,-4.6026,-4.5128,-4.4048,-4.3159,-4.2461,-4.0929,-4.0583,-4.0583,-4.0583,-4.0583,-4.0583,-4.0583,-4.0583,-4.0583,-4.0583,-4.0583,-4.0583,-4.0583,-4.0583,-4.0583,-4.0583,-4.0583,-4.0583,-4.0583,-3.9474,-3.8543,-3.6961,-3.5569,-3.4089,-3.288,-3.2043,-3.1772,-3.1677,-3.1677,-3.1677,-3.1677,-3.1677,-3.1677,-3.1664,-3.1664,-3.1379,-3.0522,-2.9363,-2.8116,-2.7056,-2.61,-2.5615,-2.5518,-2.5518,-2.5518,-2.5518,-2.5518,-2.5518,-2.5518,-2.5518,-2.5518,-2.5518,-2.5518,-2.5518,-2.5518,-2.5518,-2.5518,-2.5518,-2.5518,-2.5518,-2.5227,-2.2466,-1.9815,-1.7558,-1.6083,-1.6083,-1.5877,-1.5678,-1.4875,-1.3273,-1.2279,-1.1383,-1.058,-0.9681,-0.9681,-0.9681,-0.9681,-0.9681,-0.9681,-0.9681,-0.9681,-0.9681,-0.9681,-0.9681,-0.9681,-0.9681,-0.9681,-0.9681,-0.9681,-0.9681,-5.7901,-5.8027,-5.9056,-5.9508,-5.9405,-5.8525,-5.774,-5.6973,-5.6094,-5.5206,-5.4416,-5.4334,-5.3655,-5.2392,-5.1558,-5.004,-4.8675,-4.7574,-4.69,-4.6483,-4.6114,-4.5128,-4.396,-4.3159,-4.2461,-4.1019,-4.0583,-4.0583,-4.0583,-4.0583,-4.0583,-4.0583,-4.0583,-4.0583,-4.0583,-4.0583,-4.0583,-4.0583,-4.0583,-4.0583,-4.0583,-4.0583,-4.0583,-4.0402,-3.9291,-3.7807,-3.6313,-3.4932,-3.3445,-3.2421,-3.1772,-3.1772,-3.1677,-3.1677,-3.1677,-3.1677,-3.1677,-3.1677,-3.1664,-3.1284,-3.0795,-2.9746,-2.8692,-2.7634,-2.6766,-2.5906,-2.5518,-2.5518,-2.5518,-2.5518,-2.5518,-2.5518,-2.5518,-2.5518,-2.5518,-2.5518,-2.5518,-2.5518,-2.5518,-2.5518,-2.5518,-2.5518,-2.5129,-2.4935,-2.3951,-2.3746,-2.2172,-1.952,-1.7162,-1.6083,-1.6083,-1.5778,-1.528,-1.4277,-1.3073,-1.2079,-1.1182,-1.038,-0.9681,-0.9681,-0.9681,-0.9681,-0.9681,-0.9681,-0.9681,-0.9681,-0.9681,-0.9681,-0.9681,-0.9681,-0.9681,-0.9681,-0.9681,-0.9681,-0.9681,-5.7901,-5.8027,-5.9056,-5.9508,-5.9405,-5.8603,-5.774,-5.6893,-5.6013,-5.5125,-5.4416,-5.4416,-5.3655,-5.2559,-5.1892,-5.0379,-4.8589,-4.7986,-4.7314,-4.6483,-4.6221,-4.5128,-4.4067,-4.3159,-4.2461,-4.1019,-4.0583,-4.0583,-4.0583,-4.0583,-4.0583,-4.0583,-4.0583,-4.0583,-4.0583,-4.0583,-4.0583,-4.0583,-4.0583,-4.0583,-4.0583,-4.0583,-4.0583,-4.0203,-3.8834,-3.7238,-3.6127,-3.4276,-3.288,-3.1948,-3.1772,-3.1677,-3.1677,-3.1677,-3.1677,-3.1677,-3.1677,-3.1677,-3.1569,-3.07,-2.9746,-2.8884,-2.8019,-2.6971,-2.6003,-2.5518,-2.5518,-2.5518,-2.5518,-2.5518,-2.5518,-2.5518,-2.5518,-2.5518,-2.5518,-2.5518,-2.5518,-2.5518,-2.5518,-2.5518,-2.5518,-2.5421,-2.4935,-2.4243,-2.2671,-2.1888,-2.1094,-1.9322,-1.6871,-1.6083,-1.6083,-1.5578,-1.4975,-1.3978,-1.2873,-1.1778,-1.0881,-1.0083,-0.9681,-0.9681,-0.9681,-0.9681,-0.9681,-0.9681,-0.9681,-0.9681,-0.9681,-0.9681,-0.9681,-0.9681,-0.9681,-0.9681,-0.9681,-0.9681,-0.9681,-5.8102,-5.8504,-5.9207,-5.9508,-5.9508,-5.9173,-5.8315,-5.6893,-5.553,-5.4661,-5.4498,-5.4416,-5.3655,-5.2559,-5.1306,-5.004,-4.8417,-4.7141,-4.6464,-4.6396,-4.6308,-4.504,-4.396,-4.3159,-4.2371,-4.1019,-4.0583,-4.0583,-4.0583,-4.0583,-4.0583,-4.0583,-4.0583,-4.0583,-4.0583,-4.0583,-4.0583,-4.0583,-4.0583,-4.0583,-4.0583,-4.0583,-4.0583,-4.0385,-3.8267,-3.6684,-3.5849,-3.3807,-3.2327,-3.1758,-3.1677,-3.1677,-3.1677,-3.1677,-3.1677,-3.1677,-3.1677,-3.1284,-3.0713,-2.9746,-2.9076,-2.8404,-2.7538,-2.6584,-2.5712,-2.5518,-2.5518,-2.5518,-2.5518,-2.5518,-2.5518,-2.5518,-2.5518,-2.5518,-2.5518,-2.5518,-2.5518,-2.5518,-2.5518,-2.5518,-2.5518,-2.5518,-2.5227,-2.4048,-2.2573,-2.0996,-2.0307,-1.8738,-1.6474,-1.6182,-1.6083,-1.5379,-1.4775,-1.3672,-1.2679,-1.1483,-1.0681,-0.9982,-0.9681,-0.9681,-0.9681,-0.9681,-0.9681,-0.9681,-0.9681,-0.9681,-0.9681,-0.9681,-0.9681,-0.9681,-0.9681,-0.9681,-0.9681,-0.9681,-0.9681,-5.8227,-5.878,-5.9282,-5.9508,-5.9508,-5.9508,-5.855,-5.6893,-5.5206,-5.4416,-5.4416,-5.4416,-5.3326,-5.1892,-5.0717,-4.9209,-4.7661,-4.6813,-4.6308,-4.6308,-4.6308,-4.504,-4.396,-4.3248,-4.2281,-4.111,-4.0583,-4.0583,-4.0583,-4.0583,-4.0583,-4.0583,-4.0583,-4.0583,-4.0583,-4.0583,-4.0583,-4.0583,-4.0583,-4.0583,-4.0583,-4.0493,-4.0294,-3.9275,-3.7607,-3.5849,-3.4823,-3.3337,-3.1677,-3.1677,-3.1677,-3.1677,-3.1677,-3.1677,-3.1677,-3.1677,-3.1189,-3.0808,-3.0128,-2.8692,-2.8116,-2.7923,-2.7056,-2.6294,-2.5615,-2.5518,-2.5518,-2.5518,-2.5518,-2.5518,-2.5518,-2.5518,-2.5518,-2.5518,-2.5518,-2.5518,-2.5518,-2.5518,-2.5518,-2.5518,-2.5518,-2.5518,-2.5324,-2.3951,-2.2583,-2.0996,-1.9511,-1.7947,-1.6474,-1.6282,-1.6083,-1.5479,-1.4576,-1.3473,-1.2274,-1.1082,-1.0279,-0.9782,-0.9681,-0.9681,-0.9681,-0.9681,-0.9681,-0.9681,-0.9681,-0.9681,-0.9681,-0.9681,-0.9681,-0.9681,-0.9681,-0.9681,-0.9681,-0.9681,-0.9681,-5.8227,-5.878,-5.9282,-5.9508,-5.9508,-5.9328,-5.8393,-5.6813,-5.5125,-5.4416,-5.4416,-5.4334,-5.2973,-5.097,-5.04,-4.8952,-4.7074,-4.6551,-4.6308,-4.6221,-4.6133,-4.4775,-4.3889,-4.3159,-4.2102,-4.111,-4.0583,-4.0583,-4.0583,-4.0583,-4.0583,-4.0583,-4.0583,-4.0583,-4.0583,-4.0583,-4.0583,-4.0583,-4.0583,-4.0583,-4.0583,-4.0583,-3.9947,-3.8742,-3.7054,-3.5476,-3.4183,-3.2691,-3.1853,-3.1677,-3.1677,-3.1677,-3.1677,-3.1677,-3.1677,-3.1379,-3.0604,-3.0223,-2.9459,-2.7923,-2.7249,-2.6959,-2.6197,-2.5712,-2.5518,-2.5518,-2.5518,-2.5518,-2.5518,-2.5518,-2.5518,-2.5518,-2.5518,-2.5518,-2.5518,-2.5518,-2.5518,-2.5518,-2.5518,-2.5518,-2.5518,-2.5421,-2.5227,-2.4146,-2.2877,-2.1496,-2.0012,-1.8335,-1.7062,-1.6282,-1.6083,-1.5778,-1.4676,-1.3273,-1.2074,-1.0881,-1.0179,-0.9681,-0.9681,-0.9681,-0.9681,-0.9681,-0.9681,-0.9681,-0.9681,-0.9681,-0.9681,-0.9681,-0.9681,-0.9681,-0.9681,-0.9681,-0.9681,-0.9681,-0.9681,-5.8428,-5.9257,-5.9433,-5.9508,-5.9328,-5.8237,-5.7052,-5.5933,-5.4824,-5.4416,-5.4334,-5.3386,-5.2476,-5.1725,-4.9764,-4.8503,-4.7574,-4.6813,-4.6376,-4.6133,-4.5695,-4.4617,-4.3623,-4.273,-4.1742,-4.1019,-4.0583,-4.0583,-4.0583,-4.0583,-4.0583,-4.0583,-4.0583,-4.0583,-4.0583,-4.0583,-4.0583,-4.0583,-4.0583,-4.0583,-4.0493,-4.0493,-3.9474,-3.8175,-3.6684,-3.5197,-3.3713,-3.2421,-3.1772,-3.1677,-3.1677,-3.1677,-3.1677,-3.1677,-3.1582,-3.0617,-3.0128,-2.965,-2.8212,-2.7442,-2.6766,-2.6197,-2.5712,-2.5615,-2.5518,-2.5518,-2.5518,-2.5518,-2.5518,-2.5518,-2.5518,-2.5518,-2.5518,-2.5518,-2.5518,-2.5518,-2.5518,-2.5518,-2.5518,-2.5518,-2.5518,-2.5518,-2.5227,-2.4448,-2.317,-2.1986,-2.0603,-1.8928,-1.7452,-1.6672,-1.5884,-1.5578,-1.4476,-1.3073,-1.2074,-1.1077,-1.0279,-0.9681,-0.9681,-0.9681,-0.9681,-0.9681,-0.9681,-0.9681,-0.9681,-0.9681,-0.9681,-0.9681,-0.9681,-0.9681,-0.9681,-0.9681,-0.9681,-0.9681,-0.9681,-5.8504,-5.9433,-5.9508,-5.9173,-5.8393,-5.7449,-5.6334,-5.5206,-5.4661,-5.4416,-5.423,-5.3056,-5.2121,-5.1222,-4.9359,-4.8007,-4.7314,-4.6638,-4.6308,-4.6046,-4.5255,-4.4352,-4.3444,-4.2371,-4.1561,-4.0946,-4.0583,-4.0583,-4.0583,-4.0583,-4.0583,-4.0583,-4.0583,-4.0583,-4.0583,-4.0583,-4.0583,-4.0583,-4.0583,-4.0583,-4.0402,-4.0021,-3.8834,-3.7623,-3.6034,-3.4651,-3.3257,-3.2043,-3.1772,-3.1677,-3.1677,-3.1677,-3.1582,-3.1379,-3.0998,-3.0032,-2.9076,-2.8404,-2.7345,-2.6669,-2.6089,-2.5712,-2.5518,-2.5518,-2.5518,-2.5518,-2.5518,-2.5518,-2.5518,-2.5518,-2.5518,-2.5518,-2.5518,-2.5518,-2.5518,-2.5518,-2.5518,-2.5518,-2.5518,-2.5518,-2.5518,-2.5518,-2.5129,-2.4448,-2.3668,-2.2583,-2.1299,-1.9618,-1.8046,-1.6871,-1.5877,-1.518,-1.3978,-1.2674,-1.1879,-1.1077,-1.0279,-0.9681,-0.9681,-0.9681,-0.9681,-0.9681,-0.9681,-0.9681,-0.9681,-0.9681,-0.9681,-0.9681,-0.9681,-0.9681,-0.9681,-0.9681,-0.9681,-0.9681,-0.9681,-5.8529,-5.9508,-5.9508,-5.8628,-5.7132,-5.6973,-5.6013,-5.4498,-5.4252,-5.4171,-5.3902,-5.2807,-5.139,-5.0125,-4.8503,-4.7401,-4.6813,-4.6396,-4.6133,-4.6114,-4.4971,-4.3978,-4.3087,-4.2281,-4.1291,-4.0765,-4.0583,-4.0583,-4.0583,-4.0583,-4.0583,-4.0583,-4.0583,-4.0583,-4.0583,-4.0583,-4.0583,-4.0583,-4.0583,-4.0583,-4.022,-3.92,-3.7623,-3.622,-3.4823,-3.3351,-3.2232,-3.1677,-3.1677,-3.1677,-3.1677,-3.1677,-3.1379,-3.0808,-3.0319,-2.9446,-2.8308,-2.7442,-2.6766,-2.6089,-2.5809,-2.5518,-2.5518,-2.5518,-2.5518,-2.5518,-2.5518,-2.5518,-2.5518,-2.5518,-2.5518,-2.5518,-2.5518,-2.5518,-2.5518,-2.5518,-2.5518,-2.5518,-2.5518,-2.5518,-2.5518,-2.5518,-2.5421,-2.4838,-2.4643,-2.3463,-2.179,-2.0111,-1.873,-1.736,-1.587,-1.4775,-1.3772,-1.2574,-1.1578,-1.0781,-1.0083,-0.9681,-0.9681,-0.9681,-0.9681,-0.9681,-0.9681,-0.9681,-0.9681,-0.9681,-0.9681,-0.9681,-0.9681,-0.9681,-0.9681,-0.9681,-0.9681,-0.9681,-0.9681,-5.8529,-5.9483,-5.9508,-5.855,-5.7132,-5.6973,-5.6013,-5.4334,-5.3303,-5.289,-5.2642,-5.1474,-5.021,-4.8932,-4.7574,-4.6638,-4.6483,-4.6221,-4.587,-4.5236,-4.4333,-4.3444,-4.2371,-4.1579,-4.0946,-4.0674,-4.0583,-4.0583,-4.0583,-4.0583,-4.0583,-4.0583,-4.0583,-4.0583,-4.0583,-4.0583,-4.0583,-4.0583,-4.0583,-4.0493,-4.0129,-3.9109,-3.7623,-3.6127,-3.4651,-3.3163,-3.2138,-3.1677,-3.1677,-3.1677,-3.1677,-3.1677,-3.1677,-3.0604,-2.9746,-2.8872,-2.7731,-2.6766,-2.6197,-2.5712,-2.5615,-2.5518,-2.5518,-2.5518,-2.5518,-2.5518,-2.5518,-2.5518,-2.5518,-2.5518,-2.5518,-2.5518,-2.5518,-2.5518,-2.5518,-2.5518,-2.5518,-2.5518,-2.5518,-2.5518,-2.5518,-2.5518,-2.5518,-2.5421,-2.5324,-2.4048,-2.1986,-2.0406,-1.9322,-1.7947,-1.5671,-1.4476,-1.3573,-1.2574,-1.1383,-1.0585,-0.9882,-0.9681,-0.9681,-0.9681,-0.9681,-0.9681,-0.9681,-0.9681,-0.9681,-0.9681,-0.9681,-0.9681,-0.9681,-0.9681,-0.9681,-0.9681,-0.9681,-0.9681,-0.9681,-5.873,-5.9458,-5.9095,-5.8212,-5.7052,-5.6574,-5.5611,-5.4311,-5.2973,-5.2037,-5.139,-5.0125,-4.9017,-4.8093,-4.69,-4.6308,-4.6308,-4.6308,-4.5783,-4.4883,-4.38,-4.2998,-4.1939,-4.1037,-4.0765,-4.0583,-4.0583,-4.0583,-4.0583,-4.0583,-4.0583,-4.0583,-4.0583,-4.0583,-4.0583,-4.0583,-4.0583,-4.0583,-4.0583,-4.0311,-3.9748,-3.8175,-3.7146,-3.5756,-3.4183,-3.2691,-3.2138,-3.1677,-3.1677,-3.1677,-3.1677,-3.1284,-3.089,-2.9911,-2.8955,-2.8008,-2.6959,-2.61,-2.5712,-2.5518,-2.5518,-2.5518,-2.5518,-2.5518,-2.5518,-2.5518,-2.5518,-2.5518,-2.5518,-2.5518,-2.5518,-2.5518,-2.5518,-2.5518,-2.5518,-2.5518,-2.5518,-2.5518,-2.5518,-2.5518,-2.5518,-2.5518,-2.5518,-2.5518,-2.5324,-2.473,-2.2671,-2.0897,-1.9815,-1.7848,-1.5764,-1.4177,-1.3179,-1.1979,-1.058,-1.0083,-0.9782,-0.9681,-0.9681,-0.9681,-0.9681,-0.9681,-0.9681,-0.9681,-0.9681,-0.9681,-0.9681,-0.9681,-0.9681,-0.9681,-0.9681,-0.9681,-0.9681,-0.9681,-0.9681,-5.9006,-5.938,-5.8706,-5.7819,-5.6973,-5.6254,-5.5368,-5.423,-5.2807,-5.1474,-5.0294,-4.876,-4.8179,-4.7574,-4.6987,-4.6551,-4.6308,-4.6308,-4.5695,-4.4617,-4.38,-4.264,-4.1742,-4.1037,-4.0765,-4.0583,-4.0583,-4.0583,-4.0583,-4.0583,-4.0583,-4.0583,-4.0583,-4.0583,-4.0583,-4.0583,-4.0583,-4.0583,-4.0402,-3.9765,-3.8451,-3.6869,-3.622,-3.501,-3.3337,-3.1853,-3.1677,-3.1677,-3.1677,-3.1677,-3.1677,-3.1093,-3.0319,-2.9338,-2.838,-2.7345,-2.639,-2.5809,-2.5518,-2.5518,-2.5518,-2.5518,-2.5518,-2.5518,-2.5518,-2.5518,-2.5518,-2.5518,-2.5518,-2.5518,-2.5518,-2.5518,-2.5518,-2.5518,-2.5518,-2.5518,-2.5518,-2.5518,-2.5518,-2.5518,-2.5518,-2.5518,-2.5518,-2.5518,-2.5227,-2.473,-2.3551,-2.1977,-2.0012,-1.7345,-1.4875,-1.3678,-1.2679,-1.1378,-1.0079,-0.9782,-0.9681,-0.9681,-0.9681,-0.9681,-0.9681,-0.9681,-0.9681,-0.9681,-0.9681,-0.9681,-0.9681,-0.9681,-0.9681,-0.9681,-0.9681,-0.9681,-0.9681,-0.9681,-0.9681,-5.9031,-5.9483,-5.9328,-5.8393,-5.7132,-5.6813,-5.5852,-5.4148,-5.1809,-5.0569,-4.9785,-4.7834,-4.6638,-4.6726,-4.6464,-4.6308,-4.6308,-4.6308,-4.5059,-4.38,-4.3533,-4.2371,-4.1308,-4.0765,-4.0674,-4.0583,-4.0583,-4.0583,-4.0583,-4.0583,-4.0583,-4.0583,-4.0583,-4.0583,-4.0583,-4.0583,-4.0583,-4.0583,-4.0402,-3.9839,-3.8267,-3.6869,-3.5476,-3.4183,-3.2691,-3.1948,-3.1677,-3.1677,-3.1677,-3.1677,-3.1582,-3.0903,-3.0045,-2.8992,-2.7947,-2.6959,-2.5906,-2.5615,-2.5518,-2.5518,-2.5518,-2.5518,-2.5518,-2.5518,-2.5518,-2.5518,-2.5518,-2.5518,-2.5518,-2.5518,-2.5518,-2.5518,-2.5518,-2.5518,-2.5518,-2.5518,-2.5518,-2.5518,-2.5518,-2.5518,-2.5518,-2.5518,-2.5518,-2.5518,-2.5518,-2.4633,-2.3062,-2.1486,-2.0504,-1.7444,-1.4177,-1.3179,-1.2279,-1.1082,-0.9882,-0.9782,-0.9681,-0.9681,-0.9681,-0.9681,-0.9681,-0.9681,-0.9681,-0.9681,-0.9681,-0.9681,-0.9681,-0.9681,-0.9681,-0.9681,-0.9681,-0.9681,-0.9681,-0.9681,-0.9681]}]]